<?xml version="1.0" encoding="UTF-8" standalone="no" ?>
<gpx xmlns="http://www.topografix.com/GPX/1/1" xmlns:xsi="http://www.w3.org/2001/XMLSchema-instance" xsi:schemaLocation="http://www.topografix.com/GPX/1/1 http://www.topografix.com/GPX/1/1/gpx.xsd" version="1.1" creator="VisuGPX - https://www.visugpx.com">
  <metadata>
    <name>Rando du Jeudi 17 mai 2012</name>
    <desc><![CDATA[Départ Pont du cros - montée jusqu\'à Utelle par le GR puis parcours transv. jusqu\'au pont du cros]]></desc>
  </metadata>
  <trk>
    <name><![CDATA[SportyPalTrack]]></name>
    <desc><![CDATA[The track description]]></desc>
    <trkseg>
      <trkpt lat="43.87984" lon="7.23368">
        <ele>253</ele>
        <time>2012-05-17T07:33:29Z</time>
      </trkpt>
      <trkpt lat="43.87984" lon="7.23368">
        <ele>253</ele>
        <time>2012-05-17T07:33:36Z</time>
      </trkpt>
      <trkpt lat="43.87984" lon="7.23368">
        <ele>253</ele>
        <time>2012-05-17T07:33:44Z</time>
      </trkpt>
      <trkpt lat="43.87985" lon="7.23365">
        <ele>259</ele>
        <time>2012-05-17T07:33:50Z</time>
      </trkpt>
      <trkpt lat="43.87969" lon="7.23328">
        <ele>260</ele>
        <time>2012-05-17T07:33:58Z</time>
      </trkpt>
      <trkpt lat="43.87955" lon="7.23302">
        <ele>261</ele>
        <time>2012-05-17T07:34:04Z</time>
      </trkpt>
      <trkpt lat="43.87949" lon="7.23271">
        <ele>261</ele>
        <time>2012-05-17T07:34:11Z</time>
      </trkpt>
      <trkpt lat="43.87946" lon="7.23237">
        <ele>259</ele>
        <time>2012-05-17T07:34:18Z</time>
      </trkpt>
      <trkpt lat="43.87946" lon="7.23206">
        <ele>259</ele>
        <time>2012-05-17T07:34:25Z</time>
      </trkpt>
      <trkpt lat="43.87947" lon="7.23181">
        <ele>258</ele>
        <time>2012-05-17T07:34:33Z</time>
      </trkpt>
      <trkpt lat="43.87946" lon="7.23156">
        <ele>258</ele>
        <time>2012-05-17T07:34:41Z</time>
      </trkpt>
      <trkpt lat="43.87945" lon="7.23135">
        <ele>259</ele>
        <time>2012-05-17T07:34:49Z</time>
      </trkpt>
      <trkpt lat="43.87945" lon="7.23113">
        <ele>258</ele>
        <time>2012-05-17T07:34:56Z</time>
      </trkpt>
      <trkpt lat="43.87954" lon="7.23097">
        <ele>257</ele>
        <time>2012-05-17T07:35:03Z</time>
      </trkpt>
      <trkpt lat="43.87969" lon="7.23092">
        <ele>257</ele>
        <time>2012-05-17T07:35:11Z</time>
      </trkpt>
      <trkpt lat="43.87983" lon="7.23089">
        <ele>257</ele>
        <time>2012-05-17T07:35:17Z</time>
      </trkpt>
      <trkpt lat="43.88" lon="7.23084">
        <ele>258</ele>
        <time>2012-05-17T07:35:25Z</time>
      </trkpt>
      <trkpt lat="43.88011" lon="7.23089">
        <ele>259</ele>
        <time>2012-05-17T07:35:33Z</time>
      </trkpt>
      <trkpt lat="43.87998" lon="7.23093">
        <ele>259</ele>
        <time>2012-05-17T07:35:40Z</time>
      </trkpt>
      <trkpt lat="43.8798" lon="7.23092">
        <ele>260</ele>
        <time>2012-05-17T07:35:47Z</time>
      </trkpt>
      <trkpt lat="43.87963" lon="7.23098">
        <ele>261</ele>
        <time>2012-05-17T07:35:54Z</time>
      </trkpt>
      <trkpt lat="43.87956" lon="7.23118">
        <ele>262</ele>
        <time>2012-05-17T07:36:01Z</time>
      </trkpt>
      <trkpt lat="43.87959" lon="7.23142">
        <ele>263</ele>
        <time>2012-05-17T07:36:07Z</time>
      </trkpt>
      <trkpt lat="43.87961" lon="7.2316">
        <ele>264</ele>
        <time>2012-05-17T07:36:14Z</time>
      </trkpt>
      <trkpt lat="43.87965" lon="7.23184">
        <ele>265</ele>
        <time>2012-05-17T07:36:22Z</time>
      </trkpt>
      <trkpt lat="43.87969" lon="7.23204">
        <ele>266</ele>
        <time>2012-05-17T07:36:29Z</time>
      </trkpt>
      <trkpt lat="43.87981" lon="7.23218">
        <ele>268</ele>
        <time>2012-05-17T07:36:38Z</time>
      </trkpt>
      <trkpt lat="43.8799" lon="7.23198">
        <ele>270</ele>
        <time>2012-05-17T07:36:44Z</time>
      </trkpt>
      <trkpt lat="43.87995" lon="7.23175">
        <ele>270</ele>
        <time>2012-05-17T07:36:52Z</time>
      </trkpt>
      <trkpt lat="43.88003" lon="7.23153">
        <ele>273</ele>
        <time>2012-05-17T07:36:58Z</time>
      </trkpt>
      <trkpt lat="43.88011" lon="7.23131">
        <ele>273</ele>
        <time>2012-05-17T07:37:05Z</time>
      </trkpt>
      <trkpt lat="43.88022" lon="7.23119">
        <ele>273</ele>
        <time>2012-05-17T07:37:12Z</time>
      </trkpt>
      <trkpt lat="43.88038" lon="7.23114">
        <ele>272</ele>
        <time>2012-05-17T07:37:19Z</time>
      </trkpt>
      <trkpt lat="43.88055" lon="7.23104">
        <ele>273</ele>
        <time>2012-05-17T07:37:25Z</time>
      </trkpt>
      <trkpt lat="43.88067" lon="7.23087">
        <ele>275</ele>
        <time>2012-05-17T07:37:32Z</time>
      </trkpt>
      <trkpt lat="43.88078" lon="7.23065">
        <ele>279</ele>
        <time>2012-05-17T07:37:39Z</time>
      </trkpt>
      <trkpt lat="43.88075" lon="7.23039">
        <ele>284</ele>
        <time>2012-05-17T07:37:45Z</time>
      </trkpt>
      <trkpt lat="43.88052" lon="7.2304">
        <ele>287</ele>
        <time>2012-05-17T07:37:53Z</time>
      </trkpt>
      <trkpt lat="43.88033" lon="7.23028">
        <ele>288</ele>
        <time>2012-05-17T07:38:01Z</time>
      </trkpt>
      <trkpt lat="43.88027" lon="7.23012">
        <ele>288</ele>
        <time>2012-05-17T07:38:08Z</time>
      </trkpt>
      <trkpt lat="43.8804" lon="7.23024">
        <ele>290</ele>
        <time>2012-05-17T07:38:15Z</time>
      </trkpt>
      <trkpt lat="43.88058" lon="7.23034">
        <ele>292</ele>
        <time>2012-05-17T07:38:23Z</time>
      </trkpt>
      <trkpt lat="43.88074" lon="7.23032">
        <ele>295</ele>
        <time>2012-05-17T07:38:30Z</time>
      </trkpt>
      <trkpt lat="43.88089" lon="7.23035">
        <ele>297</ele>
        <time>2012-05-17T07:38:37Z</time>
      </trkpt>
      <trkpt lat="43.88098" lon="7.23051">
        <ele>298</ele>
        <time>2012-05-17T07:38:44Z</time>
      </trkpt>
      <trkpt lat="43.88088" lon="7.23061">
        <ele>299</ele>
        <time>2012-05-17T07:38:51Z</time>
      </trkpt>
      <trkpt lat="43.8808" lon="7.23083">
        <ele>300</ele>
        <time>2012-05-17T07:38:58Z</time>
      </trkpt>
      <trkpt lat="43.88074" lon="7.23103">
        <ele>302</ele>
        <time>2012-05-17T07:39:06Z</time>
      </trkpt>
      <trkpt lat="43.88065" lon="7.23126">
        <ele>302</ele>
        <time>2012-05-17T07:39:12Z</time>
      </trkpt>
      <trkpt lat="43.88063" lon="7.2315">
        <ele>303</ele>
        <time>2012-05-17T07:39:19Z</time>
      </trkpt>
      <trkpt lat="43.88064" lon="7.23173">
        <ele>304</ele>
        <time>2012-05-17T07:39:25Z</time>
      </trkpt>
      <trkpt lat="43.88068" lon="7.23195">
        <ele>305</ele>
        <time>2012-05-17T07:39:31Z</time>
      </trkpt>
      <trkpt lat="43.88074" lon="7.23219">
        <ele>307</ele>
        <time>2012-05-17T07:39:38Z</time>
      </trkpt>
      <trkpt lat="43.88084" lon="7.2324">
        <ele>308</ele>
        <time>2012-05-17T07:39:46Z</time>
      </trkpt>
      <trkpt lat="43.88095" lon="7.23263">
        <ele>309</ele>
        <time>2012-05-17T07:39:52Z</time>
      </trkpt>
      <trkpt lat="43.8811" lon="7.23285">
        <ele>310</ele>
        <time>2012-05-17T07:39:59Z</time>
      </trkpt>
      <trkpt lat="43.88131" lon="7.23305">
        <ele>310</ele>
        <time>2012-05-17T07:40:07Z</time>
      </trkpt>
      <trkpt lat="43.88157" lon="7.23312">
        <ele>311</ele>
        <time>2012-05-17T07:40:15Z</time>
      </trkpt>
      <trkpt lat="43.88178" lon="7.23322">
        <ele>312</ele>
        <time>2012-05-17T07:40:22Z</time>
      </trkpt>
      <trkpt lat="43.88167" lon="7.23342">
        <ele>312</ele>
        <time>2012-05-17T07:40:30Z</time>
      </trkpt>
      <trkpt lat="43.88151" lon="7.23351">
        <ele>313</ele>
        <time>2012-05-17T07:40:37Z</time>
      </trkpt>
      <trkpt lat="43.88137" lon="7.23355">
        <ele>314</ele>
        <time>2012-05-17T07:40:44Z</time>
      </trkpt>
      <trkpt lat="43.8812" lon="7.23355">
        <ele>314</ele>
        <time>2012-05-17T07:40:52Z</time>
      </trkpt>
      <trkpt lat="43.88105" lon="7.23352">
        <ele>316</ele>
        <time>2012-05-17T07:40:59Z</time>
      </trkpt>
      <trkpt lat="43.88087" lon="7.23354">
        <ele>316</ele>
        <time>2012-05-17T07:41:06Z</time>
      </trkpt>
      <trkpt lat="43.88084" lon="7.23371">
        <ele>318</ele>
        <time>2012-05-17T07:41:14Z</time>
      </trkpt>
      <trkpt lat="43.88102" lon="7.23372">
        <ele>319</ele>
        <time>2012-05-17T07:41:21Z</time>
      </trkpt>
      <trkpt lat="43.88119" lon="7.23381">
        <ele>319</ele>
        <time>2012-05-17T07:41:28Z</time>
      </trkpt>
      <trkpt lat="43.88135" lon="7.23382">
        <ele>320</ele>
        <time>2012-05-17T07:41:35Z</time>
      </trkpt>
      <trkpt lat="43.88151" lon="7.23377">
        <ele>321</ele>
        <time>2012-05-17T07:41:42Z</time>
      </trkpt>
      <trkpt lat="43.88165" lon="7.23373">
        <ele>323</ele>
        <time>2012-05-17T07:41:48Z</time>
      </trkpt>
      <trkpt lat="43.8818" lon="7.23366">
        <ele>323</ele>
        <time>2012-05-17T07:41:55Z</time>
      </trkpt>
      <trkpt lat="43.88194" lon="7.23354">
        <ele>323</ele>
        <time>2012-05-17T07:42:02Z</time>
      </trkpt>
      <trkpt lat="43.88202" lon="7.23356">
        <ele>323</ele>
        <time>2012-05-17T07:42:10Z</time>
      </trkpt>
      <trkpt lat="43.88186" lon="7.23364">
        <ele>324</ele>
        <time>2012-05-17T07:42:17Z</time>
      </trkpt>
      <trkpt lat="43.88168" lon="7.23372">
        <ele>327</ele>
        <time>2012-05-17T07:42:24Z</time>
      </trkpt>
      <trkpt lat="43.88154" lon="7.2338">
        <ele>328</ele>
        <time>2012-05-17T07:42:30Z</time>
      </trkpt>
      <trkpt lat="43.88139" lon="7.2339">
        <ele>329</ele>
        <time>2012-05-17T07:42:37Z</time>
      </trkpt>
      <trkpt lat="43.88123" lon="7.23395">
        <ele>330</ele>
        <time>2012-05-17T07:42:45Z</time>
      </trkpt>
      <trkpt lat="43.88106" lon="7.23401">
        <ele>332</ele>
        <time>2012-05-17T07:42:53Z</time>
      </trkpt>
      <trkpt lat="43.88099" lon="7.23417">
        <ele>334</ele>
        <time>2012-05-17T07:42:59Z</time>
      </trkpt>
      <trkpt lat="43.88099" lon="7.23439">
        <ele>335</ele>
        <time>2012-05-17T07:43:06Z</time>
      </trkpt>
      <trkpt lat="43.88102" lon="7.23462">
        <ele>336</ele>
        <time>2012-05-17T07:43:13Z</time>
      </trkpt>
      <trkpt lat="43.88104" lon="7.23486">
        <ele>338</ele>
        <time>2012-05-17T07:43:20Z</time>
      </trkpt>
      <trkpt lat="43.88106" lon="7.23507">
        <ele>338</ele>
        <time>2012-05-17T07:43:27Z</time>
      </trkpt>
      <trkpt lat="43.88107" lon="7.23529">
        <ele>339</ele>
        <time>2012-05-17T07:43:35Z</time>
      </trkpt>
      <trkpt lat="43.88112" lon="7.23551">
        <ele>340</ele>
        <time>2012-05-17T07:43:42Z</time>
      </trkpt>
      <trkpt lat="43.88117" lon="7.23578">
        <ele>341</ele>
        <time>2012-05-17T07:43:50Z</time>
      </trkpt>
      <trkpt lat="43.8813" lon="7.23574">
        <ele>342</ele>
        <time>2012-05-17T07:43:58Z</time>
      </trkpt>
      <trkpt lat="43.88135" lon="7.23548">
        <ele>343</ele>
        <time>2012-05-17T07:44:05Z</time>
      </trkpt>
      <trkpt lat="43.88143" lon="7.23523">
        <ele>344</ele>
        <time>2012-05-17T07:44:13Z</time>
      </trkpt>
      <trkpt lat="43.88151" lon="7.235">
        <ele>347</ele>
        <time>2012-05-17T07:44:21Z</time>
      </trkpt>
      <trkpt lat="43.8816" lon="7.23475">
        <ele>347</ele>
        <time>2012-05-17T07:44:29Z</time>
      </trkpt>
      <trkpt lat="43.88172" lon="7.23458">
        <ele>348</ele>
        <time>2012-05-17T07:44:35Z</time>
      </trkpt>
      <trkpt lat="43.88186" lon="7.23443">
        <ele>348</ele>
        <time>2012-05-17T07:44:43Z</time>
      </trkpt>
      <trkpt lat="43.88206" lon="7.23446">
        <ele>349</ele>
        <time>2012-05-17T07:44:50Z</time>
      </trkpt>
      <trkpt lat="43.88224" lon="7.23447">
        <ele>350</ele>
        <time>2012-05-17T07:44:56Z</time>
      </trkpt>
      <trkpt lat="43.88244" lon="7.23436">
        <ele>351</ele>
        <time>2012-05-17T07:45:03Z</time>
      </trkpt>
      <trkpt lat="43.88263" lon="7.23427">
        <ele>350</ele>
        <time>2012-05-17T07:45:10Z</time>
      </trkpt>
      <trkpt lat="43.88284" lon="7.23417">
        <ele>351</ele>
        <time>2012-05-17T07:45:18Z</time>
      </trkpt>
      <trkpt lat="43.88301" lon="7.23407">
        <ele>352</ele>
        <time>2012-05-17T07:45:25Z</time>
      </trkpt>
      <trkpt lat="43.8832" lon="7.23397">
        <ele>353</ele>
        <time>2012-05-17T07:45:33Z</time>
      </trkpt>
      <trkpt lat="43.88339" lon="7.23388">
        <ele>354</ele>
        <time>2012-05-17T07:45:40Z</time>
      </trkpt>
      <trkpt lat="43.88355" lon="7.23372">
        <ele>355</ele>
        <time>2012-05-17T07:45:48Z</time>
      </trkpt>
      <trkpt lat="43.88367" lon="7.23365">
        <ele>357</ele>
        <time>2012-05-17T07:45:55Z</time>
      </trkpt>
      <trkpt lat="43.88359" lon="7.23388">
        <ele>360</ele>
        <time>2012-05-17T07:46:03Z</time>
      </trkpt>
      <trkpt lat="43.88342" lon="7.23401">
        <ele>362</ele>
        <time>2012-05-17T07:46:11Z</time>
      </trkpt>
      <trkpt lat="43.88325" lon="7.23412">
        <ele>363</ele>
        <time>2012-05-17T07:46:19Z</time>
      </trkpt>
      <trkpt lat="43.8831" lon="7.23428">
        <ele>367</ele>
        <time>2012-05-17T07:46:27Z</time>
      </trkpt>
      <trkpt lat="43.88295" lon="7.23441">
        <ele>369</ele>
        <time>2012-05-17T07:46:34Z</time>
      </trkpt>
      <trkpt lat="43.88284" lon="7.23453">
        <ele>370</ele>
        <time>2012-05-17T07:46:40Z</time>
      </trkpt>
      <trkpt lat="43.8827" lon="7.23467">
        <ele>372</ele>
        <time>2012-05-17T07:46:48Z</time>
      </trkpt>
      <trkpt lat="43.88255" lon="7.23482">
        <ele>375</ele>
        <time>2012-05-17T07:46:56Z</time>
      </trkpt>
      <trkpt lat="43.88241" lon="7.23496">
        <ele>376</ele>
        <time>2012-05-17T07:47:03Z</time>
      </trkpt>
      <trkpt lat="43.88227" lon="7.23509">
        <ele>378</ele>
        <time>2012-05-17T07:47:10Z</time>
      </trkpt>
      <trkpt lat="43.88238" lon="7.23521">
        <ele>378</ele>
        <time>2012-05-17T07:47:17Z</time>
      </trkpt>
      <trkpt lat="43.88253" lon="7.23507">
        <ele>378</ele>
        <time>2012-05-17T07:47:24Z</time>
      </trkpt>
      <trkpt lat="43.88268" lon="7.235">
        <ele>378</ele>
        <time>2012-05-17T07:47:30Z</time>
      </trkpt>
      <trkpt lat="43.88284" lon="7.23493">
        <ele>378</ele>
        <time>2012-05-17T07:47:37Z</time>
      </trkpt>
      <trkpt lat="43.88301" lon="7.23488">
        <ele>380</ele>
        <time>2012-05-17T07:47:45Z</time>
      </trkpt>
      <trkpt lat="43.88319" lon="7.23479">
        <ele>381</ele>
        <time>2012-05-17T07:47:53Z</time>
      </trkpt>
      <trkpt lat="43.88336" lon="7.23474">
        <ele>382</ele>
        <time>2012-05-17T07:47:59Z</time>
      </trkpt>
      <trkpt lat="43.88351" lon="7.23469">
        <ele>382</ele>
        <time>2012-05-17T07:48:06Z</time>
      </trkpt>
      <trkpt lat="43.88366" lon="7.23465">
        <ele>383</ele>
        <time>2012-05-17T07:48:12Z</time>
      </trkpt>
      <trkpt lat="43.88377" lon="7.23472">
        <ele>384</ele>
        <time>2012-05-17T07:48:19Z</time>
      </trkpt>
      <trkpt lat="43.8836" lon="7.23473">
        <ele>386</ele>
        <time>2012-05-17T07:48:25Z</time>
      </trkpt>
      <trkpt lat="43.88343" lon="7.23478">
        <ele>388</ele>
        <time>2012-05-17T07:48:32Z</time>
      </trkpt>
      <trkpt lat="43.88324" lon="7.23488">
        <ele>390</ele>
        <time>2012-05-17T07:48:40Z</time>
      </trkpt>
      <trkpt lat="43.88306" lon="7.23495">
        <ele>390</ele>
        <time>2012-05-17T07:48:47Z</time>
      </trkpt>
      <trkpt lat="43.8829" lon="7.23512">
        <ele>392</ele>
        <time>2012-05-17T07:48:54Z</time>
      </trkpt>
      <trkpt lat="43.88291" lon="7.23541">
        <ele>395</ele>
        <time>2012-05-17T07:49:02Z</time>
      </trkpt>
      <trkpt lat="43.88292" lon="7.23565">
        <ele>396</ele>
        <time>2012-05-17T07:49:08Z</time>
      </trkpt>
      <trkpt lat="43.88295" lon="7.23589">
        <ele>398</ele>
        <time>2012-05-17T07:49:14Z</time>
      </trkpt>
      <trkpt lat="43.883" lon="7.2361">
        <ele>398</ele>
        <time>2012-05-17T07:49:21Z</time>
      </trkpt>
      <trkpt lat="43.88308" lon="7.23628">
        <ele>399</ele>
        <time>2012-05-17T07:49:29Z</time>
      </trkpt>
      <trkpt lat="43.88316" lon="7.23646">
        <ele>399</ele>
        <time>2012-05-17T07:49:36Z</time>
      </trkpt>
      <trkpt lat="43.88316" lon="7.23663">
        <ele>400</ele>
        <time>2012-05-17T07:49:43Z</time>
      </trkpt>
      <trkpt lat="43.88326" lon="7.23693">
        <ele>401</ele>
        <time>2012-05-17T07:49:50Z</time>
      </trkpt>
      <trkpt lat="43.88333" lon="7.2373">
        <ele>402</ele>
        <time>2012-05-17T07:49:57Z</time>
      </trkpt>
      <trkpt lat="43.88344" lon="7.23754">
        <ele>403</ele>
        <time>2012-05-17T07:50:04Z</time>
      </trkpt>
      <trkpt lat="43.88354" lon="7.23774">
        <ele>403</ele>
        <time>2012-05-17T07:50:12Z</time>
      </trkpt>
      <trkpt lat="43.8836" lon="7.23789">
        <ele>403</ele>
        <time>2012-05-17T07:50:18Z</time>
      </trkpt>
      <trkpt lat="43.88362" lon="7.23806">
        <ele>404</ele>
        <time>2012-05-17T07:50:26Z</time>
      </trkpt>
      <trkpt lat="43.8837" lon="7.23824">
        <ele>404</ele>
        <time>2012-05-17T07:50:34Z</time>
      </trkpt>
      <trkpt lat="43.88376" lon="7.23839">
        <ele>405</ele>
        <time>2012-05-17T07:50:41Z</time>
      </trkpt>
      <trkpt lat="43.88381" lon="7.23851">
        <ele>408</ele>
        <time>2012-05-17T07:50:48Z</time>
      </trkpt>
      <trkpt lat="43.88383" lon="7.23851">
        <ele>408</ele>
        <time>2012-05-17T07:50:54Z</time>
      </trkpt>
      <trkpt lat="43.88384" lon="7.23852">
        <ele>408</ele>
        <time>2012-05-17T07:51:01Z</time>
      </trkpt>
      <trkpt lat="43.88387" lon="7.23853">
        <ele>408</ele>
        <time>2012-05-17T07:51:09Z</time>
      </trkpt>
      <trkpt lat="43.88389" lon="7.23855">
        <ele>408</ele>
        <time>2012-05-17T07:51:17Z</time>
      </trkpt>
      <trkpt lat="43.8839" lon="7.23856">
        <ele>408</ele>
        <time>2012-05-17T07:51:24Z</time>
      </trkpt>
      <trkpt lat="43.88392" lon="7.23856">
        <ele>408</ele>
        <time>2012-05-17T07:51:31Z</time>
      </trkpt>
      <trkpt lat="43.88391" lon="7.23856">
        <ele>408</ele>
        <time>2012-05-17T07:51:37Z</time>
      </trkpt>
      <trkpt lat="43.8839" lon="7.23856">
        <ele>410</ele>
        <time>2012-05-17T07:51:45Z</time>
      </trkpt>
      <trkpt lat="43.88393" lon="7.23884">
        <ele>416</ele>
        <time>2012-05-17T07:51:53Z</time>
      </trkpt>
      <trkpt lat="43.88394" lon="7.239">
        <ele>416</ele>
        <time>2012-05-17T07:51:59Z</time>
      </trkpt>
      <trkpt lat="43.88394" lon="7.23906">
        <ele>416</ele>
        <time>2012-05-17T07:52:06Z</time>
      </trkpt>
      <trkpt lat="43.88394" lon="7.23909">
        <ele>416</ele>
        <time>2012-05-17T07:52:13Z</time>
      </trkpt>
      <trkpt lat="43.88394" lon="7.2391">
        <ele>416</ele>
        <time>2012-05-17T07:52:21Z</time>
      </trkpt>
      <trkpt lat="43.88394" lon="7.2391">
        <ele>416</ele>
        <time>2012-05-17T07:52:28Z</time>
      </trkpt>
      <trkpt lat="43.88395" lon="7.23911">
        <ele>416</ele>
        <time>2012-05-17T07:52:34Z</time>
      </trkpt>
      <trkpt lat="43.88394" lon="7.2391">
        <ele>416</ele>
        <time>2012-05-17T07:52:42Z</time>
      </trkpt>
      <trkpt lat="43.88394" lon="7.2391">
        <ele>416</ele>
        <time>2012-05-17T07:52:50Z</time>
      </trkpt>
      <trkpt lat="43.88395" lon="7.23911">
        <ele>416</ele>
        <time>2012-05-17T07:52:57Z</time>
      </trkpt>
      <trkpt lat="43.88395" lon="7.23912">
        <ele>416</ele>
        <time>2012-05-17T07:53:06Z</time>
      </trkpt>
      <trkpt lat="43.88406" lon="7.23926">
        <ele>429</ele>
        <time>2012-05-17T07:53:13Z</time>
      </trkpt>
      <trkpt lat="43.88421" lon="7.23939">
        <ele>430</ele>
        <time>2012-05-17T07:53:20Z</time>
      </trkpt>
      <trkpt lat="43.88427" lon="7.23945">
        <ele>430</ele>
        <time>2012-05-17T07:53:26Z</time>
      </trkpt>
      <trkpt lat="43.8843" lon="7.23948">
        <ele>430</ele>
        <time>2012-05-17T07:53:34Z</time>
      </trkpt>
      <trkpt lat="43.88431" lon="7.23948">
        <ele>430</ele>
        <time>2012-05-17T07:53:40Z</time>
      </trkpt>
      <trkpt lat="43.88431" lon="7.23949">
        <ele>430</ele>
        <time>2012-05-17T07:53:46Z</time>
      </trkpt>
      <trkpt lat="43.88431" lon="7.23949">
        <ele>432</ele>
        <time>2012-05-17T07:53:54Z</time>
      </trkpt>
      <trkpt lat="43.88441" lon="7.23977">
        <ele>435</ele>
        <time>2012-05-17T07:54:01Z</time>
      </trkpt>
      <trkpt lat="43.88445" lon="7.2399">
        <ele>435</ele>
        <time>2012-05-17T07:54:08Z</time>
      </trkpt>
      <trkpt lat="43.88448" lon="7.23995">
        <ele>435</ele>
        <time>2012-05-17T07:54:15Z</time>
      </trkpt>
      <trkpt lat="43.88448" lon="7.23996">
        <ele>435</ele>
        <time>2012-05-17T07:54:22Z</time>
      </trkpt>
      <trkpt lat="43.88448" lon="7.23997">
        <ele>435</ele>
        <time>2012-05-17T07:54:29Z</time>
      </trkpt>
      <trkpt lat="43.88448" lon="7.23997">
        <ele>435</ele>
        <time>2012-05-17T07:54:37Z</time>
      </trkpt>
      <trkpt lat="43.88454" lon="7.24013">
        <ele>440</ele>
        <time>2012-05-17T07:54:43Z</time>
      </trkpt>
      <trkpt lat="43.88459" lon="7.24032">
        <ele>440</ele>
        <time>2012-05-17T07:54:50Z</time>
      </trkpt>
      <trkpt lat="43.8846" lon="7.2404">
        <ele>440</ele>
        <time>2012-05-17T07:54:57Z</time>
      </trkpt>
      <trkpt lat="43.88462" lon="7.24045">
        <ele>440</ele>
        <time>2012-05-17T07:55:05Z</time>
      </trkpt>
      <trkpt lat="43.88463" lon="7.24046">
        <ele>440</ele>
        <time>2012-05-17T07:55:11Z</time>
      </trkpt>
      <trkpt lat="43.88463" lon="7.24046">
        <ele>440</ele>
        <time>2012-05-17T07:55:18Z</time>
      </trkpt>
      <trkpt lat="43.88464" lon="7.24048">
        <ele>443</ele>
        <time>2012-05-17T07:55:25Z</time>
      </trkpt>
      <trkpt lat="43.88477" lon="7.24059">
        <ele>448</ele>
        <time>2012-05-17T07:55:32Z</time>
      </trkpt>
      <trkpt lat="43.88487" lon="7.24068">
        <ele>448</ele>
        <time>2012-05-17T07:55:39Z</time>
      </trkpt>
      <trkpt lat="43.8849" lon="7.24072">
        <ele>448</ele>
        <time>2012-05-17T07:55:47Z</time>
      </trkpt>
      <trkpt lat="43.88493" lon="7.24073">
        <ele>448</ele>
        <time>2012-05-17T07:55:54Z</time>
      </trkpt>
      <trkpt lat="43.88493" lon="7.24074">
        <ele>448</ele>
        <time>2012-05-17T07:56:01Z</time>
      </trkpt>
      <trkpt lat="43.88495" lon="7.24075">
        <ele>448</ele>
        <time>2012-05-17T07:56:08Z</time>
      </trkpt>
      <trkpt lat="43.88497" lon="7.24076">
        <ele>453</ele>
        <time>2012-05-17T07:56:16Z</time>
      </trkpt>
      <trkpt lat="43.88517" lon="7.24078">
        <ele>456</ele>
        <time>2012-05-17T07:56:23Z</time>
      </trkpt>
      <trkpt lat="43.88527" lon="7.24079">
        <ele>456</ele>
        <time>2012-05-17T07:56:31Z</time>
      </trkpt>
      <trkpt lat="43.8853" lon="7.2408">
        <ele>456</ele>
        <time>2012-05-17T07:56:39Z</time>
      </trkpt>
      <trkpt lat="43.88531" lon="7.2408">
        <ele>456</ele>
        <time>2012-05-17T07:56:47Z</time>
      </trkpt>
      <trkpt lat="43.8853" lon="7.24079">
        <ele>456</ele>
        <time>2012-05-17T07:56:55Z</time>
      </trkpt>
      <trkpt lat="43.88534" lon="7.24082">
        <ele>465</ele>
        <time>2012-05-17T07:57:03Z</time>
      </trkpt>
      <trkpt lat="43.88553" lon="7.24094">
        <ele>465</ele>
        <time>2012-05-17T07:57:09Z</time>
      </trkpt>
      <trkpt lat="43.8856" lon="7.24098">
        <ele>465</ele>
        <time>2012-05-17T07:57:17Z</time>
      </trkpt>
      <trkpt lat="43.88563" lon="7.241">
        <ele>465</ele>
        <time>2012-05-17T07:57:24Z</time>
      </trkpt>
      <trkpt lat="43.88565" lon="7.24101">
        <ele>465</ele>
        <time>2012-05-17T07:57:31Z</time>
      </trkpt>
      <trkpt lat="43.88566" lon="7.24102">
        <ele>465</ele>
        <time>2012-05-17T07:57:39Z</time>
      </trkpt>
      <trkpt lat="43.88566" lon="7.24102">
        <ele>468</ele>
        <time>2012-05-17T07:57:46Z</time>
      </trkpt>
      <trkpt lat="43.88575" lon="7.24128">
        <ele>476</ele>
        <time>2012-05-17T07:57:53Z</time>
      </trkpt>
      <trkpt lat="43.88579" lon="7.24142">
        <ele>476</ele>
        <time>2012-05-17T07:58:01Z</time>
      </trkpt>
      <trkpt lat="43.88581" lon="7.24146">
        <ele>476</ele>
        <time>2012-05-17T07:58:08Z</time>
      </trkpt>
      <trkpt lat="43.88581" lon="7.24148">
        <ele>476</ele>
        <time>2012-05-17T07:58:16Z</time>
      </trkpt>
      <trkpt lat="43.88582" lon="7.2415">
        <ele>476</ele>
        <time>2012-05-17T07:58:23Z</time>
      </trkpt>
      <trkpt lat="43.88582" lon="7.2415">
        <ele>476</ele>
        <time>2012-05-17T07:58:29Z</time>
      </trkpt>
      <trkpt lat="43.88582" lon="7.2415">
        <ele>476</ele>
        <time>2012-05-17T07:58:37Z</time>
      </trkpt>
      <trkpt lat="43.88587" lon="7.24175">
        <ele>480</ele>
        <time>2012-05-17T07:58:44Z</time>
      </trkpt>
      <trkpt lat="43.88589" lon="7.24192">
        <ele>480</ele>
        <time>2012-05-17T07:58:52Z</time>
      </trkpt>
      <trkpt lat="43.8859" lon="7.24196">
        <ele>480</ele>
        <time>2012-05-17T07:58:58Z</time>
      </trkpt>
      <trkpt lat="43.88591" lon="7.24199">
        <ele>480</ele>
        <time>2012-05-17T07:59:05Z</time>
      </trkpt>
      <trkpt lat="43.88592" lon="7.24202">
        <ele>480</ele>
        <time>2012-05-17T07:59:13Z</time>
      </trkpt>
      <trkpt lat="43.88592" lon="7.24202">
        <ele>480</ele>
        <time>2012-05-17T07:59:21Z</time>
      </trkpt>
      <trkpt lat="43.88591" lon="7.24201">
        <ele>480</ele>
        <time>2012-05-17T07:59:28Z</time>
      </trkpt>
      <trkpt lat="43.88594" lon="7.24213">
        <ele>492</ele>
        <time>2012-05-17T07:59:34Z</time>
      </trkpt>
      <trkpt lat="43.88598" lon="7.24234">
        <ele>492</ele>
        <time>2012-05-17T07:59:41Z</time>
      </trkpt>
      <trkpt lat="43.886" lon="7.24246">
        <ele>492</ele>
        <time>2012-05-17T07:59:49Z</time>
      </trkpt>
      <trkpt lat="43.88601" lon="7.24251">
        <ele>492</ele>
        <time>2012-05-17T07:59:56Z</time>
      </trkpt>
      <trkpt lat="43.88601" lon="7.24253">
        <ele>492</ele>
        <time>2012-05-17T08:00:04Z</time>
      </trkpt>
      <trkpt lat="43.88601" lon="7.24253">
        <ele>492</ele>
        <time>2012-05-17T08:00:10Z</time>
      </trkpt>
      <trkpt lat="43.88602" lon="7.24255">
        <ele>492</ele>
        <time>2012-05-17T08:00:17Z</time>
      </trkpt>
      <trkpt lat="43.88602" lon="7.24255">
        <ele>492</ele>
        <time>2012-05-17T08:00:25Z</time>
      </trkpt>
      <trkpt lat="43.88602" lon="7.24255">
        <ele>492</ele>
        <time>2012-05-17T08:00:32Z</time>
      </trkpt>
      <trkpt lat="43.88602" lon="7.24255">
        <ele>492</ele>
        <time>2012-05-17T08:00:40Z</time>
      </trkpt>
      <trkpt lat="43.88601" lon="7.24253">
        <ele>492</ele>
        <time>2012-05-17T08:00:47Z</time>
      </trkpt>
      <trkpt lat="43.88603" lon="7.24253">
        <ele>498</ele>
        <time>2012-05-17T08:00:53Z</time>
      </trkpt>
      <trkpt lat="43.88617" lon="7.24219">
        <ele>500</ele>
        <time>2012-05-17T08:01:01Z</time>
      </trkpt>
      <trkpt lat="43.88622" lon="7.24206">
        <ele>500</ele>
        <time>2012-05-17T08:01:07Z</time>
      </trkpt>
      <trkpt lat="43.88624" lon="7.24199">
        <ele>500</ele>
        <time>2012-05-17T08:01:15Z</time>
      </trkpt>
      <trkpt lat="43.88625" lon="7.24197">
        <ele>500</ele>
        <time>2012-05-17T08:01:22Z</time>
      </trkpt>
      <trkpt lat="43.88625" lon="7.24196">
        <ele>500</ele>
        <time>2012-05-17T08:01:28Z</time>
      </trkpt>
      <trkpt lat="43.88625" lon="7.24196">
        <ele>500</ele>
        <time>2012-05-17T08:01:35Z</time>
      </trkpt>
      <trkpt lat="43.88627" lon="7.24185">
        <ele>506</ele>
        <time>2012-05-17T08:01:42Z</time>
      </trkpt>
      <trkpt lat="43.88631" lon="7.24163">
        <ele>506</ele>
        <time>2012-05-17T08:01:49Z</time>
      </trkpt>
      <trkpt lat="43.88633" lon="7.24152">
        <ele>506</ele>
        <time>2012-05-17T08:01:55Z</time>
      </trkpt>
      <trkpt lat="43.88634" lon="7.24147">
        <ele>506</ele>
        <time>2012-05-17T08:02:02Z</time>
      </trkpt>
      <trkpt lat="43.88633" lon="7.24146">
        <ele>506</ele>
        <time>2012-05-17T08:02:09Z</time>
      </trkpt>
      <trkpt lat="43.88634" lon="7.24145">
        <ele>506</ele>
        <time>2012-05-17T08:02:16Z</time>
      </trkpt>
      <trkpt lat="43.88635" lon="7.24143">
        <ele>506</ele>
        <time>2012-05-17T08:02:23Z</time>
      </trkpt>
      <trkpt lat="43.88633" lon="7.24146">
        <ele>506</ele>
        <time>2012-05-17T08:02:29Z</time>
      </trkpt>
      <trkpt lat="43.88633" lon="7.24145">
        <ele>506</ele>
        <time>2012-05-17T08:02:37Z</time>
      </trkpt>
      <trkpt lat="43.88635" lon="7.24142">
        <ele>506</ele>
        <time>2012-05-17T08:02:44Z</time>
      </trkpt>
      <trkpt lat="43.88635" lon="7.24141">
        <ele>506</ele>
        <time>2012-05-17T08:02:51Z</time>
      </trkpt>
      <trkpt lat="43.88635" lon="7.24141">
        <ele>506</ele>
        <time>2012-05-17T08:02:58Z</time>
      </trkpt>
      <trkpt lat="43.88636" lon="7.2414">
        <ele>514</ele>
        <time>2012-05-17T08:03:05Z</time>
      </trkpt>
      <trkpt lat="43.88658" lon="7.24134">
        <ele>521</ele>
        <time>2012-05-17T08:03:12Z</time>
      </trkpt>
      <trkpt lat="43.88666" lon="7.24131">
        <ele>521</ele>
        <time>2012-05-17T08:03:19Z</time>
      </trkpt>
      <trkpt lat="43.88669" lon="7.24129">
        <ele>521</ele>
        <time>2012-05-17T08:03:26Z</time>
      </trkpt>
      <trkpt lat="43.88671" lon="7.24129">
        <ele>521</ele>
        <time>2012-05-17T08:03:34Z</time>
      </trkpt>
      <trkpt lat="43.8867" lon="7.2413">
        <ele>521</ele>
        <time>2012-05-17T08:03:40Z</time>
      </trkpt>
      <trkpt lat="43.88669" lon="7.24131">
        <ele>521</ele>
        <time>2012-05-17T08:03:48Z</time>
      </trkpt>
      <trkpt lat="43.8867" lon="7.2413">
        <ele>521</ele>
        <time>2012-05-17T08:03:55Z</time>
      </trkpt>
      <trkpt lat="43.88671" lon="7.24129">
        <ele>521</ele>
        <time>2012-05-17T08:04:02Z</time>
      </trkpt>
      <trkpt lat="43.88671" lon="7.24129">
        <ele>521</ele>
        <time>2012-05-17T08:04:09Z</time>
      </trkpt>
      <trkpt lat="43.88671" lon="7.24129">
        <ele>521</ele>
        <time>2012-05-17T08:04:16Z</time>
      </trkpt>
      <trkpt lat="43.8867" lon="7.2413">
        <ele>521</ele>
        <time>2012-05-17T08:04:23Z</time>
      </trkpt>
      <trkpt lat="43.88672" lon="7.24138">
        <ele>538</ele>
        <time>2012-05-17T08:04:31Z</time>
      </trkpt>
      <trkpt lat="43.88676" lon="7.24171">
        <ele>538</ele>
        <time>2012-05-17T08:04:39Z</time>
      </trkpt>
      <trkpt lat="43.88677" lon="7.24182">
        <ele>538</ele>
        <time>2012-05-17T08:04:45Z</time>
      </trkpt>
      <trkpt lat="43.88677" lon="7.24188">
        <ele>538</ele>
        <time>2012-05-17T08:04:52Z</time>
      </trkpt>
      <trkpt lat="43.88677" lon="7.2419">
        <ele>538</ele>
        <time>2012-05-17T08:05:00Z</time>
      </trkpt>
      <trkpt lat="43.88678" lon="7.24191">
        <ele>538</ele>
        <time>2012-05-17T08:05:07Z</time>
      </trkpt>
      <trkpt lat="43.88678" lon="7.24192">
        <ele>538</ele>
        <time>2012-05-17T08:05:15Z</time>
      </trkpt>
      <trkpt lat="43.88678" lon="7.24192">
        <ele>538</ele>
        <time>2012-05-17T08:05:21Z</time>
      </trkpt>
      <trkpt lat="43.88677" lon="7.24191">
        <ele>538</ele>
        <time>2012-05-17T08:05:29Z</time>
      </trkpt>
      <trkpt lat="43.88677" lon="7.24191">
        <ele>538</ele>
        <time>2012-05-17T08:05:36Z</time>
      </trkpt>
      <trkpt lat="43.88677" lon="7.24192">
        <ele>538</ele>
        <time>2012-05-17T08:05:44Z</time>
      </trkpt>
      <trkpt lat="43.88678" lon="7.24192">
        <ele>538</ele>
        <time>2012-05-17T08:05:51Z</time>
      </trkpt>
      <trkpt lat="43.88678" lon="7.24192">
        <ele>538</ele>
        <time>2012-05-17T08:06:00Z</time>
      </trkpt>
      <trkpt lat="43.88678" lon="7.24193">
        <ele>538</ele>
        <time>2012-05-17T08:06:07Z</time>
      </trkpt>
      <trkpt lat="43.88684" lon="7.24201">
        <ele>550</ele>
        <time>2012-05-17T08:06:15Z</time>
      </trkpt>
      <trkpt lat="43.88696" lon="7.24219">
        <ele>550</ele>
        <time>2012-05-17T08:06:23Z</time>
      </trkpt>
      <trkpt lat="43.887" lon="7.24225">
        <ele>550</ele>
        <time>2012-05-17T08:06:30Z</time>
      </trkpt>
      <trkpt lat="43.88701" lon="7.24227">
        <ele>550</ele>
        <time>2012-05-17T08:06:36Z</time>
      </trkpt>
      <trkpt lat="43.88702" lon="7.24229">
        <ele>550</ele>
        <time>2012-05-17T08:06:43Z</time>
      </trkpt>
      <trkpt lat="43.88703" lon="7.2423">
        <ele>550</ele>
        <time>2012-05-17T08:06:50Z</time>
      </trkpt>
      <trkpt lat="43.88703" lon="7.2423">
        <ele>550</ele>
        <time>2012-05-17T08:06:58Z</time>
      </trkpt>
      <trkpt lat="43.88703" lon="7.2423">
        <ele>550</ele>
        <time>2012-05-17T08:07:06Z</time>
      </trkpt>
      <trkpt lat="43.88703" lon="7.2423">
        <ele>550</ele>
        <time>2012-05-17T08:07:13Z</time>
      </trkpt>
      <trkpt lat="43.88703" lon="7.24231">
        <ele>550</ele>
        <time>2012-05-17T08:07:20Z</time>
      </trkpt>
      <trkpt lat="43.88703" lon="7.2423">
        <ele>550</ele>
        <time>2012-05-17T08:07:27Z</time>
      </trkpt>
      <trkpt lat="43.88703" lon="7.24231">
        <ele>550</ele>
        <time>2012-05-17T08:07:35Z</time>
      </trkpt>
      <trkpt lat="43.8871" lon="7.24243">
        <ele>567</ele>
        <time>2012-05-17T08:07:42Z</time>
      </trkpt>
      <trkpt lat="43.88719" lon="7.2426">
        <ele>567</ele>
        <time>2012-05-17T08:07:50Z</time>
      </trkpt>
      <trkpt lat="43.88722" lon="7.24264">
        <ele>567</ele>
        <time>2012-05-17T08:07:56Z</time>
      </trkpt>
      <trkpt lat="43.88724" lon="7.24267">
        <ele>567</ele>
        <time>2012-05-17T08:08:04Z</time>
      </trkpt>
      <trkpt lat="43.88724" lon="7.24268">
        <ele>567</ele>
        <time>2012-05-17T08:08:12Z</time>
      </trkpt>
      <trkpt lat="43.88725" lon="7.24269">
        <ele>567</ele>
        <time>2012-05-17T08:08:20Z</time>
      </trkpt>
      <trkpt lat="43.88725" lon="7.24268">
        <ele>567</ele>
        <time>2012-05-17T08:08:27Z</time>
      </trkpt>
      <trkpt lat="43.88725" lon="7.24271">
        <ele>573</ele>
        <time>2012-05-17T08:08:34Z</time>
      </trkpt>
      <trkpt lat="43.8873" lon="7.24297">
        <ele>576</ele>
        <time>2012-05-17T08:08:41Z</time>
      </trkpt>
      <trkpt lat="43.88732" lon="7.2431">
        <ele>577</ele>
        <time>2012-05-17T08:08:49Z</time>
      </trkpt>
      <trkpt lat="43.88733" lon="7.24315">
        <ele>577</ele>
        <time>2012-05-17T08:08:57Z</time>
      </trkpt>
      <trkpt lat="43.88733" lon="7.24315">
        <ele>577</ele>
        <time>2012-05-17T08:09:04Z</time>
      </trkpt>
      <trkpt lat="43.88733" lon="7.24317">
        <ele>577</ele>
        <time>2012-05-17T08:09:11Z</time>
      </trkpt>
      <trkpt lat="43.88734" lon="7.24318">
        <ele>577</ele>
        <time>2012-05-17T08:09:20Z</time>
      </trkpt>
      <trkpt lat="43.88735" lon="7.24317">
        <ele>580</ele>
        <time>2012-05-17T08:09:27Z</time>
      </trkpt>
      <trkpt lat="43.88746" lon="7.2429">
        <ele>585</ele>
        <time>2012-05-17T08:09:34Z</time>
      </trkpt>
      <trkpt lat="43.88753" lon="7.24271">
        <ele>585</ele>
        <time>2012-05-17T08:09:41Z</time>
      </trkpt>
      <trkpt lat="43.88756" lon="7.24264">
        <ele>585</ele>
        <time>2012-05-17T08:09:48Z</time>
      </trkpt>
      <trkpt lat="43.88758" lon="7.24259">
        <ele>585</ele>
        <time>2012-05-17T08:09:55Z</time>
      </trkpt>
      <trkpt lat="43.88759" lon="7.24257">
        <ele>585</ele>
        <time>2012-05-17T08:10:03Z</time>
      </trkpt>
      <trkpt lat="43.88758" lon="7.24258">
        <ele>585</ele>
        <time>2012-05-17T08:10:11Z</time>
      </trkpt>
      <trkpt lat="43.88758" lon="7.24257">
        <ele>585</ele>
        <time>2012-05-17T08:10:18Z</time>
      </trkpt>
      <trkpt lat="43.88758" lon="7.24257">
        <ele>585</ele>
        <time>2012-05-17T08:10:25Z</time>
      </trkpt>
      <trkpt lat="43.88759" lon="7.24257">
        <ele>585</ele>
        <time>2012-05-17T08:10:33Z</time>
      </trkpt>
      <trkpt lat="43.88759" lon="7.24257">
        <ele>585</ele>
        <time>2012-05-17T08:10:40Z</time>
      </trkpt>
      <trkpt lat="43.88758" lon="7.24257">
        <ele>585</ele>
        <time>2012-05-17T08:10:48Z</time>
      </trkpt>
      <trkpt lat="43.88758" lon="7.24257">
        <ele>585</ele>
        <time>2012-05-17T08:10:54Z</time>
      </trkpt>
      <trkpt lat="43.88755" lon="7.2426">
        <ele>585</ele>
        <time>2012-05-17T08:11:01Z</time>
      </trkpt>
      <trkpt lat="43.88756" lon="7.24259">
        <ele>585</ele>
        <time>2012-05-17T08:11:09Z</time>
      </trkpt>
      <trkpt lat="43.88754" lon="7.24262">
        <ele>585</ele>
        <time>2012-05-17T08:11:15Z</time>
      </trkpt>
      <trkpt lat="43.88756" lon="7.24259">
        <ele>585</ele>
        <time>2012-05-17T08:11:23Z</time>
      </trkpt>
      <trkpt lat="43.8876" lon="7.24257">
        <ele>599</ele>
        <time>2012-05-17T08:11:30Z</time>
      </trkpt>
      <trkpt lat="43.88777" lon="7.24261">
        <ele>606</ele>
        <time>2012-05-17T08:11:37Z</time>
      </trkpt>
      <trkpt lat="43.88787" lon="7.24263">
        <ele>606</ele>
        <time>2012-05-17T08:11:45Z</time>
      </trkpt>
      <trkpt lat="43.88789" lon="7.24265">
        <ele>606</ele>
        <time>2012-05-17T08:11:53Z</time>
      </trkpt>
      <trkpt lat="43.88792" lon="7.24264">
        <ele>606</ele>
        <time>2012-05-17T08:12:00Z</time>
      </trkpt>
      <trkpt lat="43.88792" lon="7.24264">
        <ele>606</ele>
        <time>2012-05-17T08:12:08Z</time>
      </trkpt>
      <trkpt lat="43.88791" lon="7.24265">
        <ele>608</ele>
        <time>2012-05-17T08:12:15Z</time>
      </trkpt>
      <trkpt lat="43.88811" lon="7.24254">
        <ele>613</ele>
        <time>2012-05-17T08:12:22Z</time>
      </trkpt>
      <trkpt lat="43.88823" lon="7.24249">
        <ele>613</ele>
        <time>2012-05-17T08:12:30Z</time>
      </trkpt>
      <trkpt lat="43.88826" lon="7.24247">
        <ele>613</ele>
        <time>2012-05-17T08:12:37Z</time>
      </trkpt>
      <trkpt lat="43.88827" lon="7.24246">
        <ele>613</ele>
        <time>2012-05-17T08:12:44Z</time>
      </trkpt>
      <trkpt lat="43.88827" lon="7.24246">
        <ele>613</ele>
        <time>2012-05-17T08:12:50Z</time>
      </trkpt>
      <trkpt lat="43.88828" lon="7.24246">
        <ele>613</ele>
        <time>2012-05-17T08:12:58Z</time>
      </trkpt>
      <trkpt lat="43.88829" lon="7.24245">
        <ele>618</ele>
        <time>2012-05-17T08:13:06Z</time>
      </trkpt>
      <trkpt lat="43.88852" lon="7.2423">
        <ele>620</ele>
        <time>2012-05-17T08:13:13Z</time>
      </trkpt>
      <trkpt lat="43.88854" lon="7.24225">
        <ele>620</ele>
        <time>2012-05-17T08:13:20Z</time>
      </trkpt>
      <trkpt lat="43.88855" lon="7.24224">
        <ele>620</ele>
        <time>2012-05-17T08:13:27Z</time>
      </trkpt>
      <trkpt lat="43.88855" lon="7.2422">
        <ele>620</ele>
        <time>2012-05-17T08:13:34Z</time>
      </trkpt>
      <trkpt lat="43.88856" lon="7.24223">
        <ele>620</ele>
        <time>2012-05-17T08:13:41Z</time>
      </trkpt>
      <trkpt lat="43.88856" lon="7.24225">
        <ele>620</ele>
        <time>2012-05-17T08:13:49Z</time>
      </trkpt>
      <trkpt lat="43.88856" lon="7.24221">
        <ele>626</ele>
        <time>2012-05-17T08:13:55Z</time>
      </trkpt>
      <trkpt lat="43.88864" lon="7.24198">
        <ele>630</ele>
        <time>2012-05-17T08:14:01Z</time>
      </trkpt>
      <trkpt lat="43.8887" lon="7.24183">
        <ele>630</ele>
        <time>2012-05-17T08:14:09Z</time>
      </trkpt>
      <trkpt lat="43.88871" lon="7.24178">
        <ele>630</ele>
        <time>2012-05-17T08:14:17Z</time>
      </trkpt>
      <trkpt lat="43.88871" lon="7.24178">
        <ele>630</ele>
        <time>2012-05-17T08:14:25Z</time>
      </trkpt>
      <trkpt lat="43.88872" lon="7.24174">
        <ele>630</ele>
        <time>2012-05-17T08:14:32Z</time>
      </trkpt>
      <trkpt lat="43.88872" lon="7.24172">
        <ele>630</ele>
        <time>2012-05-17T08:14:38Z</time>
      </trkpt>
      <trkpt lat="43.88872" lon="7.24168">
        <ele>630</ele>
        <time>2012-05-17T08:14:45Z</time>
      </trkpt>
      <trkpt lat="43.88873" lon="7.24165">
        <ele>630</ele>
        <time>2012-05-17T08:14:52Z</time>
      </trkpt>
      <trkpt lat="43.88873" lon="7.24167">
        <ele>630</ele>
        <time>2012-05-17T08:14:59Z</time>
      </trkpt>
      <trkpt lat="43.88872" lon="7.24173">
        <ele>630</ele>
        <time>2012-05-17T08:15:06Z</time>
      </trkpt>
      <trkpt lat="43.88873" lon="7.24168">
        <ele>630</ele>
        <time>2012-05-17T08:15:13Z</time>
      </trkpt>
      <trkpt lat="43.88872" lon="7.2417">
        <ele>630</ele>
        <time>2012-05-17T08:15:19Z</time>
      </trkpt>
      <trkpt lat="43.88886" lon="7.2416">
        <ele>648</ele>
        <time>2012-05-17T08:15:27Z</time>
      </trkpt>
      <trkpt lat="43.88899" lon="7.24154">
        <ele>648</ele>
        <time>2012-05-17T08:15:34Z</time>
      </trkpt>
      <trkpt lat="43.88904" lon="7.24152">
        <ele>648</ele>
        <time>2012-05-17T08:15:41Z</time>
      </trkpt>
      <trkpt lat="43.88909" lon="7.2415">
        <ele>651</ele>
        <time>2012-05-17T08:15:48Z</time>
      </trkpt>
      <trkpt lat="43.88925" lon="7.2415">
        <ele>653</ele>
        <time>2012-05-17T08:15:55Z</time>
      </trkpt>
      <trkpt lat="43.88936" lon="7.2416">
        <ele>653</ele>
        <time>2012-05-17T08:16:03Z</time>
      </trkpt>
      <trkpt lat="43.88941" lon="7.24194">
        <ele>652</ele>
        <time>2012-05-17T08:16:09Z</time>
      </trkpt>
      <trkpt lat="43.88949" lon="7.24211">
        <ele>651</ele>
        <time>2012-05-17T08:16:16Z</time>
      </trkpt>
      <trkpt lat="43.88962" lon="7.24211">
        <ele>652</ele>
        <time>2012-05-17T08:16:22Z</time>
      </trkpt>
      <trkpt lat="43.88979" lon="7.24214">
        <ele>653</ele>
        <time>2012-05-17T08:16:28Z</time>
      </trkpt>
      <trkpt lat="43.88994" lon="7.24227">
        <ele>654</ele>
        <time>2012-05-17T08:16:35Z</time>
      </trkpt>
      <trkpt lat="43.88987" lon="7.24251">
        <ele>653</ele>
        <time>2012-05-17T08:16:42Z</time>
      </trkpt>
      <trkpt lat="43.88976" lon="7.24267">
        <ele>654</ele>
        <time>2012-05-17T08:16:49Z</time>
      </trkpt>
      <trkpt lat="43.8897" lon="7.24285">
        <ele>657</ele>
        <time>2012-05-17T08:16:57Z</time>
      </trkpt>
      <trkpt lat="43.8899" lon="7.24305">
        <ele>654</ele>
        <time>2012-05-17T08:17:03Z</time>
      </trkpt>
      <trkpt lat="43.89003" lon="7.24324">
        <ele>652</ele>
        <time>2012-05-17T08:17:11Z</time>
      </trkpt>
      <trkpt lat="43.89009" lon="7.24334">
        <ele>651</ele>
        <time>2012-05-17T08:17:18Z</time>
      </trkpt>
      <trkpt lat="43.89012" lon="7.24334">
        <ele>652</ele>
        <time>2012-05-17T08:17:25Z</time>
      </trkpt>
      <trkpt lat="43.89014" lon="7.24334">
        <ele>652</ele>
        <time>2012-05-17T08:17:31Z</time>
      </trkpt>
      <trkpt lat="43.89016" lon="7.24334">
        <ele>651</ele>
        <time>2012-05-17T08:17:38Z</time>
      </trkpt>
      <trkpt lat="43.89019" lon="7.24351">
        <ele>650</ele>
        <time>2012-05-17T08:17:45Z</time>
      </trkpt>
      <trkpt lat="43.89014" lon="7.24378">
        <ele>649</ele>
        <time>2012-05-17T08:17:53Z</time>
      </trkpt>
      <trkpt lat="43.89018" lon="7.24402">
        <ele>648</ele>
        <time>2012-05-17T08:18:00Z</time>
      </trkpt>
      <trkpt lat="43.89027" lon="7.24421">
        <ele>648</ele>
        <time>2012-05-17T08:18:07Z</time>
      </trkpt>
      <trkpt lat="43.89031" lon="7.24446">
        <ele>649</ele>
        <time>2012-05-17T08:18:15Z</time>
      </trkpt>
      <trkpt lat="43.89044" lon="7.24467">
        <ele>648</ele>
        <time>2012-05-17T08:18:22Z</time>
      </trkpt>
      <trkpt lat="43.89067" lon="7.24476">
        <ele>649</ele>
        <time>2012-05-17T08:18:30Z</time>
      </trkpt>
      <trkpt lat="43.89082" lon="7.24489">
        <ele>649</ele>
        <time>2012-05-17T08:18:37Z</time>
      </trkpt>
      <trkpt lat="43.89088" lon="7.24521">
        <ele>648</ele>
        <time>2012-05-17T08:18:44Z</time>
      </trkpt>
      <trkpt lat="43.89091" lon="7.24564">
        <ele>646</ele>
        <time>2012-05-17T08:18:51Z</time>
      </trkpt>
      <trkpt lat="43.89109" lon="7.24586">
        <ele>645</ele>
        <time>2012-05-17T08:18:58Z</time>
      </trkpt>
      <trkpt lat="43.89126" lon="7.24589">
        <ele>644</ele>
        <time>2012-05-17T08:19:04Z</time>
      </trkpt>
      <trkpt lat="43.89152" lon="7.24589">
        <ele>645</ele>
        <time>2012-05-17T08:19:12Z</time>
      </trkpt>
      <trkpt lat="43.89175" lon="7.24607">
        <ele>645</ele>
        <time>2012-05-17T08:19:19Z</time>
      </trkpt>
      <trkpt lat="43.89184" lon="7.24636">
        <ele>645</ele>
        <time>2012-05-17T08:19:27Z</time>
      </trkpt>
      <trkpt lat="43.89182" lon="7.2464">
        <ele>645</ele>
        <time>2012-05-17T08:19:35Z</time>
      </trkpt>
      <trkpt lat="43.89179" lon="7.2464">
        <ele>645</ele>
        <time>2012-05-17T08:19:42Z</time>
      </trkpt>
      <trkpt lat="43.89177" lon="7.24648">
        <ele>645</ele>
        <time>2012-05-17T08:19:49Z</time>
      </trkpt>
      <trkpt lat="43.89177" lon="7.24651">
        <ele>645</ele>
        <time>2012-05-17T08:19:55Z</time>
      </trkpt>
      <trkpt lat="43.89176" lon="7.24654">
        <ele>645</ele>
        <time>2012-05-17T08:20:02Z</time>
      </trkpt>
      <trkpt lat="43.89176" lon="7.24656">
        <ele>645</ele>
        <time>2012-05-17T08:20:08Z</time>
      </trkpt>
      <trkpt lat="43.89175" lon="7.24657">
        <ele>645</ele>
        <time>2012-05-17T08:20:15Z</time>
      </trkpt>
      <trkpt lat="43.89184" lon="7.24669">
        <ele>648</ele>
        <time>2012-05-17T08:20:23Z</time>
      </trkpt>
      <trkpt lat="43.89198" lon="7.24684">
        <ele>648</ele>
        <time>2012-05-17T08:20:30Z</time>
      </trkpt>
      <trkpt lat="43.89208" lon="7.24696">
        <ele>648</ele>
        <time>2012-05-17T08:20:36Z</time>
      </trkpt>
      <trkpt lat="43.89223" lon="7.24706">
        <ele>647</ele>
        <time>2012-05-17T08:20:44Z</time>
      </trkpt>
      <trkpt lat="43.89245" lon="7.24712">
        <ele>646</ele>
        <time>2012-05-17T08:20:52Z</time>
      </trkpt>
      <trkpt lat="43.89261" lon="7.24719">
        <ele>647</ele>
        <time>2012-05-17T08:21:00Z</time>
      </trkpt>
      <trkpt lat="43.89267" lon="7.24727">
        <ele>647</ele>
        <time>2012-05-17T08:21:07Z</time>
      </trkpt>
      <trkpt lat="43.8927" lon="7.24731">
        <ele>647</ele>
        <time>2012-05-17T08:21:14Z</time>
      </trkpt>
      <trkpt lat="43.89273" lon="7.24736">
        <ele>647</ele>
        <time>2012-05-17T08:21:22Z</time>
      </trkpt>
      <trkpt lat="43.89276" lon="7.2474">
        <ele>647</ele>
        <time>2012-05-17T08:21:30Z</time>
      </trkpt>
      <trkpt lat="43.89273" lon="7.24736">
        <ele>647</ele>
        <time>2012-05-17T08:21:37Z</time>
      </trkpt>
      <trkpt lat="43.8927" lon="7.24733">
        <ele>647</ele>
        <time>2012-05-17T08:21:44Z</time>
      </trkpt>
      <trkpt lat="43.89272" lon="7.24735">
        <ele>647</ele>
        <time>2012-05-17T08:21:52Z</time>
      </trkpt>
      <trkpt lat="43.8928" lon="7.24747">
        <ele>654</ele>
        <time>2012-05-17T08:21:59Z</time>
      </trkpt>
      <trkpt lat="43.8929" lon="7.24765">
        <ele>654</ele>
        <time>2012-05-17T08:22:07Z</time>
      </trkpt>
      <trkpt lat="43.89294" lon="7.24771">
        <ele>654</ele>
        <time>2012-05-17T08:22:14Z</time>
      </trkpt>
      <trkpt lat="43.89296" lon="7.24773">
        <ele>654</ele>
        <time>2012-05-17T08:22:21Z</time>
      </trkpt>
      <trkpt lat="43.89295" lon="7.24774">
        <ele>654</ele>
        <time>2012-05-17T08:22:29Z</time>
      </trkpt>
      <trkpt lat="43.89295" lon="7.24774">
        <ele>654</ele>
        <time>2012-05-17T08:22:36Z</time>
      </trkpt>
      <trkpt lat="43.89295" lon="7.24774">
        <ele>654</ele>
        <time>2012-05-17T08:22:43Z</time>
      </trkpt>
      <trkpt lat="43.89295" lon="7.24774">
        <ele>654</ele>
        <time>2012-05-17T08:22:51Z</time>
      </trkpt>
      <trkpt lat="43.89295" lon="7.24774">
        <ele>654</ele>
        <time>2012-05-17T08:22:59Z</time>
      </trkpt>
      <trkpt lat="43.89295" lon="7.24774">
        <ele>654</ele>
        <time>2012-05-17T08:23:06Z</time>
      </trkpt>
      <trkpt lat="43.89295" lon="7.24774">
        <ele>654</ele>
        <time>2012-05-17T08:23:13Z</time>
      </trkpt>
      <trkpt lat="43.89294" lon="7.24773">
        <ele>654</ele>
        <time>2012-05-17T08:23:20Z</time>
      </trkpt>
      <trkpt lat="43.89295" lon="7.24773">
        <ele>654</ele>
        <time>2012-05-17T08:23:27Z</time>
      </trkpt>
      <trkpt lat="43.893" lon="7.24777">
        <ele>654</ele>
        <time>2012-05-17T08:23:35Z</time>
      </trkpt>
      <trkpt lat="43.89303" lon="7.24779">
        <ele>654</ele>
        <time>2012-05-17T08:23:42Z</time>
      </trkpt>
      <trkpt lat="43.893" lon="7.24777">
        <ele>654</ele>
        <time>2012-05-17T08:23:49Z</time>
      </trkpt>
      <trkpt lat="43.89298" lon="7.24775">
        <ele>656</ele>
        <time>2012-05-17T08:23:57Z</time>
      </trkpt>
      <trkpt lat="43.89316" lon="7.24769">
        <ele>663</ele>
        <time>2012-05-17T08:24:05Z</time>
      </trkpt>
      <trkpt lat="43.89327" lon="7.24766">
        <ele>663</ele>
        <time>2012-05-17T08:24:13Z</time>
      </trkpt>
      <trkpt lat="43.89331" lon="7.24765">
        <ele>663</ele>
        <time>2012-05-17T08:24:20Z</time>
      </trkpt>
      <trkpt lat="43.89329" lon="7.24762">
        <ele>663</ele>
        <time>2012-05-17T08:24:28Z</time>
      </trkpt>
      <trkpt lat="43.89349" lon="7.24752">
        <ele>666</ele>
        <time>2012-05-17T08:24:36Z</time>
      </trkpt>
      <trkpt lat="43.89363" lon="7.24727">
        <ele>666</ele>
        <time>2012-05-17T08:24:43Z</time>
      </trkpt>
      <trkpt lat="43.89387" lon="7.24717">
        <ele>666</ele>
        <time>2012-05-17T08:24:50Z</time>
      </trkpt>
      <trkpt lat="43.89406" lon="7.24704">
        <ele>665</ele>
        <time>2012-05-17T08:24:57Z</time>
      </trkpt>
      <trkpt lat="43.89423" lon="7.24687">
        <ele>666</ele>
        <time>2012-05-17T08:25:03Z</time>
      </trkpt>
      <trkpt lat="43.89448" lon="7.24664">
        <ele>665</ele>
        <time>2012-05-17T08:25:11Z</time>
      </trkpt>
      <trkpt lat="43.89469" lon="7.24637">
        <ele>665</ele>
        <time>2012-05-17T08:25:19Z</time>
      </trkpt>
      <trkpt lat="43.89494" lon="7.24632">
        <ele>665</ele>
        <time>2012-05-17T08:25:27Z</time>
      </trkpt>
      <trkpt lat="43.89515" lon="7.24619">
        <ele>664</ele>
        <time>2012-05-17T08:25:35Z</time>
      </trkpt>
      <trkpt lat="43.89527" lon="7.24607">
        <ele>665</ele>
        <time>2012-05-17T08:25:42Z</time>
      </trkpt>
      <trkpt lat="43.89538" lon="7.24603">
        <ele>666</ele>
        <time>2012-05-17T08:25:49Z</time>
      </trkpt>
      <trkpt lat="43.89539" lon="7.24605">
        <ele>666</ele>
        <time>2012-05-17T08:25:56Z</time>
      </trkpt>
      <trkpt lat="43.89539" lon="7.24605">
        <ele>666</ele>
        <time>2012-05-17T08:26:03Z</time>
      </trkpt>
      <trkpt lat="43.89541" lon="7.24604">
        <ele>665</ele>
        <time>2012-05-17T08:26:11Z</time>
      </trkpt>
      <trkpt lat="43.89558" lon="7.2459">
        <ele>666</ele>
        <time>2012-05-17T08:26:18Z</time>
      </trkpt>
      <trkpt lat="43.89578" lon="7.24578">
        <ele>666</ele>
        <time>2012-05-17T08:26:25Z</time>
      </trkpt>
      <trkpt lat="43.89588" lon="7.24573">
        <ele>666</ele>
        <time>2012-05-17T08:26:31Z</time>
      </trkpt>
      <trkpt lat="43.89588" lon="7.24573">
        <ele>666</ele>
        <time>2012-05-17T08:26:38Z</time>
      </trkpt>
      <trkpt lat="43.89588" lon="7.24573">
        <ele>666</ele>
        <time>2012-05-17T08:26:45Z</time>
      </trkpt>
      <trkpt lat="43.89595" lon="7.24564">
        <ele>668</ele>
        <time>2012-05-17T08:26:53Z</time>
      </trkpt>
      <trkpt lat="43.89609" lon="7.2455">
        <ele>669</ele>
        <time>2012-05-17T08:27:00Z</time>
      </trkpt>
      <trkpt lat="43.89625" lon="7.24538">
        <ele>670</ele>
        <time>2012-05-17T08:27:07Z</time>
      </trkpt>
      <trkpt lat="43.89645" lon="7.24503">
        <ele>670</ele>
        <time>2012-05-17T08:27:15Z</time>
      </trkpt>
      <trkpt lat="43.89653" lon="7.24481">
        <ele>671</ele>
        <time>2012-05-17T08:27:23Z</time>
      </trkpt>
      <trkpt lat="43.89664" lon="7.2447">
        <ele>672</ele>
        <time>2012-05-17T08:27:31Z</time>
      </trkpt>
      <trkpt lat="43.89667" lon="7.24486">
        <ele>673</ele>
        <time>2012-05-17T08:27:39Z</time>
      </trkpt>
      <trkpt lat="43.89668" lon="7.24504">
        <ele>672</ele>
        <time>2012-05-17T08:27:46Z</time>
      </trkpt>
      <trkpt lat="43.89668" lon="7.24509">
        <ele>672</ele>
        <time>2012-05-17T08:27:53Z</time>
      </trkpt>
      <trkpt lat="43.89668" lon="7.24509">
        <ele>672</ele>
        <time>2012-05-17T08:27:59Z</time>
      </trkpt>
      <trkpt lat="43.89668" lon="7.24509">
        <ele>672</ele>
        <time>2012-05-17T08:28:06Z</time>
      </trkpt>
      <trkpt lat="43.89668" lon="7.2451">
        <ele>672</ele>
        <time>2012-05-17T08:28:13Z</time>
      </trkpt>
      <trkpt lat="43.89668" lon="7.24511">
        <ele>672</ele>
        <time>2012-05-17T08:28:20Z</time>
      </trkpt>
      <trkpt lat="43.89668" lon="7.2451">
        <ele>672</ele>
        <time>2012-05-17T08:28:28Z</time>
      </trkpt>
      <trkpt lat="43.89671" lon="7.24528">
        <ele>676</ele>
        <time>2012-05-17T08:28:35Z</time>
      </trkpt>
      <trkpt lat="43.89678" lon="7.24564">
        <ele>677</ele>
        <time>2012-05-17T08:28:42Z</time>
      </trkpt>
      <trkpt lat="43.89676" lon="7.24581">
        <ele>678</ele>
        <time>2012-05-17T08:28:49Z</time>
      </trkpt>
      <trkpt lat="43.89671" lon="7.24593">
        <ele>679</ele>
        <time>2012-05-17T08:28:56Z</time>
      </trkpt>
      <trkpt lat="43.89669" lon="7.24606">
        <ele>680</ele>
        <time>2012-05-17T08:29:03Z</time>
      </trkpt>
      <trkpt lat="43.89671" lon="7.24617">
        <ele>681</ele>
        <time>2012-05-17T08:29:10Z</time>
      </trkpt>
      <trkpt lat="43.89671" lon="7.24619">
        <ele>681</ele>
        <time>2012-05-17T08:29:17Z</time>
      </trkpt>
      <trkpt lat="43.89671" lon="7.24619">
        <ele>681</ele>
        <time>2012-05-17T08:29:25Z</time>
      </trkpt>
      <trkpt lat="43.89671" lon="7.24619">
        <ele>681</ele>
        <time>2012-05-17T08:29:32Z</time>
      </trkpt>
      <trkpt lat="43.89672" lon="7.24625">
        <ele>681</ele>
        <time>2012-05-17T08:29:39Z</time>
      </trkpt>
      <trkpt lat="43.89673" lon="7.24627">
        <ele>681</ele>
        <time>2012-05-17T08:29:46Z</time>
      </trkpt>
      <trkpt lat="43.89665" lon="7.24658">
        <ele>686</ele>
        <time>2012-05-17T08:29:54Z</time>
      </trkpt>
      <trkpt lat="43.89662" lon="7.2467">
        <ele>686</ele>
        <time>2012-05-17T08:30:01Z</time>
      </trkpt>
      <trkpt lat="43.89662" lon="7.24671">
        <ele>686</ele>
        <time>2012-05-17T08:30:07Z</time>
      </trkpt>
      <trkpt lat="43.89662" lon="7.24671">
        <ele>686</ele>
        <time>2012-05-17T08:30:14Z</time>
      </trkpt>
      <trkpt lat="43.89662" lon="7.24671">
        <ele>686</ele>
        <time>2012-05-17T08:30:22Z</time>
      </trkpt>
      <trkpt lat="43.89662" lon="7.24671">
        <ele>686</ele>
        <time>2012-05-17T08:30:28Z</time>
      </trkpt>
      <trkpt lat="43.8966" lon="7.24699">
        <ele>691</ele>
        <time>2012-05-17T08:30:36Z</time>
      </trkpt>
      <trkpt lat="43.89658" lon="7.24722">
        <ele>691</ele>
        <time>2012-05-17T08:30:42Z</time>
      </trkpt>
      <trkpt lat="43.89658" lon="7.24724">
        <ele>691</ele>
        <time>2012-05-17T08:30:49Z</time>
      </trkpt>
      <trkpt lat="43.89658" lon="7.24724">
        <ele>691</ele>
        <time>2012-05-17T08:30:57Z</time>
      </trkpt>
      <trkpt lat="43.89658" lon="7.24724">
        <ele>691</ele>
        <time>2012-05-17T08:31:04Z</time>
      </trkpt>
      <trkpt lat="43.89658" lon="7.24724">
        <ele>691</ele>
        <time>2012-05-17T08:31:11Z</time>
      </trkpt>
      <trkpt lat="43.89658" lon="7.24724">
        <ele>691</ele>
        <time>2012-05-17T08:31:18Z</time>
      </trkpt>
      <trkpt lat="43.89658" lon="7.24723">
        <ele>691</ele>
        <time>2012-05-17T08:31:26Z</time>
      </trkpt>
      <trkpt lat="43.89658" lon="7.24723">
        <ele>691</ele>
        <time>2012-05-17T08:31:34Z</time>
      </trkpt>
      <trkpt lat="43.89657" lon="7.24723">
        <ele>691</ele>
        <time>2012-05-17T08:31:41Z</time>
      </trkpt>
      <trkpt lat="43.89657" lon="7.24723">
        <ele>691</ele>
        <time>2012-05-17T08:31:48Z</time>
      </trkpt>
      <trkpt lat="43.89659" lon="7.24724">
        <ele>698</ele>
        <time>2012-05-17T08:31:56Z</time>
      </trkpt>
      <trkpt lat="43.89689" lon="7.2473">
        <ele>706</ele>
        <time>2012-05-17T08:32:03Z</time>
      </trkpt>
      <trkpt lat="43.89695" lon="7.2473">
        <ele>706</ele>
        <time>2012-05-17T08:32:10Z</time>
      </trkpt>
      <trkpt lat="43.897" lon="7.2473">
        <ele>709</ele>
        <time>2012-05-17T08:32:18Z</time>
      </trkpt>
      <trkpt lat="43.89714" lon="7.24729">
        <ele>711</ele>
        <time>2012-05-17T08:32:24Z</time>
      </trkpt>
      <trkpt lat="43.8973" lon="7.2473">
        <ele>711</ele>
        <time>2012-05-17T08:32:31Z</time>
      </trkpt>
      <trkpt lat="43.89747" lon="7.24733">
        <ele>712</ele>
        <time>2012-05-17T08:32:38Z</time>
      </trkpt>
      <trkpt lat="43.89763" lon="7.24735">
        <ele>713</ele>
        <time>2012-05-17T08:32:45Z</time>
      </trkpt>
      <trkpt lat="43.89783" lon="7.24731">
        <ele>714</ele>
        <time>2012-05-17T08:32:52Z</time>
      </trkpt>
      <trkpt lat="43.89796" lon="7.2473">
        <ele>715</ele>
        <time>2012-05-17T08:33:00Z</time>
      </trkpt>
      <trkpt lat="43.8981" lon="7.24732">
        <ele>716</ele>
        <time>2012-05-17T08:33:07Z</time>
      </trkpt>
      <trkpt lat="43.89828" lon="7.2473">
        <ele>718</ele>
        <time>2012-05-17T08:33:14Z</time>
      </trkpt>
      <trkpt lat="43.89843" lon="7.24722">
        <ele>719</ele>
        <time>2012-05-17T08:33:21Z</time>
      </trkpt>
      <trkpt lat="43.89858" lon="7.24716">
        <ele>720</ele>
        <time>2012-05-17T08:33:28Z</time>
      </trkpt>
      <trkpt lat="43.89877" lon="7.24718">
        <ele>721</ele>
        <time>2012-05-17T08:33:36Z</time>
      </trkpt>
      <trkpt lat="43.899" lon="7.24718">
        <ele>722</ele>
        <time>2012-05-17T08:33:43Z</time>
      </trkpt>
      <trkpt lat="43.89926" lon="7.2472">
        <ele>722</ele>
        <time>2012-05-17T08:33:50Z</time>
      </trkpt>
      <trkpt lat="43.89948" lon="7.24717">
        <ele>721</ele>
        <time>2012-05-17T08:33:58Z</time>
      </trkpt>
      <trkpt lat="43.8997" lon="7.24699">
        <ele>719</ele>
        <time>2012-05-17T08:34:05Z</time>
      </trkpt>
      <trkpt lat="43.89986" lon="7.24675">
        <ele>719</ele>
        <time>2012-05-17T08:34:12Z</time>
      </trkpt>
      <trkpt lat="43.89996" lon="7.24658">
        <ele>721</ele>
        <time>2012-05-17T08:34:20Z</time>
      </trkpt>
      <trkpt lat="43.9" lon="7.24651">
        <ele>721</ele>
        <time>2012-05-17T08:34:27Z</time>
      </trkpt>
      <trkpt lat="43.90001" lon="7.2465">
        <ele>721</ele>
        <time>2012-05-17T08:34:35Z</time>
      </trkpt>
      <trkpt lat="43.90001" lon="7.2465">
        <ele>721</ele>
        <time>2012-05-17T08:34:41Z</time>
      </trkpt>
      <trkpt lat="43.90001" lon="7.2465">
        <ele>721</ele>
        <time>2012-05-17T08:34:49Z</time>
      </trkpt>
      <trkpt lat="43.90001" lon="7.2465">
        <ele>721</ele>
        <time>2012-05-17T08:34:57Z</time>
      </trkpt>
      <trkpt lat="43.90001" lon="7.24651">
        <ele>721</ele>
        <time>2012-05-17T08:35:04Z</time>
      </trkpt>
      <trkpt lat="43.90001" lon="7.24609">
        <ele>724</ele>
        <time>2012-05-17T08:35:12Z</time>
      </trkpt>
      <trkpt lat="43.90001" lon="7.24599">
        <ele>724</ele>
        <time>2012-05-17T08:35:19Z</time>
      </trkpt>
      <trkpt lat="43.90001" lon="7.24596">
        <ele>724</ele>
        <time>2012-05-17T08:35:25Z</time>
      </trkpt>
      <trkpt lat="43.90001" lon="7.24594">
        <ele>724</ele>
        <time>2012-05-17T08:35:33Z</time>
      </trkpt>
      <trkpt lat="43.90001" lon="7.24594">
        <ele>724</ele>
        <time>2012-05-17T08:35:40Z</time>
      </trkpt>
      <trkpt lat="43.90001" lon="7.24592">
        <ele>724</ele>
        <time>2012-05-17T08:35:47Z</time>
      </trkpt>
      <trkpt lat="43.90001" lon="7.24591">
        <ele>724</ele>
        <time>2012-05-17T08:35:55Z</time>
      </trkpt>
      <trkpt lat="43.90001" lon="7.24595">
        <ele>724</ele>
        <time>2012-05-17T08:36:02Z</time>
      </trkpt>
      <trkpt lat="43.90001" lon="7.24596">
        <ele>724</ele>
        <time>2012-05-17T08:36:09Z</time>
      </trkpt>
      <trkpt lat="43.90001" lon="7.24596">
        <ele>724</ele>
        <time>2012-05-17T08:36:17Z</time>
      </trkpt>
      <trkpt lat="43.90007" lon="7.24587">
        <ele>739</ele>
        <time>2012-05-17T08:36:24Z</time>
      </trkpt>
      <trkpt lat="43.90022" lon="7.2457">
        <ele>739</ele>
        <time>2012-05-17T08:36:32Z</time>
      </trkpt>
      <trkpt lat="43.90029" lon="7.24564">
        <ele>739</ele>
        <time>2012-05-17T08:36:39Z</time>
      </trkpt>
      <trkpt lat="43.90033" lon="7.24559">
        <ele>739</ele>
        <time>2012-05-17T08:36:47Z</time>
      </trkpt>
      <trkpt lat="43.90031" lon="7.2456">
        <ele>739</ele>
        <time>2012-05-17T08:36:53Z</time>
      </trkpt>
      <trkpt lat="43.90034" lon="7.24557">
        <ele>739</ele>
        <time>2012-05-17T08:37:01Z</time>
      </trkpt>
      <trkpt lat="43.90037" lon="7.24563">
        <ele>745</ele>
        <time>2012-05-17T08:37:09Z</time>
      </trkpt>
      <trkpt lat="43.90064" lon="7.24577">
        <ele>745</ele>
        <time>2012-05-17T08:37:17Z</time>
      </trkpt>
      <trkpt lat="43.90066" lon="7.24578">
        <ele>745</ele>
        <time>2012-05-17T08:37:25Z</time>
      </trkpt>
      <trkpt lat="43.90066" lon="7.24578">
        <ele>745</ele>
        <time>2012-05-17T08:37:32Z</time>
      </trkpt>
      <trkpt lat="43.90066" lon="7.24578">
        <ele>745</ele>
        <time>2012-05-17T08:37:39Z</time>
      </trkpt>
      <trkpt lat="43.90079" lon="7.2457">
        <ele>752</ele>
        <time>2012-05-17T08:37:46Z</time>
      </trkpt>
      <trkpt lat="43.90105" lon="7.24552">
        <ele>753</ele>
        <time>2012-05-17T08:37:53Z</time>
      </trkpt>
      <trkpt lat="43.9011" lon="7.24548">
        <ele>753</ele>
        <time>2012-05-17T08:38:00Z</time>
      </trkpt>
      <trkpt lat="43.9012" lon="7.24542">
        <ele>756</ele>
        <time>2012-05-17T08:38:07Z</time>
      </trkpt>
      <trkpt lat="43.90133" lon="7.24532">
        <ele>758</ele>
        <time>2012-05-17T08:38:14Z</time>
      </trkpt>
      <trkpt lat="43.90151" lon="7.24521">
        <ele>759</ele>
        <time>2012-05-17T08:38:21Z</time>
      </trkpt>
      <trkpt lat="43.90162" lon="7.24507">
        <ele>759</ele>
        <time>2012-05-17T08:38:28Z</time>
      </trkpt>
      <trkpt lat="43.90169" lon="7.2449">
        <ele>760</ele>
        <time>2012-05-17T08:38:36Z</time>
      </trkpt>
      <trkpt lat="43.9017" lon="7.24484">
        <ele>761</ele>
        <time>2012-05-17T08:38:43Z</time>
      </trkpt>
      <trkpt lat="43.90181" lon="7.24465">
        <ele>763</ele>
        <time>2012-05-17T08:38:51Z</time>
      </trkpt>
      <trkpt lat="43.90197" lon="7.24439">
        <ele>764</ele>
        <time>2012-05-17T08:38:58Z</time>
      </trkpt>
      <trkpt lat="43.90201" lon="7.24431">
        <ele>765</ele>
        <time>2012-05-17T08:39:05Z</time>
      </trkpt>
      <trkpt lat="43.90208" lon="7.24413">
        <ele>767</ele>
        <time>2012-05-17T08:39:12Z</time>
      </trkpt>
      <trkpt lat="43.90212" lon="7.24404">
        <ele>767</ele>
        <time>2012-05-17T08:39:18Z</time>
      </trkpt>
      <trkpt lat="43.90215" lon="7.24387">
        <ele>771</ele>
        <time>2012-05-17T08:39:25Z</time>
      </trkpt>
      <trkpt lat="43.90223" lon="7.24359">
        <ele>771</ele>
        <time>2012-05-17T08:39:32Z</time>
      </trkpt>
      <trkpt lat="43.90224" lon="7.24343">
        <ele>772</ele>
        <time>2012-05-17T08:39:39Z</time>
      </trkpt>
      <trkpt lat="43.90224" lon="7.24322">
        <ele>774</ele>
        <time>2012-05-17T08:39:46Z</time>
      </trkpt>
      <trkpt lat="43.90226" lon="7.24297">
        <ele>775</ele>
        <time>2012-05-17T08:39:53Z</time>
      </trkpt>
      <trkpt lat="43.90229" lon="7.24263">
        <ele>774</ele>
        <time>2012-05-17T08:40:00Z</time>
      </trkpt>
      <trkpt lat="43.90234" lon="7.24213">
        <ele>775</ele>
        <time>2012-05-17T08:40:07Z</time>
      </trkpt>
      <trkpt lat="43.90241" lon="7.24186">
        <ele>774</ele>
        <time>2012-05-17T08:40:15Z</time>
      </trkpt>
      <trkpt lat="43.90245" lon="7.2417">
        <ele>774</ele>
        <time>2012-05-17T08:40:22Z</time>
      </trkpt>
      <trkpt lat="43.90246" lon="7.24153">
        <ele>773</ele>
        <time>2012-05-17T08:40:30Z</time>
      </trkpt>
      <trkpt lat="43.90247" lon="7.24143">
        <ele>773</ele>
        <time>2012-05-17T08:40:37Z</time>
      </trkpt>
      <trkpt lat="43.9025" lon="7.24136">
        <ele>773</ele>
        <time>2012-05-17T08:40:44Z</time>
      </trkpt>
      <trkpt lat="43.90259" lon="7.24115">
        <ele>773</ele>
        <time>2012-05-17T08:40:51Z</time>
      </trkpt>
      <trkpt lat="43.90271" lon="7.24086">
        <ele>774</ele>
        <time>2012-05-17T08:40:59Z</time>
      </trkpt>
      <trkpt lat="43.90274" lon="7.24062">
        <ele>775</ele>
        <time>2012-05-17T08:41:06Z</time>
      </trkpt>
      <trkpt lat="43.90274" lon="7.24034">
        <ele>776</ele>
        <time>2012-05-17T08:41:13Z</time>
      </trkpt>
      <trkpt lat="43.90271" lon="7.24007">
        <ele>776</ele>
        <time>2012-05-17T08:41:21Z</time>
      </trkpt>
      <trkpt lat="43.90265" lon="7.23984">
        <ele>776</ele>
        <time>2012-05-17T08:41:29Z</time>
      </trkpt>
      <trkpt lat="43.90266" lon="7.23959">
        <ele>777</ele>
        <time>2012-05-17T08:41:36Z</time>
      </trkpt>
      <trkpt lat="43.90273" lon="7.23952">
        <ele>777</ele>
        <time>2012-05-17T08:41:43Z</time>
      </trkpt>
      <trkpt lat="43.90283" lon="7.23961">
        <ele>778</ele>
        <time>2012-05-17T08:41:50Z</time>
      </trkpt>
      <trkpt lat="43.90283" lon="7.23968">
        <ele>779</ele>
        <time>2012-05-17T08:41:57Z</time>
      </trkpt>
      <trkpt lat="43.90283" lon="7.23969">
        <ele>779</ele>
        <time>2012-05-17T08:42:03Z</time>
      </trkpt>
      <trkpt lat="43.90292" lon="7.23972">
        <ele>780</ele>
        <time>2012-05-17T08:42:11Z</time>
      </trkpt>
      <trkpt lat="43.90306" lon="7.23974">
        <ele>780</ele>
        <time>2012-05-17T08:42:18Z</time>
      </trkpt>
      <trkpt lat="43.90326" lon="7.23974">
        <ele>779</ele>
        <time>2012-05-17T08:42:25Z</time>
      </trkpt>
      <trkpt lat="43.90347" lon="7.23974">
        <ele>779</ele>
        <time>2012-05-17T08:42:33Z</time>
      </trkpt>
      <trkpt lat="43.90374" lon="7.23974">
        <ele>781</ele>
        <time>2012-05-17T08:42:40Z</time>
      </trkpt>
      <trkpt lat="43.90393" lon="7.23979">
        <ele>782</ele>
        <time>2012-05-17T08:42:48Z</time>
      </trkpt>
      <trkpt lat="43.90402" lon="7.23969">
        <ele>781</ele>
        <time>2012-05-17T08:42:54Z</time>
      </trkpt>
      <trkpt lat="43.90402" lon="7.2394">
        <ele>780</ele>
        <time>2012-05-17T08:43:01Z</time>
      </trkpt>
      <trkpt lat="43.90404" lon="7.23916">
        <ele>780</ele>
        <time>2012-05-17T08:43:08Z</time>
      </trkpt>
      <trkpt lat="43.90419" lon="7.2391">
        <ele>780</ele>
        <time>2012-05-17T08:43:15Z</time>
      </trkpt>
      <trkpt lat="43.90443" lon="7.23873">
        <ele>779</ele>
        <time>2012-05-17T08:43:22Z</time>
      </trkpt>
      <trkpt lat="43.90457" lon="7.23836">
        <ele>778</ele>
        <time>2012-05-17T08:43:28Z</time>
      </trkpt>
      <trkpt lat="43.90464" lon="7.23825">
        <ele>778</ele>
        <time>2012-05-17T08:43:35Z</time>
      </trkpt>
      <trkpt lat="43.90482" lon="7.23842">
        <ele>777</ele>
        <time>2012-05-17T08:43:42Z</time>
      </trkpt>
      <trkpt lat="43.90499" lon="7.23831">
        <ele>776</ele>
        <time>2012-05-17T08:43:49Z</time>
      </trkpt>
      <trkpt lat="43.90512" lon="7.23808">
        <ele>776</ele>
        <time>2012-05-17T08:43:56Z</time>
      </trkpt>
      <trkpt lat="43.90523" lon="7.23789">
        <ele>778</ele>
        <time>2012-05-17T08:44:03Z</time>
      </trkpt>
      <trkpt lat="43.90531" lon="7.23771">
        <ele>778</ele>
        <time>2012-05-17T08:44:10Z</time>
      </trkpt>
      <trkpt lat="43.90532" lon="7.23766">
        <ele>778</ele>
        <time>2012-05-17T08:44:17Z</time>
      </trkpt>
      <trkpt lat="43.90532" lon="7.23745">
        <ele>779</ele>
        <time>2012-05-17T08:44:25Z</time>
      </trkpt>
      <trkpt lat="43.9053" lon="7.2372">
        <ele>780</ele>
        <time>2012-05-17T08:44:33Z</time>
      </trkpt>
      <trkpt lat="43.90527" lon="7.23701">
        <ele>781</ele>
        <time>2012-05-17T08:44:41Z</time>
      </trkpt>
      <trkpt lat="43.90526" lon="7.23684">
        <ele>782</ele>
        <time>2012-05-17T08:44:47Z</time>
      </trkpt>
      <trkpt lat="43.90528" lon="7.23668">
        <ele>783</ele>
        <time>2012-05-17T08:44:54Z</time>
      </trkpt>
      <trkpt lat="43.90526" lon="7.23643">
        <ele>784</ele>
        <time>2012-05-17T08:45:01Z</time>
      </trkpt>
      <trkpt lat="43.90535" lon="7.2362">
        <ele>787</ele>
        <time>2012-05-17T08:45:09Z</time>
      </trkpt>
      <trkpt lat="43.9055" lon="7.23609">
        <ele>788</ele>
        <time>2012-05-17T08:45:15Z</time>
      </trkpt>
      <trkpt lat="43.90558" lon="7.23588">
        <ele>787</ele>
        <time>2012-05-17T08:45:23Z</time>
      </trkpt>
      <trkpt lat="43.90575" lon="7.23551">
        <ele>785</ele>
        <time>2012-05-17T08:45:31Z</time>
      </trkpt>
      <trkpt lat="43.90588" lon="7.23533">
        <ele>785</ele>
        <time>2012-05-17T08:45:38Z</time>
      </trkpt>
      <trkpt lat="43.90599" lon="7.23508">
        <ele>785</ele>
        <time>2012-05-17T08:45:45Z</time>
      </trkpt>
      <trkpt lat="43.90606" lon="7.2349">
        <ele>786</ele>
        <time>2012-05-17T08:45:52Z</time>
      </trkpt>
      <trkpt lat="43.90608" lon="7.23477">
        <ele>788</ele>
        <time>2012-05-17T08:45:59Z</time>
      </trkpt>
      <trkpt lat="43.90608" lon="7.23459">
        <ele>791</ele>
        <time>2012-05-17T08:46:07Z</time>
      </trkpt>
      <trkpt lat="43.90609" lon="7.23443">
        <ele>791</ele>
        <time>2012-05-17T08:46:15Z</time>
      </trkpt>
      <trkpt lat="43.90612" lon="7.23424">
        <ele>790</ele>
        <time>2012-05-17T08:46:22Z</time>
      </trkpt>
      <trkpt lat="43.90617" lon="7.23417">
        <ele>789</ele>
        <time>2012-05-17T08:46:29Z</time>
      </trkpt>
      <trkpt lat="43.90626" lon="7.2343">
        <ele>789</ele>
        <time>2012-05-17T08:46:37Z</time>
      </trkpt>
      <trkpt lat="43.90632" lon="7.23456">
        <ele>787</ele>
        <time>2012-05-17T08:46:44Z</time>
      </trkpt>
      <trkpt lat="43.90639" lon="7.23479">
        <ele>787</ele>
        <time>2012-05-17T08:46:50Z</time>
      </trkpt>
      <trkpt lat="43.90646" lon="7.23503">
        <ele>785</ele>
        <time>2012-05-17T08:46:58Z</time>
      </trkpt>
      <trkpt lat="43.90654" lon="7.23526">
        <ele>785</ele>
        <time>2012-05-17T08:47:06Z</time>
      </trkpt>
      <trkpt lat="43.90655" lon="7.23546">
        <ele>786</ele>
        <time>2012-05-17T08:47:12Z</time>
      </trkpt>
      <trkpt lat="43.90659" lon="7.23567">
        <ele>784</ele>
        <time>2012-05-17T08:47:20Z</time>
      </trkpt>
      <trkpt lat="43.90663" lon="7.23593">
        <ele>783</ele>
        <time>2012-05-17T08:47:28Z</time>
      </trkpt>
      <trkpt lat="43.90665" lon="7.23614">
        <ele>784</ele>
        <time>2012-05-17T08:47:36Z</time>
      </trkpt>
      <trkpt lat="43.90674" lon="7.23626">
        <ele>786</ele>
        <time>2012-05-17T08:47:43Z</time>
      </trkpt>
      <trkpt lat="43.90681" lon="7.23647">
        <ele>788</ele>
        <time>2012-05-17T08:47:50Z</time>
      </trkpt>
      <trkpt lat="43.9069" lon="7.23665">
        <ele>789</ele>
        <time>2012-05-17T08:47:57Z</time>
      </trkpt>
      <trkpt lat="43.90692" lon="7.23671">
        <ele>790</ele>
        <time>2012-05-17T08:48:04Z</time>
      </trkpt>
      <trkpt lat="43.90696" lon="7.23679">
        <ele>790</ele>
        <time>2012-05-17T08:48:11Z</time>
      </trkpt>
      <trkpt lat="43.90701" lon="7.23684">
        <ele>793</ele>
        <time>2012-05-17T08:48:18Z</time>
      </trkpt>
      <trkpt lat="43.90708" lon="7.23682">
        <ele>794</ele>
        <time>2012-05-17T08:48:26Z</time>
      </trkpt>
      <trkpt lat="43.90718" lon="7.23679">
        <ele>796</ele>
        <time>2012-05-17T08:48:32Z</time>
      </trkpt>
      <trkpt lat="43.90723" lon="7.23677">
        <ele>797</ele>
        <time>2012-05-17T08:48:39Z</time>
      </trkpt>
      <trkpt lat="43.90724" lon="7.23677">
        <ele>797</ele>
        <time>2012-05-17T08:48:47Z</time>
      </trkpt>
      <trkpt lat="43.90724" lon="7.23677">
        <ele>797</ele>
        <time>2012-05-17T08:48:53Z</time>
      </trkpt>
      <trkpt lat="43.90724" lon="7.23677">
        <ele>797</ele>
        <time>2012-05-17T08:49:00Z</time>
      </trkpt>
      <trkpt lat="43.90724" lon="7.23677">
        <ele>797</ele>
        <time>2012-05-17T08:49:07Z</time>
      </trkpt>
      <trkpt lat="43.90724" lon="7.23677">
        <ele>797</ele>
        <time>2012-05-17T08:49:14Z</time>
      </trkpt>
      <trkpt lat="43.90724" lon="7.23677">
        <ele>797</ele>
        <time>2012-05-17T08:49:22Z</time>
      </trkpt>
      <trkpt lat="43.90724" lon="7.23677">
        <ele>797</ele>
        <time>2012-05-17T08:49:28Z</time>
      </trkpt>
      <trkpt lat="43.90724" lon="7.23677">
        <ele>797</ele>
        <time>2012-05-17T08:49:35Z</time>
      </trkpt>
      <trkpt lat="43.90724" lon="7.23677">
        <ele>797</ele>
        <time>2012-05-17T08:49:43Z</time>
      </trkpt>
      <trkpt lat="43.90724" lon="7.23677">
        <ele>797</ele>
        <time>2012-05-17T08:49:51Z</time>
      </trkpt>
      <trkpt lat="43.90724" lon="7.23677">
        <ele>797</ele>
        <time>2012-05-17T08:49:58Z</time>
      </trkpt>
      <trkpt lat="43.90724" lon="7.23677">
        <ele>797</ele>
        <time>2012-05-17T08:50:06Z</time>
      </trkpt>
      <trkpt lat="43.90724" lon="7.23677">
        <ele>797</ele>
        <time>2012-05-17T08:50:13Z</time>
      </trkpt>
      <trkpt lat="43.90724" lon="7.23677">
        <ele>797</ele>
        <time>2012-05-17T08:50:21Z</time>
      </trkpt>
      <trkpt lat="43.90724" lon="7.23677">
        <ele>797</ele>
        <time>2012-05-17T08:50:28Z</time>
      </trkpt>
      <trkpt lat="43.90724" lon="7.23677">
        <ele>797</ele>
        <time>2012-05-17T08:50:37Z</time>
      </trkpt>
      <trkpt lat="43.90724" lon="7.23677">
        <ele>797</ele>
        <time>2012-05-17T08:50:45Z</time>
      </trkpt>
      <trkpt lat="43.90724" lon="7.23677">
        <ele>797</ele>
        <time>2012-05-17T08:50:53Z</time>
      </trkpt>
      <trkpt lat="43.90724" lon="7.23677">
        <ele>797</ele>
        <time>2012-05-17T08:51:01Z</time>
      </trkpt>
      <trkpt lat="43.90724" lon="7.23677">
        <ele>797</ele>
        <time>2012-05-17T08:51:08Z</time>
      </trkpt>
      <trkpt lat="43.90724" lon="7.23677">
        <ele>797</ele>
        <time>2012-05-17T08:51:15Z</time>
      </trkpt>
      <trkpt lat="43.90724" lon="7.23677">
        <ele>797</ele>
        <time>2012-05-17T08:51:23Z</time>
      </trkpt>
      <trkpt lat="43.90724" lon="7.23677">
        <ele>797</ele>
        <time>2012-05-17T08:51:29Z</time>
      </trkpt>
      <trkpt lat="43.90724" lon="7.23677">
        <ele>797</ele>
        <time>2012-05-17T08:51:36Z</time>
      </trkpt>
      <trkpt lat="43.90724" lon="7.23677">
        <ele>797</ele>
        <time>2012-05-17T08:51:44Z</time>
      </trkpt>
      <trkpt lat="43.90724" lon="7.23677">
        <ele>797</ele>
        <time>2012-05-17T08:51:50Z</time>
      </trkpt>
      <trkpt lat="43.90724" lon="7.23677">
        <ele>797</ele>
        <time>2012-05-17T08:51:56Z</time>
      </trkpt>
      <trkpt lat="43.90724" lon="7.23677">
        <ele>797</ele>
        <time>2012-05-17T08:52:03Z</time>
      </trkpt>
      <trkpt lat="43.90724" lon="7.23677">
        <ele>797</ele>
        <time>2012-05-17T08:52:10Z</time>
      </trkpt>
      <trkpt lat="43.90724" lon="7.23677">
        <ele>797</ele>
        <time>2012-05-17T08:52:17Z</time>
      </trkpt>
      <trkpt lat="43.90724" lon="7.23677">
        <ele>797</ele>
        <time>2012-05-17T08:52:25Z</time>
      </trkpt>
      <trkpt lat="43.90724" lon="7.23677">
        <ele>797</ele>
        <time>2012-05-17T08:52:31Z</time>
      </trkpt>
      <trkpt lat="43.90724" lon="7.23677">
        <ele>797</ele>
        <time>2012-05-17T08:52:38Z</time>
      </trkpt>
      <trkpt lat="43.90724" lon="7.23677">
        <ele>797</ele>
        <time>2012-05-17T08:52:45Z</time>
      </trkpt>
      <trkpt lat="43.90724" lon="7.23677">
        <ele>797</ele>
        <time>2012-05-17T08:52:52Z</time>
      </trkpt>
      <trkpt lat="43.90724" lon="7.23677">
        <ele>797</ele>
        <time>2012-05-17T08:52:59Z</time>
      </trkpt>
      <trkpt lat="43.90724" lon="7.23677">
        <ele>797</ele>
        <time>2012-05-17T08:53:06Z</time>
      </trkpt>
      <trkpt lat="43.90724" lon="7.23677">
        <ele>797</ele>
        <time>2012-05-17T08:53:13Z</time>
      </trkpt>
      <trkpt lat="43.90724" lon="7.23677">
        <ele>797</ele>
        <time>2012-05-17T08:53:20Z</time>
      </trkpt>
      <trkpt lat="43.90735" lon="7.23676">
        <ele>804</ele>
        <time>2012-05-17T08:53:27Z</time>
      </trkpt>
      <trkpt lat="43.90756" lon="7.23683">
        <ele>802</ele>
        <time>2012-05-17T08:53:35Z</time>
      </trkpt>
      <trkpt lat="43.90772" lon="7.23683">
        <ele>803</ele>
        <time>2012-05-17T08:53:43Z</time>
      </trkpt>
      <trkpt lat="43.9078" lon="7.23681">
        <ele>802</ele>
        <time>2012-05-17T08:53:50Z</time>
      </trkpt>
      <trkpt lat="43.90788" lon="7.23678">
        <ele>804</ele>
        <time>2012-05-17T08:53:57Z</time>
      </trkpt>
      <trkpt lat="43.90793" lon="7.23678">
        <ele>804</ele>
        <time>2012-05-17T08:54:06Z</time>
      </trkpt>
      <trkpt lat="43.90798" lon="7.23678">
        <ele>804</ele>
        <time>2012-05-17T08:54:13Z</time>
      </trkpt>
      <trkpt lat="43.90804" lon="7.23698">
        <ele>805</ele>
        <time>2012-05-17T08:54:21Z</time>
      </trkpt>
      <trkpt lat="43.90794" lon="7.23719">
        <ele>805</ele>
        <time>2012-05-17T08:54:29Z</time>
      </trkpt>
      <trkpt lat="43.9078" lon="7.23747">
        <ele>803</ele>
        <time>2012-05-17T08:54:37Z</time>
      </trkpt>
      <trkpt lat="43.90778" lon="7.23764">
        <ele>804</ele>
        <time>2012-05-17T08:54:44Z</time>
      </trkpt>
      <trkpt lat="43.90779" lon="7.23782">
        <ele>804</ele>
        <time>2012-05-17T08:54:51Z</time>
      </trkpt>
      <trkpt lat="43.90782" lon="7.23794">
        <ele>806</ele>
        <time>2012-05-17T08:54:57Z</time>
      </trkpt>
      <trkpt lat="43.90778" lon="7.23804">
        <ele>807</ele>
        <time>2012-05-17T08:55:05Z</time>
      </trkpt>
      <trkpt lat="43.90778" lon="7.23805">
        <ele>807</ele>
        <time>2012-05-17T08:55:11Z</time>
      </trkpt>
      <trkpt lat="43.90778" lon="7.23806">
        <ele>809</ele>
        <time>2012-05-17T08:55:18Z</time>
      </trkpt>
      <trkpt lat="43.90769" lon="7.23827">
        <ele>813</ele>
        <time>2012-05-17T08:55:25Z</time>
      </trkpt>
      <trkpt lat="43.90768" lon="7.2383">
        <ele>813</ele>
        <time>2012-05-17T08:55:33Z</time>
      </trkpt>
      <trkpt lat="43.90769" lon="7.23847">
        <ele>812</ele>
        <time>2012-05-17T08:55:40Z</time>
      </trkpt>
      <trkpt lat="43.90775" lon="7.23864">
        <ele>812</ele>
        <time>2012-05-17T08:55:48Z</time>
      </trkpt>
      <trkpt lat="43.9078" lon="7.23876">
        <ele>814</ele>
        <time>2012-05-17T08:55:54Z</time>
      </trkpt>
      <trkpt lat="43.90791" lon="7.23892">
        <ele>816</ele>
        <time>2012-05-17T08:56:01Z</time>
      </trkpt>
      <trkpt lat="43.90808" lon="7.23914">
        <ele>815</ele>
        <time>2012-05-17T08:56:08Z</time>
      </trkpt>
      <trkpt lat="43.9082" lon="7.23929">
        <ele>816</ele>
        <time>2012-05-17T08:56:15Z</time>
      </trkpt>
      <trkpt lat="43.90835" lon="7.23937">
        <ele>817</ele>
        <time>2012-05-17T08:56:22Z</time>
      </trkpt>
      <trkpt lat="43.90851" lon="7.23949">
        <ele>818</ele>
        <time>2012-05-17T08:56:29Z</time>
      </trkpt>
      <trkpt lat="43.90864" lon="7.2396">
        <ele>818</ele>
        <time>2012-05-17T08:56:35Z</time>
      </trkpt>
      <trkpt lat="43.9087" lon="7.23978">
        <ele>820</ele>
        <time>2012-05-17T08:56:43Z</time>
      </trkpt>
      <trkpt lat="43.90871" lon="7.23997">
        <ele>821</ele>
        <time>2012-05-17T08:56:51Z</time>
      </trkpt>
      <trkpt lat="43.90874" lon="7.24012">
        <ele>822</ele>
        <time>2012-05-17T08:56:58Z</time>
      </trkpt>
      <trkpt lat="43.90878" lon="7.24027">
        <ele>822</ele>
        <time>2012-05-17T08:57:06Z</time>
      </trkpt>
      <trkpt lat="43.90883" lon="7.2404">
        <ele>824</ele>
        <time>2012-05-17T08:57:13Z</time>
      </trkpt>
      <trkpt lat="43.90895" lon="7.24061">
        <ele>824</ele>
        <time>2012-05-17T08:57:20Z</time>
      </trkpt>
      <trkpt lat="43.90909" lon="7.24089">
        <ele>824</ele>
        <time>2012-05-17T08:57:27Z</time>
      </trkpt>
      <trkpt lat="43.90915" lon="7.24109">
        <ele>824</ele>
        <time>2012-05-17T08:57:34Z</time>
      </trkpt>
      <trkpt lat="43.90918" lon="7.24127">
        <ele>823</ele>
        <time>2012-05-17T08:57:41Z</time>
      </trkpt>
      <trkpt lat="43.90921" lon="7.24146">
        <ele>822</ele>
        <time>2012-05-17T08:57:48Z</time>
      </trkpt>
      <trkpt lat="43.90927" lon="7.24177">
        <ele>822</ele>
        <time>2012-05-17T08:57:56Z</time>
      </trkpt>
      <trkpt lat="43.90945" lon="7.24206">
        <ele>822</ele>
        <time>2012-05-17T08:58:03Z</time>
      </trkpt>
      <trkpt lat="43.90967" lon="7.2422">
        <ele>821</ele>
        <time>2012-05-17T08:58:11Z</time>
      </trkpt>
      <trkpt lat="43.90988" lon="7.24237">
        <ele>819</ele>
        <time>2012-05-17T08:58:19Z</time>
      </trkpt>
      <trkpt lat="43.91008" lon="7.24254">
        <ele>818</ele>
        <time>2012-05-17T08:58:26Z</time>
      </trkpt>
      <trkpt lat="43.91028" lon="7.24272">
        <ele>817</ele>
        <time>2012-05-17T08:58:33Z</time>
      </trkpt>
      <trkpt lat="43.91047" lon="7.24283">
        <ele>817</ele>
        <time>2012-05-17T08:58:40Z</time>
      </trkpt>
      <trkpt lat="43.91058" lon="7.24297">
        <ele>817</ele>
        <time>2012-05-17T08:58:47Z</time>
      </trkpt>
      <trkpt lat="43.91063" lon="7.2431">
        <ele>817</ele>
        <time>2012-05-17T08:58:54Z</time>
      </trkpt>
      <trkpt lat="43.91068" lon="7.24327">
        <ele>819</ele>
        <time>2012-05-17T08:59:01Z</time>
      </trkpt>
      <trkpt lat="43.91069" lon="7.24342">
        <ele>820</ele>
        <time>2012-05-17T08:59:08Z</time>
      </trkpt>
      <trkpt lat="43.9107" lon="7.24344">
        <ele>820</ele>
        <time>2012-05-17T08:59:15Z</time>
      </trkpt>
      <trkpt lat="43.91071" lon="7.24357">
        <ele>823</ele>
        <time>2012-05-17T08:59:22Z</time>
      </trkpt>
      <trkpt lat="43.91071" lon="7.24366">
        <ele>823</ele>
        <time>2012-05-17T08:59:29Z</time>
      </trkpt>
      <trkpt lat="43.91071" lon="7.24367">
        <ele>823</ele>
        <time>2012-05-17T08:59:36Z</time>
      </trkpt>
      <trkpt lat="43.91072" lon="7.24369">
        <ele>823</ele>
        <time>2012-05-17T08:59:43Z</time>
      </trkpt>
      <trkpt lat="43.91074" lon="7.24385">
        <ele>827</ele>
        <time>2012-05-17T08:59:51Z</time>
      </trkpt>
      <trkpt lat="43.91076" lon="7.24404">
        <ele>828</ele>
        <time>2012-05-17T08:59:59Z</time>
      </trkpt>
      <trkpt lat="43.91078" lon="7.24411">
        <ele>828</ele>
        <time>2012-05-17T09:00:06Z</time>
      </trkpt>
      <trkpt lat="43.91078" lon="7.2441">
        <ele>828</ele>
        <time>2012-05-17T09:00:13Z</time>
      </trkpt>
      <trkpt lat="43.91078" lon="7.2441">
        <ele>828</ele>
        <time>2012-05-17T09:00:20Z</time>
      </trkpt>
      <trkpt lat="43.91078" lon="7.2441">
        <ele>829</ele>
        <time>2012-05-17T09:00:27Z</time>
      </trkpt>
      <trkpt lat="43.91078" lon="7.24441">
        <ele>834</ele>
        <time>2012-05-17T09:00:34Z</time>
      </trkpt>
      <trkpt lat="43.9108" lon="7.2445">
        <ele>834</ele>
        <time>2012-05-17T09:00:42Z</time>
      </trkpt>
      <trkpt lat="43.91086" lon="7.24463">
        <ele>834</ele>
        <time>2012-05-17T09:00:49Z</time>
      </trkpt>
      <trkpt lat="43.91096" lon="7.24473">
        <ele>836</ele>
        <time>2012-05-17T09:00:57Z</time>
      </trkpt>
      <trkpt lat="43.91106" lon="7.24482">
        <ele>837</ele>
        <time>2012-05-17T09:01:05Z</time>
      </trkpt>
      <trkpt lat="43.91114" lon="7.24489">
        <ele>839</ele>
        <time>2012-05-17T09:01:12Z</time>
      </trkpt>
      <trkpt lat="43.91118" lon="7.24492">
        <ele>840</ele>
        <time>2012-05-17T09:01:20Z</time>
      </trkpt>
      <trkpt lat="43.91132" lon="7.24501">
        <ele>841</ele>
        <time>2012-05-17T09:01:28Z</time>
      </trkpt>
      <trkpt lat="43.91148" lon="7.24509">
        <ele>843</ele>
        <time>2012-05-17T09:01:36Z</time>
      </trkpt>
      <trkpt lat="43.91158" lon="7.24514">
        <ele>844</ele>
        <time>2012-05-17T09:01:43Z</time>
      </trkpt>
      <trkpt lat="43.91168" lon="7.24514">
        <ele>844</ele>
        <time>2012-05-17T09:01:50Z</time>
      </trkpt>
      <trkpt lat="43.91174" lon="7.24516">
        <ele>846</ele>
        <time>2012-05-17T09:01:57Z</time>
      </trkpt>
      <trkpt lat="43.91189" lon="7.24519">
        <ele>848</ele>
        <time>2012-05-17T09:02:05Z</time>
      </trkpt>
      <trkpt lat="43.91202" lon="7.24521">
        <ele>848</ele>
        <time>2012-05-17T09:02:12Z</time>
      </trkpt>
      <trkpt lat="43.9121" lon="7.24523">
        <ele>849</ele>
        <time>2012-05-17T09:02:19Z</time>
      </trkpt>
      <trkpt lat="43.91212" lon="7.24524">
        <ele>849</ele>
        <time>2012-05-17T09:02:27Z</time>
      </trkpt>
      <trkpt lat="43.91227" lon="7.24529">
        <ele>854</ele>
        <time>2012-05-17T09:02:35Z</time>
      </trkpt>
      <trkpt lat="43.91244" lon="7.24533">
        <ele>854</ele>
        <time>2012-05-17T09:02:42Z</time>
      </trkpt>
      <trkpt lat="43.91254" lon="7.2453">
        <ele>855</ele>
        <time>2012-05-17T09:02:49Z</time>
      </trkpt>
      <trkpt lat="43.91264" lon="7.2453">
        <ele>856</ele>
        <time>2012-05-17T09:02:57Z</time>
      </trkpt>
      <trkpt lat="43.91275" lon="7.2453">
        <ele>857</ele>
        <time>2012-05-17T09:03:04Z</time>
      </trkpt>
      <trkpt lat="43.9128" lon="7.2453">
        <ele>859</ele>
        <time>2012-05-17T09:03:10Z</time>
      </trkpt>
      <trkpt lat="43.91294" lon="7.2453">
        <ele>859</ele>
        <time>2012-05-17T09:03:18Z</time>
      </trkpt>
      <trkpt lat="43.91305" lon="7.24526">
        <ele>861</ele>
        <time>2012-05-17T09:03:25Z</time>
      </trkpt>
      <trkpt lat="43.91317" lon="7.24516">
        <ele>863</ele>
        <time>2012-05-17T09:03:32Z</time>
      </trkpt>
      <trkpt lat="43.91329" lon="7.24512">
        <ele>863</ele>
        <time>2012-05-17T09:03:38Z</time>
      </trkpt>
      <trkpt lat="43.91346" lon="7.24518">
        <ele>864</ele>
        <time>2012-05-17T09:03:45Z</time>
      </trkpt>
      <trkpt lat="43.91375" lon="7.24516">
        <ele>861</ele>
        <time>2012-05-17T09:03:53Z</time>
      </trkpt>
      <trkpt lat="43.91398" lon="7.24511">
        <ele>859</ele>
        <time>2012-05-17T09:03:59Z</time>
      </trkpt>
      <trkpt lat="43.91434" lon="7.2451">
        <ele>854</ele>
        <time>2012-05-17T09:04:07Z</time>
      </trkpt>
      <trkpt lat="43.91454" lon="7.24467">
        <ele>850</ele>
        <time>2012-05-17T09:04:15Z</time>
      </trkpt>
      <trkpt lat="43.91464" lon="7.2442">
        <ele>847</ele>
        <time>2012-05-17T09:04:23Z</time>
      </trkpt>
      <trkpt lat="43.91475" lon="7.24386">
        <ele>844</ele>
        <time>2012-05-17T09:04:30Z</time>
      </trkpt>
      <trkpt lat="43.91487" lon="7.24355">
        <ele>840</ele>
        <time>2012-05-17T09:04:37Z</time>
      </trkpt>
      <trkpt lat="43.91493" lon="7.24321">
        <ele>835</ele>
        <time>2012-05-17T09:04:45Z</time>
      </trkpt>
      <trkpt lat="43.91507" lon="7.24308">
        <ele>831</ele>
        <time>2012-05-17T09:04:52Z</time>
      </trkpt>
      <trkpt lat="43.91528" lon="7.24297">
        <ele>826</ele>
        <time>2012-05-17T09:04:58Z</time>
      </trkpt>
      <trkpt lat="43.91531" lon="7.24308">
        <ele>823</ele>
        <time>2012-05-17T09:05:05Z</time>
      </trkpt>
      <trkpt lat="43.91531" lon="7.24308">
        <ele>823</ele>
        <time>2012-05-17T09:05:12Z</time>
      </trkpt>
      <trkpt lat="43.91531" lon="7.24308">
        <ele>823</ele>
        <time>2012-05-17T09:05:20Z</time>
      </trkpt>
      <trkpt lat="43.91531" lon="7.24308">
        <ele>823</ele>
        <time>2012-05-17T09:05:28Z</time>
      </trkpt>
      <trkpt lat="43.91531" lon="7.24308">
        <ele>823</ele>
        <time>2012-05-17T09:05:36Z</time>
      </trkpt>
      <trkpt lat="43.91531" lon="7.24308">
        <ele>823</ele>
        <time>2012-05-17T09:05:44Z</time>
      </trkpt>
      <trkpt lat="43.91531" lon="7.24308">
        <ele>823</ele>
        <time>2012-05-17T09:05:51Z</time>
      </trkpt>
      <trkpt lat="43.91531" lon="7.24308">
        <ele>823</ele>
        <time>2012-05-17T09:05:59Z</time>
      </trkpt>
      <trkpt lat="43.91532" lon="7.24309">
        <ele>822</ele>
        <time>2012-05-17T09:06:07Z</time>
      </trkpt>
      <trkpt lat="43.91544" lon="7.24322">
        <ele>815</ele>
        <time>2012-05-17T09:06:14Z</time>
      </trkpt>
      <trkpt lat="43.91552" lon="7.24344">
        <ele>816</ele>
        <time>2012-05-17T09:06:21Z</time>
      </trkpt>
      <trkpt lat="43.91576" lon="7.24357">
        <ele>816</ele>
        <time>2012-05-17T09:06:29Z</time>
      </trkpt>
      <trkpt lat="43.91608" lon="7.24338">
        <ele>818</ele>
        <time>2012-05-17T09:06:37Z</time>
      </trkpt>
      <trkpt lat="43.91634" lon="7.24331">
        <ele>819</ele>
        <time>2012-05-17T09:06:44Z</time>
      </trkpt>
      <trkpt lat="43.9165" lon="7.24339">
        <ele>818</ele>
        <time>2012-05-17T09:06:50Z</time>
      </trkpt>
      <trkpt lat="43.91679" lon="7.24335">
        <ele>817</ele>
        <time>2012-05-17T09:06:57Z</time>
      </trkpt>
      <trkpt lat="43.91688" lon="7.24349">
        <ele>814</ele>
        <time>2012-05-17T09:07:05Z</time>
      </trkpt>
      <trkpt lat="43.91695" lon="7.24365">
        <ele>813</ele>
        <time>2012-05-17T09:07:11Z</time>
      </trkpt>
      <trkpt lat="43.91703" lon="7.24373">
        <ele>812</ele>
        <time>2012-05-17T09:07:18Z</time>
      </trkpt>
      <trkpt lat="43.91705" lon="7.24376">
        <ele>812</ele>
        <time>2012-05-17T09:07:25Z</time>
      </trkpt>
      <trkpt lat="43.91712" lon="7.24387">
        <ele>812</ele>
        <time>2012-05-17T09:07:32Z</time>
      </trkpt>
      <trkpt lat="43.91716" lon="7.24394">
        <ele>812</ele>
        <time>2012-05-17T09:07:39Z</time>
      </trkpt>
      <trkpt lat="43.91717" lon="7.24397">
        <ele>812</ele>
        <time>2012-05-17T09:07:46Z</time>
      </trkpt>
      <trkpt lat="43.91718" lon="7.24398">
        <ele>812</ele>
        <time>2012-05-17T09:07:53Z</time>
      </trkpt>
      <trkpt lat="43.91719" lon="7.244">
        <ele>812</ele>
        <time>2012-05-17T09:07:59Z</time>
      </trkpt>
      <trkpt lat="43.91719" lon="7.24399">
        <ele>812</ele>
        <time>2012-05-17T09:08:07Z</time>
      </trkpt>
      <trkpt lat="43.91718" lon="7.24403">
        <ele>821</ele>
        <time>2012-05-17T09:08:13Z</time>
      </trkpt>
      <trkpt lat="43.91712" lon="7.24432">
        <ele>822</ele>
        <time>2012-05-17T09:08:20Z</time>
      </trkpt>
      <trkpt lat="43.91707" lon="7.24449">
        <ele>823</ele>
        <time>2012-05-17T09:08:27Z</time>
      </trkpt>
      <trkpt lat="43.91705" lon="7.24459">
        <ele>823</ele>
        <time>2012-05-17T09:08:34Z</time>
      </trkpt>
      <trkpt lat="43.91703" lon="7.24464">
        <ele>824</ele>
        <time>2012-05-17T09:08:40Z</time>
      </trkpt>
      <trkpt lat="43.91704" lon="7.24476">
        <ele>826</ele>
        <time>2012-05-17T09:08:47Z</time>
      </trkpt>
      <trkpt lat="43.91704" lon="7.24487">
        <ele>827</ele>
        <time>2012-05-17T09:08:54Z</time>
      </trkpt>
      <trkpt lat="43.91705" lon="7.24493">
        <ele>827</ele>
        <time>2012-05-17T09:09:01Z</time>
      </trkpt>
      <trkpt lat="43.91705" lon="7.24492">
        <ele>827</ele>
        <time>2012-05-17T09:09:07Z</time>
      </trkpt>
      <trkpt lat="43.91705" lon="7.2449">
        <ele>827</ele>
        <time>2012-05-17T09:09:14Z</time>
      </trkpt>
      <trkpt lat="43.91705" lon="7.24492">
        <ele>827</ele>
        <time>2012-05-17T09:09:21Z</time>
      </trkpt>
      <trkpt lat="43.91705" lon="7.24488">
        <ele>827</ele>
        <time>2012-05-17T09:09:28Z</time>
      </trkpt>
      <trkpt lat="43.91705" lon="7.24488">
        <ele>827</ele>
        <time>2012-05-17T09:09:35Z</time>
      </trkpt>
      <trkpt lat="43.91705" lon="7.24488">
        <ele>827</ele>
        <time>2012-05-17T09:09:42Z</time>
      </trkpt>
      <trkpt lat="43.91705" lon="7.24488">
        <ele>827</ele>
        <time>2012-05-17T09:09:50Z</time>
      </trkpt>
      <trkpt lat="43.91705" lon="7.24488">
        <ele>827</ele>
        <time>2012-05-17T09:09:58Z</time>
      </trkpt>
      <trkpt lat="43.91705" lon="7.24488">
        <ele>827</ele>
        <time>2012-05-17T09:10:05Z</time>
      </trkpt>
      <trkpt lat="43.91705" lon="7.24488">
        <ele>827</ele>
        <time>2012-05-17T09:10:12Z</time>
      </trkpt>
      <trkpt lat="43.91705" lon="7.24488">
        <ele>827</ele>
        <time>2012-05-17T09:10:19Z</time>
      </trkpt>
      <trkpt lat="43.91705" lon="7.24488">
        <ele>827</ele>
        <time>2012-05-17T09:10:26Z</time>
      </trkpt>
      <trkpt lat="43.91705" lon="7.24488">
        <ele>827</ele>
        <time>2012-05-17T09:10:32Z</time>
      </trkpt>
      <trkpt lat="43.91705" lon="7.24488">
        <ele>827</ele>
        <time>2012-05-17T09:10:40Z</time>
      </trkpt>
      <trkpt lat="43.91705" lon="7.24488">
        <ele>827</ele>
        <time>2012-05-17T09:10:47Z</time>
      </trkpt>
      <trkpt lat="43.91705" lon="7.24488">
        <ele>827</ele>
        <time>2012-05-17T09:10:53Z</time>
      </trkpt>
      <trkpt lat="43.91705" lon="7.24488">
        <ele>827</ele>
        <time>2012-05-17T09:11:00Z</time>
      </trkpt>
      <trkpt lat="43.91705" lon="7.24488">
        <ele>827</ele>
        <time>2012-05-17T09:11:07Z</time>
      </trkpt>
      <trkpt lat="43.91705" lon="7.24488">
        <ele>827</ele>
        <time>2012-05-17T09:11:14Z</time>
      </trkpt>
      <trkpt lat="43.91705" lon="7.24488">
        <ele>827</ele>
        <time>2012-05-17T09:11:22Z</time>
      </trkpt>
      <trkpt lat="43.91705" lon="7.24488">
        <ele>827</ele>
        <time>2012-05-17T09:11:28Z</time>
      </trkpt>
      <trkpt lat="43.91705" lon="7.24488">
        <ele>827</ele>
        <time>2012-05-17T09:11:35Z</time>
      </trkpt>
      <trkpt lat="43.91705" lon="7.24488">
        <ele>827</ele>
        <time>2012-05-17T09:11:42Z</time>
      </trkpt>
      <trkpt lat="43.91705" lon="7.24488">
        <ele>827</ele>
        <time>2012-05-17T09:11:49Z</time>
      </trkpt>
      <trkpt lat="43.91705" lon="7.24488">
        <ele>827</ele>
        <time>2012-05-17T09:11:56Z</time>
      </trkpt>
      <trkpt lat="43.91705" lon="7.24488">
        <ele>827</ele>
        <time>2012-05-17T09:12:03Z</time>
      </trkpt>
      <trkpt lat="43.91705" lon="7.24488">
        <ele>827</ele>
        <time>2012-05-17T09:12:11Z</time>
      </trkpt>
      <trkpt lat="43.91705" lon="7.24488">
        <ele>827</ele>
        <time>2012-05-17T09:12:19Z</time>
      </trkpt>
      <trkpt lat="43.91705" lon="7.24488">
        <ele>827</ele>
        <time>2012-05-17T09:12:27Z</time>
      </trkpt>
      <trkpt lat="43.91705" lon="7.24488">
        <ele>827</ele>
        <time>2012-05-17T09:12:34Z</time>
      </trkpt>
      <trkpt lat="43.91705" lon="7.24488">
        <ele>827</ele>
        <time>2012-05-17T09:12:43Z</time>
      </trkpt>
      <trkpt lat="43.91705" lon="7.24488">
        <ele>827</ele>
        <time>2012-05-17T09:12:49Z</time>
      </trkpt>
      <trkpt lat="43.91705" lon="7.24488">
        <ele>827</ele>
        <time>2012-05-17T09:12:57Z</time>
      </trkpt>
      <trkpt lat="43.91705" lon="7.24488">
        <ele>827</ele>
        <time>2012-05-17T09:13:05Z</time>
      </trkpt>
      <trkpt lat="43.91705" lon="7.24488">
        <ele>827</ele>
        <time>2012-05-17T09:13:11Z</time>
      </trkpt>
      <trkpt lat="43.91705" lon="7.24488">
        <ele>827</ele>
        <time>2012-05-17T09:13:19Z</time>
      </trkpt>
      <trkpt lat="43.91705" lon="7.24488">
        <ele>827</ele>
        <time>2012-05-17T09:13:25Z</time>
      </trkpt>
      <trkpt lat="43.91705" lon="7.24488">
        <ele>827</ele>
        <time>2012-05-17T09:13:32Z</time>
      </trkpt>
      <trkpt lat="43.91705" lon="7.24488">
        <ele>827</ele>
        <time>2012-05-17T09:13:39Z</time>
      </trkpt>
      <trkpt lat="43.91705" lon="7.24488">
        <ele>827</ele>
        <time>2012-05-17T09:13:46Z</time>
      </trkpt>
      <trkpt lat="43.91705" lon="7.24488">
        <ele>827</ele>
        <time>2012-05-17T09:13:54Z</time>
      </trkpt>
      <trkpt lat="43.91705" lon="7.24488">
        <ele>827</ele>
        <time>2012-05-17T09:14:01Z</time>
      </trkpt>
      <trkpt lat="43.91705" lon="7.24488">
        <ele>827</ele>
        <time>2012-05-17T09:14:08Z</time>
      </trkpt>
      <trkpt lat="43.91705" lon="7.24488">
        <ele>827</ele>
        <time>2012-05-17T09:14:15Z</time>
      </trkpt>
      <trkpt lat="43.91705" lon="7.24488">
        <ele>827</ele>
        <time>2012-05-17T09:14:22Z</time>
      </trkpt>
      <trkpt lat="43.91705" lon="7.24488">
        <ele>827</ele>
        <time>2012-05-17T09:14:29Z</time>
      </trkpt>
      <trkpt lat="43.91705" lon="7.24488">
        <ele>827</ele>
        <time>2012-05-17T09:14:36Z</time>
      </trkpt>
      <trkpt lat="43.91705" lon="7.24488">
        <ele>827</ele>
        <time>2012-05-17T09:14:43Z</time>
      </trkpt>
      <trkpt lat="43.91705" lon="7.24488">
        <ele>827</ele>
        <time>2012-05-17T09:14:50Z</time>
      </trkpt>
      <trkpt lat="43.91705" lon="7.24488">
        <ele>827</ele>
        <time>2012-05-17T09:14:57Z</time>
      </trkpt>
      <trkpt lat="43.91705" lon="7.24488">
        <ele>827</ele>
        <time>2012-05-17T09:15:05Z</time>
      </trkpt>
      <trkpt lat="43.91705" lon="7.24488">
        <ele>827</ele>
        <time>2012-05-17T09:15:12Z</time>
      </trkpt>
      <trkpt lat="43.91705" lon="7.24488">
        <ele>827</ele>
        <time>2012-05-17T09:15:19Z</time>
      </trkpt>
      <trkpt lat="43.91705" lon="7.24488">
        <ele>827</ele>
        <time>2012-05-17T09:15:26Z</time>
      </trkpt>
      <trkpt lat="43.91705" lon="7.24488">
        <ele>827</ele>
        <time>2012-05-17T09:15:33Z</time>
      </trkpt>
      <trkpt lat="43.91705" lon="7.24488">
        <ele>827</ele>
        <time>2012-05-17T09:15:40Z</time>
      </trkpt>
      <trkpt lat="43.91705" lon="7.24488">
        <ele>827</ele>
        <time>2012-05-17T09:15:47Z</time>
      </trkpt>
      <trkpt lat="43.91705" lon="7.24488">
        <ele>827</ele>
        <time>2012-05-17T09:15:55Z</time>
      </trkpt>
      <trkpt lat="43.91705" lon="7.24488">
        <ele>827</ele>
        <time>2012-05-17T09:16:02Z</time>
      </trkpt>
      <trkpt lat="43.91705" lon="7.24488">
        <ele>827</ele>
        <time>2012-05-17T09:16:08Z</time>
      </trkpt>
      <trkpt lat="43.91705" lon="7.24488">
        <ele>827</ele>
        <time>2012-05-17T09:16:15Z</time>
      </trkpt>
      <trkpt lat="43.91705" lon="7.24488">
        <ele>827</ele>
        <time>2012-05-17T09:16:23Z</time>
      </trkpt>
      <trkpt lat="43.91705" lon="7.24488">
        <ele>827</ele>
        <time>2012-05-17T09:16:31Z</time>
      </trkpt>
      <trkpt lat="43.91705" lon="7.24488">
        <ele>827</ele>
        <time>2012-05-17T09:16:38Z</time>
      </trkpt>
      <trkpt lat="43.91705" lon="7.24488">
        <ele>827</ele>
        <time>2012-05-17T09:16:44Z</time>
      </trkpt>
      <trkpt lat="43.91705" lon="7.24488">
        <ele>827</ele>
        <time>2012-05-17T09:16:52Z</time>
      </trkpt>
      <trkpt lat="43.91705" lon="7.24488">
        <ele>827</ele>
        <time>2012-05-17T09:17:00Z</time>
      </trkpt>
      <trkpt lat="43.91705" lon="7.24488">
        <ele>827</ele>
        <time>2012-05-17T09:17:07Z</time>
      </trkpt>
      <trkpt lat="43.91705" lon="7.24488">
        <ele>827</ele>
        <time>2012-05-17T09:17:14Z</time>
      </trkpt>
      <trkpt lat="43.91705" lon="7.24488">
        <ele>827</ele>
        <time>2012-05-17T09:17:21Z</time>
      </trkpt>
      <trkpt lat="43.91705" lon="7.24488">
        <ele>827</ele>
        <time>2012-05-17T09:17:28Z</time>
      </trkpt>
      <trkpt lat="43.91705" lon="7.24488">
        <ele>827</ele>
        <time>2012-05-17T09:17:35Z</time>
      </trkpt>
      <trkpt lat="43.91705" lon="7.24488">
        <ele>827</ele>
        <time>2012-05-17T09:17:41Z</time>
      </trkpt>
      <trkpt lat="43.91705" lon="7.24488">
        <ele>827</ele>
        <time>2012-05-17T09:17:49Z</time>
      </trkpt>
      <trkpt lat="43.91705" lon="7.24488">
        <ele>827</ele>
        <time>2012-05-17T09:17:57Z</time>
      </trkpt>
      <trkpt lat="43.91705" lon="7.24488">
        <ele>827</ele>
        <time>2012-05-17T09:18:04Z</time>
      </trkpt>
      <trkpt lat="43.91705" lon="7.24488">
        <ele>827</ele>
        <time>2012-05-17T09:18:12Z</time>
      </trkpt>
      <trkpt lat="43.91705" lon="7.24488">
        <ele>827</ele>
        <time>2012-05-17T09:18:19Z</time>
      </trkpt>
      <trkpt lat="43.91705" lon="7.24488">
        <ele>827</ele>
        <time>2012-05-17T09:18:27Z</time>
      </trkpt>
      <trkpt lat="43.91705" lon="7.24488">
        <ele>827</ele>
        <time>2012-05-17T09:18:35Z</time>
      </trkpt>
      <trkpt lat="43.91705" lon="7.24488">
        <ele>827</ele>
        <time>2012-05-17T09:18:42Z</time>
      </trkpt>
      <trkpt lat="43.91705" lon="7.24488">
        <ele>827</ele>
        <time>2012-05-17T09:18:49Z</time>
      </trkpt>
      <trkpt lat="43.91705" lon="7.24488">
        <ele>827</ele>
        <time>2012-05-17T09:18:55Z</time>
      </trkpt>
      <trkpt lat="43.91705" lon="7.24488">
        <ele>827</ele>
        <time>2012-05-17T09:19:03Z</time>
      </trkpt>
      <trkpt lat="43.91705" lon="7.24488">
        <ele>827</ele>
        <time>2012-05-17T09:19:11Z</time>
      </trkpt>
      <trkpt lat="43.91705" lon="7.24488">
        <ele>827</ele>
        <time>2012-05-17T09:19:19Z</time>
      </trkpt>
      <trkpt lat="43.91705" lon="7.24488">
        <ele>827</ele>
        <time>2012-05-17T09:19:26Z</time>
      </trkpt>
      <trkpt lat="43.91705" lon="7.24488">
        <ele>827</ele>
        <time>2012-05-17T09:19:33Z</time>
      </trkpt>
      <trkpt lat="43.91705" lon="7.24488">
        <ele>827</ele>
        <time>2012-05-17T09:19:40Z</time>
      </trkpt>
      <trkpt lat="43.91705" lon="7.24488">
        <ele>827</ele>
        <time>2012-05-17T09:19:47Z</time>
      </trkpt>
      <trkpt lat="43.91711" lon="7.24513">
        <ele>835</ele>
        <time>2012-05-17T09:19:55Z</time>
      </trkpt>
      <trkpt lat="43.91717" lon="7.24537">
        <ele>836</ele>
        <time>2012-05-17T09:20:01Z</time>
      </trkpt>
      <trkpt lat="43.91719" lon="7.24546">
        <ele>836</ele>
        <time>2012-05-17T09:20:08Z</time>
      </trkpt>
      <trkpt lat="43.91719" lon="7.24552">
        <ele>836</ele>
        <time>2012-05-17T09:20:15Z</time>
      </trkpt>
      <trkpt lat="43.9172" lon="7.24569">
        <ele>837</ele>
        <time>2012-05-17T09:20:23Z</time>
      </trkpt>
      <trkpt lat="43.9172" lon="7.24586">
        <ele>838</ele>
        <time>2012-05-17T09:20:31Z</time>
      </trkpt>
      <trkpt lat="43.9172" lon="7.24599">
        <ele>842</ele>
        <time>2012-05-17T09:20:39Z</time>
      </trkpt>
      <trkpt lat="43.9172" lon="7.24609">
        <ele>842</ele>
        <time>2012-05-17T09:20:46Z</time>
      </trkpt>
      <trkpt lat="43.91721" lon="7.2461">
        <ele>842</ele>
        <time>2012-05-17T09:20:53Z</time>
      </trkpt>
      <trkpt lat="43.9172" lon="7.24624">
        <ele>844</ele>
        <time>2012-05-17T09:21:01Z</time>
      </trkpt>
      <trkpt lat="43.91721" lon="7.24643">
        <ele>845</ele>
        <time>2012-05-17T09:21:08Z</time>
      </trkpt>
      <trkpt lat="43.91719" lon="7.24661">
        <ele>846</ele>
        <time>2012-05-17T09:21:15Z</time>
      </trkpt>
      <trkpt lat="43.91712" lon="7.24683">
        <ele>847</ele>
        <time>2012-05-17T09:21:23Z</time>
      </trkpt>
      <trkpt lat="43.91713" lon="7.24709">
        <ele>848</ele>
        <time>2012-05-17T09:21:31Z</time>
      </trkpt>
      <trkpt lat="43.91707" lon="7.24737">
        <ele>848</ele>
        <time>2012-05-17T09:21:39Z</time>
      </trkpt>
      <trkpt lat="43.91705" lon="7.2476">
        <ele>850</ele>
        <time>2012-05-17T09:21:46Z</time>
      </trkpt>
      <trkpt lat="43.91714" lon="7.24763">
        <ele>853</ele>
        <time>2012-05-17T09:21:53Z</time>
      </trkpt>
      <trkpt lat="43.91726" lon="7.24756">
        <ele>855</ele>
        <time>2012-05-17T09:22:00Z</time>
      </trkpt>
      <trkpt lat="43.91733" lon="7.24747">
        <ele>856</ele>
        <time>2012-05-17T09:22:08Z</time>
      </trkpt>
      <trkpt lat="43.91744" lon="7.24736">
        <ele>857</ele>
        <time>2012-05-17T09:22:15Z</time>
      </trkpt>
      <trkpt lat="43.91757" lon="7.24732">
        <ele>858</ele>
        <time>2012-05-17T09:22:23Z</time>
      </trkpt>
      <trkpt lat="43.91761" lon="7.24727">
        <ele>859</ele>
        <time>2012-05-17T09:22:30Z</time>
      </trkpt>
      <trkpt lat="43.9177" lon="7.24712">
        <ele>860</ele>
        <time>2012-05-17T09:22:38Z</time>
      </trkpt>
      <trkpt lat="43.91778" lon="7.24698">
        <ele>860</ele>
        <time>2012-05-17T09:22:45Z</time>
      </trkpt>
      <trkpt lat="43.91789" lon="7.24678">
        <ele>861</ele>
        <time>2012-05-17T09:22:53Z</time>
      </trkpt>
      <trkpt lat="43.918" lon="7.24659">
        <ele>862</ele>
        <time>2012-05-17T09:23:00Z</time>
      </trkpt>
      <trkpt lat="43.9181" lon="7.2464">
        <ele>864</ele>
        <time>2012-05-17T09:23:07Z</time>
      </trkpt>
      <trkpt lat="43.91825" lon="7.24612">
        <ele>864</ele>
        <time>2012-05-17T09:23:13Z</time>
      </trkpt>
      <trkpt lat="43.91839" lon="7.24592">
        <ele>862</ele>
        <time>2012-05-17T09:23:20Z</time>
      </trkpt>
      <trkpt lat="43.91846" lon="7.24573">
        <ele>862</ele>
        <time>2012-05-17T09:23:26Z</time>
      </trkpt>
      <trkpt lat="43.91852" lon="7.24556">
        <ele>862</ele>
        <time>2012-05-17T09:23:33Z</time>
      </trkpt>
      <trkpt lat="43.91861" lon="7.24545">
        <ele>864</ele>
        <time>2012-05-17T09:23:41Z</time>
      </trkpt>
      <trkpt lat="43.91873" lon="7.24536">
        <ele>864</ele>
        <time>2012-05-17T09:23:48Z</time>
      </trkpt>
      <trkpt lat="43.91884" lon="7.24535">
        <ele>864</ele>
        <time>2012-05-17T09:23:55Z</time>
      </trkpt>
      <trkpt lat="43.91895" lon="7.24534">
        <ele>865</ele>
        <time>2012-05-17T09:24:02Z</time>
      </trkpt>
      <trkpt lat="43.91902" lon="7.24529">
        <ele>866</ele>
        <time>2012-05-17T09:24:10Z</time>
      </trkpt>
      <trkpt lat="43.91912" lon="7.24522">
        <ele>867</ele>
        <time>2012-05-17T09:24:16Z</time>
      </trkpt>
      <trkpt lat="43.91921" lon="7.24521">
        <ele>868</ele>
        <time>2012-05-17T09:24:23Z</time>
      </trkpt>
      <trkpt lat="43.9193" lon="7.24515">
        <ele>868</ele>
        <time>2012-05-17T09:24:30Z</time>
      </trkpt>
      <trkpt lat="43.91937" lon="7.24509">
        <ele>870</ele>
        <time>2012-05-17T09:24:37Z</time>
      </trkpt>
      <trkpt lat="43.91947" lon="7.24495">
        <ele>872</ele>
        <time>2012-05-17T09:24:45Z</time>
      </trkpt>
      <trkpt lat="43.91949" lon="7.24483">
        <ele>873</ele>
        <time>2012-05-17T09:24:53Z</time>
      </trkpt>
      <trkpt lat="43.91958" lon="7.24477">
        <ele>875</ele>
        <time>2012-05-17T09:25:01Z</time>
      </trkpt>
      <trkpt lat="43.91967" lon="7.24479">
        <ele>875</ele>
        <time>2012-05-17T09:25:08Z</time>
      </trkpt>
      <trkpt lat="43.91969" lon="7.2448">
        <ele>876</ele>
        <time>2012-05-17T09:25:15Z</time>
      </trkpt>
      <trkpt lat="43.91981" lon="7.24475">
        <ele>879</ele>
        <time>2012-05-17T09:25:22Z</time>
      </trkpt>
      <trkpt lat="43.91993" lon="7.24472">
        <ele>879</ele>
        <time>2012-05-17T09:25:28Z</time>
      </trkpt>
      <trkpt lat="43.92003" lon="7.24465">
        <ele>880</ele>
        <time>2012-05-17T09:25:36Z</time>
      </trkpt>
      <trkpt lat="43.92011" lon="7.24457">
        <ele>882</ele>
        <time>2012-05-17T09:25:44Z</time>
      </trkpt>
      <trkpt lat="43.92018" lon="7.2445">
        <ele>884</ele>
        <time>2012-05-17T09:25:51Z</time>
      </trkpt>
      <trkpt lat="43.92025" lon="7.24435">
        <ele>886</ele>
        <time>2012-05-17T09:25:58Z</time>
      </trkpt>
      <trkpt lat="43.92024" lon="7.24426">
        <ele>886</ele>
        <time>2012-05-17T09:26:06Z</time>
      </trkpt>
      <trkpt lat="43.9203" lon="7.24419">
        <ele>888</ele>
        <time>2012-05-17T09:26:14Z</time>
      </trkpt>
      <trkpt lat="43.92032" lon="7.24411">
        <ele>889</ele>
        <time>2012-05-17T09:26:20Z</time>
      </trkpt>
      <trkpt lat="43.92033" lon="7.24402">
        <ele>891</ele>
        <time>2012-05-17T09:26:28Z</time>
      </trkpt>
      <trkpt lat="43.92033" lon="7.244">
        <ele>891</ele>
        <time>2012-05-17T09:26:35Z</time>
      </trkpt>
      <trkpt lat="43.92033" lon="7.24399">
        <ele>891</ele>
        <time>2012-05-17T09:26:42Z</time>
      </trkpt>
      <trkpt lat="43.92033" lon="7.24399">
        <ele>891</ele>
        <time>2012-05-17T09:26:50Z</time>
      </trkpt>
      <trkpt lat="43.92033" lon="7.24399">
        <ele>891</ele>
        <time>2012-05-17T09:26:57Z</time>
      </trkpt>
      <trkpt lat="43.92033" lon="7.24398">
        <ele>894</ele>
        <time>2012-05-17T09:27:03Z</time>
      </trkpt>
      <trkpt lat="43.92054" lon="7.24365">
        <ele>899</ele>
        <time>2012-05-17T09:27:11Z</time>
      </trkpt>
      <trkpt lat="43.92057" lon="7.24359">
        <ele>900</ele>
        <time>2012-05-17T09:27:18Z</time>
      </trkpt>
      <trkpt lat="43.92057" lon="7.2436">
        <ele>900</ele>
        <time>2012-05-17T09:27:26Z</time>
      </trkpt>
      <trkpt lat="43.92057" lon="7.24359">
        <ele>900</ele>
        <time>2012-05-17T09:27:33Z</time>
      </trkpt>
      <trkpt lat="43.92057" lon="7.24359">
        <ele>900</ele>
        <time>2012-05-17T09:27:40Z</time>
      </trkpt>
      <trkpt lat="43.92057" lon="7.24359">
        <ele>900</ele>
        <time>2012-05-17T09:27:47Z</time>
      </trkpt>
      <trkpt lat="43.92057" lon="7.24359">
        <ele>900</ele>
        <time>2012-05-17T09:27:53Z</time>
      </trkpt>
      <trkpt lat="43.92057" lon="7.24359">
        <ele>900</ele>
        <time>2012-05-17T09:28:01Z</time>
      </trkpt>
      <trkpt lat="43.92057" lon="7.24359">
        <ele>900</ele>
        <time>2012-05-17T09:28:09Z</time>
      </trkpt>
      <trkpt lat="43.92057" lon="7.24359">
        <ele>900</ele>
        <time>2012-05-17T09:28:17Z</time>
      </trkpt>
      <trkpt lat="43.92057" lon="7.24359">
        <ele>900</ele>
        <time>2012-05-17T09:28:25Z</time>
      </trkpt>
      <trkpt lat="43.92057" lon="7.24359">
        <ele>900</ele>
        <time>2012-05-17T09:28:32Z</time>
      </trkpt>
      <trkpt lat="43.92057" lon="7.24359">
        <ele>900</ele>
        <time>2012-05-17T09:28:39Z</time>
      </trkpt>
      <trkpt lat="43.92057" lon="7.24359">
        <ele>900</ele>
        <time>2012-05-17T09:28:45Z</time>
      </trkpt>
      <trkpt lat="43.92057" lon="7.24359">
        <ele>900</ele>
        <time>2012-05-17T09:28:52Z</time>
      </trkpt>
      <trkpt lat="43.92057" lon="7.24359">
        <ele>900</ele>
        <time>2012-05-17T09:29:00Z</time>
      </trkpt>
      <trkpt lat="43.92057" lon="7.24359">
        <ele>900</ele>
        <time>2012-05-17T09:29:08Z</time>
      </trkpt>
      <trkpt lat="43.92057" lon="7.24359">
        <ele>900</ele>
        <time>2012-05-17T09:29:15Z</time>
      </trkpt>
      <trkpt lat="43.92057" lon="7.24359">
        <ele>900</ele>
        <time>2012-05-17T09:29:22Z</time>
      </trkpt>
      <trkpt lat="43.92057" lon="7.24359">
        <ele>900</ele>
        <time>2012-05-17T09:29:29Z</time>
      </trkpt>
      <trkpt lat="43.92057" lon="7.24359">
        <ele>900</ele>
        <time>2012-05-17T09:29:35Z</time>
      </trkpt>
      <trkpt lat="43.92057" lon="7.24359">
        <ele>900</ele>
        <time>2012-05-17T09:29:42Z</time>
      </trkpt>
      <trkpt lat="43.92057" lon="7.24359">
        <ele>900</ele>
        <time>2012-05-17T09:29:49Z</time>
      </trkpt>
      <trkpt lat="43.92057" lon="7.24359">
        <ele>900</ele>
        <time>2012-05-17T09:29:56Z</time>
      </trkpt>
      <trkpt lat="43.92057" lon="7.24359">
        <ele>900</ele>
        <time>2012-05-17T09:30:03Z</time>
      </trkpt>
      <trkpt lat="43.92057" lon="7.24359">
        <ele>900</ele>
        <time>2012-05-17T09:30:10Z</time>
      </trkpt>
      <trkpt lat="43.92057" lon="7.24359">
        <ele>900</ele>
        <time>2012-05-17T09:30:17Z</time>
      </trkpt>
      <trkpt lat="43.92057" lon="7.24359">
        <ele>900</ele>
        <time>2012-05-17T09:30:24Z</time>
      </trkpt>
      <trkpt lat="43.92057" lon="7.24359">
        <ele>900</ele>
        <time>2012-05-17T09:30:31Z</time>
      </trkpt>
      <trkpt lat="43.92057" lon="7.24359">
        <ele>900</ele>
        <time>2012-05-17T09:30:39Z</time>
      </trkpt>
      <trkpt lat="43.92057" lon="7.24359">
        <ele>900</ele>
        <time>2012-05-17T09:30:46Z</time>
      </trkpt>
      <trkpt lat="43.92057" lon="7.24359">
        <ele>900</ele>
        <time>2012-05-17T09:30:52Z</time>
      </trkpt>
      <trkpt lat="43.92057" lon="7.24359">
        <ele>900</ele>
        <time>2012-05-17T09:31:00Z</time>
      </trkpt>
      <trkpt lat="43.92057" lon="7.24359">
        <ele>900</ele>
        <time>2012-05-17T09:31:07Z</time>
      </trkpt>
      <trkpt lat="43.92057" lon="7.24359">
        <ele>900</ele>
        <time>2012-05-17T09:31:14Z</time>
      </trkpt>
      <trkpt lat="43.92057" lon="7.24359">
        <ele>900</ele>
        <time>2012-05-17T09:31:21Z</time>
      </trkpt>
      <trkpt lat="43.92057" lon="7.24359">
        <ele>900</ele>
        <time>2012-05-17T09:31:28Z</time>
      </trkpt>
      <trkpt lat="43.92057" lon="7.24359">
        <ele>900</ele>
        <time>2012-05-17T09:31:35Z</time>
      </trkpt>
      <trkpt lat="43.92057" lon="7.24359">
        <ele>900</ele>
        <time>2012-05-17T09:31:43Z</time>
      </trkpt>
      <trkpt lat="43.92057" lon="7.24359">
        <ele>900</ele>
        <time>2012-05-17T09:31:50Z</time>
      </trkpt>
      <trkpt lat="43.92057" lon="7.24359">
        <ele>900</ele>
        <time>2012-05-17T09:31:57Z</time>
      </trkpt>
      <trkpt lat="43.92057" lon="7.24359">
        <ele>900</ele>
        <time>2012-05-17T09:32:05Z</time>
      </trkpt>
      <trkpt lat="43.92057" lon="7.24359">
        <ele>900</ele>
        <time>2012-05-17T09:32:13Z</time>
      </trkpt>
      <trkpt lat="43.92057" lon="7.24359">
        <ele>900</ele>
        <time>2012-05-17T09:32:21Z</time>
      </trkpt>
      <trkpt lat="43.92057" lon="7.24359">
        <ele>900</ele>
        <time>2012-05-17T09:32:29Z</time>
      </trkpt>
      <trkpt lat="43.92057" lon="7.24359">
        <ele>900</ele>
        <time>2012-05-17T09:32:36Z</time>
      </trkpt>
      <trkpt lat="43.92057" lon="7.24359">
        <ele>900</ele>
        <time>2012-05-17T09:32:43Z</time>
      </trkpt>
      <trkpt lat="43.92057" lon="7.24359">
        <ele>900</ele>
        <time>2012-05-17T09:32:50Z</time>
      </trkpt>
      <trkpt lat="43.92057" lon="7.24359">
        <ele>900</ele>
        <time>2012-05-17T09:32:57Z</time>
      </trkpt>
      <trkpt lat="43.92057" lon="7.24359">
        <ele>900</ele>
        <time>2012-05-17T09:33:05Z</time>
      </trkpt>
      <trkpt lat="43.92057" lon="7.24359">
        <ele>900</ele>
        <time>2012-05-17T09:33:12Z</time>
      </trkpt>
      <trkpt lat="43.92057" lon="7.24359">
        <ele>900</ele>
        <time>2012-05-17T09:33:19Z</time>
      </trkpt>
      <trkpt lat="43.92057" lon="7.24359">
        <ele>900</ele>
        <time>2012-05-17T09:33:27Z</time>
      </trkpt>
      <trkpt lat="43.92057" lon="7.24359">
        <ele>900</ele>
        <time>2012-05-17T09:33:35Z</time>
      </trkpt>
      <trkpt lat="43.92057" lon="7.24359">
        <ele>900</ele>
        <time>2012-05-17T09:33:42Z</time>
      </trkpt>
      <trkpt lat="43.92057" lon="7.24359">
        <ele>900</ele>
        <time>2012-05-17T09:33:49Z</time>
      </trkpt>
      <trkpt lat="43.92057" lon="7.24359">
        <ele>900</ele>
        <time>2012-05-17T09:33:56Z</time>
      </trkpt>
      <trkpt lat="43.92057" lon="7.24359">
        <ele>900</ele>
        <time>2012-05-17T09:34:03Z</time>
      </trkpt>
      <trkpt lat="43.92057" lon="7.24359">
        <ele>900</ele>
        <time>2012-05-17T09:34:10Z</time>
      </trkpt>
      <trkpt lat="43.92057" lon="7.24359">
        <ele>900</ele>
        <time>2012-05-17T09:34:18Z</time>
      </trkpt>
      <trkpt lat="43.92057" lon="7.24359">
        <ele>900</ele>
        <time>2012-05-17T09:34:25Z</time>
      </trkpt>
      <trkpt lat="43.92057" lon="7.24359">
        <ele>900</ele>
        <time>2012-05-17T09:34:32Z</time>
      </trkpt>
      <trkpt lat="43.92057" lon="7.24359">
        <ele>900</ele>
        <time>2012-05-17T09:34:39Z</time>
      </trkpt>
      <trkpt lat="43.92057" lon="7.24359">
        <ele>900</ele>
        <time>2012-05-17T09:34:47Z</time>
      </trkpt>
      <trkpt lat="43.92057" lon="7.24359">
        <ele>900</ele>
        <time>2012-05-17T09:34:55Z</time>
      </trkpt>
      <trkpt lat="43.92057" lon="7.24359">
        <ele>900</ele>
        <time>2012-05-17T09:35:01Z</time>
      </trkpt>
      <trkpt lat="43.92057" lon="7.24359">
        <ele>900</ele>
        <time>2012-05-17T09:35:08Z</time>
      </trkpt>
      <trkpt lat="43.92057" lon="7.24359">
        <ele>900</ele>
        <time>2012-05-17T09:35:15Z</time>
      </trkpt>
      <trkpt lat="43.92057" lon="7.24359">
        <ele>900</ele>
        <time>2012-05-17T09:35:23Z</time>
      </trkpt>
      <trkpt lat="43.92057" lon="7.24359">
        <ele>900</ele>
        <time>2012-05-17T09:35:30Z</time>
      </trkpt>
      <trkpt lat="43.92057" lon="7.24359">
        <ele>900</ele>
        <time>2012-05-17T09:35:37Z</time>
      </trkpt>
      <trkpt lat="43.92057" lon="7.24359">
        <ele>900</ele>
        <time>2012-05-17T09:35:44Z</time>
      </trkpt>
      <trkpt lat="43.92057" lon="7.24359">
        <ele>900</ele>
        <time>2012-05-17T09:35:51Z</time>
      </trkpt>
      <trkpt lat="43.92057" lon="7.24359">
        <ele>900</ele>
        <time>2012-05-17T09:35:59Z</time>
      </trkpt>
      <trkpt lat="43.92057" lon="7.24359">
        <ele>900</ele>
        <time>2012-05-17T09:36:05Z</time>
      </trkpt>
      <trkpt lat="43.92057" lon="7.24359">
        <ele>900</ele>
        <time>2012-05-17T09:36:12Z</time>
      </trkpt>
      <trkpt lat="43.92057" lon="7.24359">
        <ele>900</ele>
        <time>2012-05-17T09:36:19Z</time>
      </trkpt>
      <trkpt lat="43.92057" lon="7.24359">
        <ele>900</ele>
        <time>2012-05-17T09:36:26Z</time>
      </trkpt>
      <trkpt lat="43.92057" lon="7.24359">
        <ele>900</ele>
        <time>2012-05-17T09:36:33Z</time>
      </trkpt>
      <trkpt lat="43.92057" lon="7.24359">
        <ele>900</ele>
        <time>2012-05-17T09:36:41Z</time>
      </trkpt>
      <trkpt lat="43.92057" lon="7.24359">
        <ele>900</ele>
        <time>2012-05-17T09:36:48Z</time>
      </trkpt>
      <trkpt lat="43.92057" lon="7.24359">
        <ele>900</ele>
        <time>2012-05-17T09:36:55Z</time>
      </trkpt>
      <trkpt lat="43.92057" lon="7.24359">
        <ele>900</ele>
        <time>2012-05-17T09:37:03Z</time>
      </trkpt>
      <trkpt lat="43.92057" lon="7.24359">
        <ele>900</ele>
        <time>2012-05-17T09:37:11Z</time>
      </trkpt>
      <trkpt lat="43.92057" lon="7.24359">
        <ele>900</ele>
        <time>2012-05-17T09:37:18Z</time>
      </trkpt>
      <trkpt lat="43.92057" lon="7.24359">
        <ele>900</ele>
        <time>2012-05-17T09:37:25Z</time>
      </trkpt>
      <trkpt lat="43.92057" lon="7.24359">
        <ele>900</ele>
        <time>2012-05-17T09:37:32Z</time>
      </trkpt>
      <trkpt lat="43.92057" lon="7.24359">
        <ele>900</ele>
        <time>2012-05-17T09:37:39Z</time>
      </trkpt>
      <trkpt lat="43.92057" lon="7.24359">
        <ele>900</ele>
        <time>2012-05-17T09:37:47Z</time>
      </trkpt>
      <trkpt lat="43.92057" lon="7.24359">
        <ele>900</ele>
        <time>2012-05-17T09:37:54Z</time>
      </trkpt>
      <trkpt lat="43.92057" lon="7.24359">
        <ele>900</ele>
        <time>2012-05-17T09:38:02Z</time>
      </trkpt>
      <trkpt lat="43.92057" lon="7.2436">
        <ele>900</ele>
        <time>2012-05-17T09:38:08Z</time>
      </trkpt>
      <trkpt lat="43.92056" lon="7.24353">
        <ele>906</ele>
        <time>2012-05-17T09:38:15Z</time>
      </trkpt>
      <trkpt lat="43.92053" lon="7.24332">
        <ele>907</ele>
        <time>2012-05-17T09:38:22Z</time>
      </trkpt>
      <trkpt lat="43.9205" lon="7.24315">
        <ele>907</ele>
        <time>2012-05-17T09:38:29Z</time>
      </trkpt>
      <trkpt lat="43.92041" lon="7.24302">
        <ele>908</ele>
        <time>2012-05-17T09:38:36Z</time>
      </trkpt>
      <trkpt lat="43.92039" lon="7.24298">
        <ele>908</ele>
        <time>2012-05-17T09:38:43Z</time>
      </trkpt>
      <trkpt lat="43.92035" lon="7.24289">
        <ele>909</ele>
        <time>2012-05-17T09:38:49Z</time>
      </trkpt>
      <trkpt lat="43.9203" lon="7.24278">
        <ele>910</ele>
        <time>2012-05-17T09:38:56Z</time>
      </trkpt>
      <trkpt lat="43.92021" lon="7.24267">
        <ele>912</ele>
        <time>2012-05-17T09:39:03Z</time>
      </trkpt>
      <trkpt lat="43.92006" lon="7.24266">
        <ele>913</ele>
        <time>2012-05-17T09:39:11Z</time>
      </trkpt>
      <trkpt lat="43.91996" lon="7.2426">
        <ele>914</ele>
        <time>2012-05-17T09:39:19Z</time>
      </trkpt>
      <trkpt lat="43.91986" lon="7.24254">
        <ele>916</ele>
        <time>2012-05-17T09:39:26Z</time>
      </trkpt>
      <trkpt lat="43.91977" lon="7.24246">
        <ele>918</ele>
        <time>2012-05-17T09:39:33Z</time>
      </trkpt>
      <trkpt lat="43.91973" lon="7.24234">
        <ele>918</ele>
        <time>2012-05-17T09:39:41Z</time>
      </trkpt>
      <trkpt lat="43.91972" lon="7.24231">
        <ele>918</ele>
        <time>2012-05-17T09:39:48Z</time>
      </trkpt>
      <trkpt lat="43.91972" lon="7.24231">
        <ele>918</ele>
        <time>2012-05-17T09:39:56Z</time>
      </trkpt>
      <trkpt lat="43.91972" lon="7.24231">
        <ele>918</ele>
        <time>2012-05-17T09:40:03Z</time>
      </trkpt>
      <trkpt lat="43.9198" lon="7.24229">
        <ele>925</ele>
        <time>2012-05-17T09:40:11Z</time>
      </trkpt>
      <trkpt lat="43.91998" lon="7.24231">
        <ele>926</ele>
        <time>2012-05-17T09:40:17Z</time>
      </trkpt>
      <trkpt lat="43.92008" lon="7.24221">
        <ele>928</ele>
        <time>2012-05-17T09:40:25Z</time>
      </trkpt>
      <trkpt lat="43.92023" lon="7.2421">
        <ele>930</ele>
        <time>2012-05-17T09:40:33Z</time>
      </trkpt>
      <trkpt lat="43.92046" lon="7.24207">
        <ele>930</ele>
        <time>2012-05-17T09:40:40Z</time>
      </trkpt>
      <trkpt lat="43.92068" lon="7.242">
        <ele>931</ele>
        <time>2012-05-17T09:40:49Z</time>
      </trkpt>
      <trkpt lat="43.92075" lon="7.24172">
        <ele>932</ele>
        <time>2012-05-17T09:40:56Z</time>
      </trkpt>
      <trkpt lat="43.92076" lon="7.24133">
        <ele>933</ele>
        <time>2012-05-17T09:41:04Z</time>
      </trkpt>
      <trkpt lat="43.92081" lon="7.24108">
        <ele>934</ele>
        <time>2012-05-17T09:41:11Z</time>
      </trkpt>
      <trkpt lat="43.92096" lon="7.24095">
        <ele>936</ele>
        <time>2012-05-17T09:41:18Z</time>
      </trkpt>
      <trkpt lat="43.92116" lon="7.24083">
        <ele>937</ele>
        <time>2012-05-17T09:41:26Z</time>
      </trkpt>
      <trkpt lat="43.92136" lon="7.24058">
        <ele>937</ele>
        <time>2012-05-17T09:41:33Z</time>
      </trkpt>
      <trkpt lat="43.92144" lon="7.24035">
        <ele>937</ele>
        <time>2012-05-17T09:41:40Z</time>
      </trkpt>
      <trkpt lat="43.92144" lon="7.24005">
        <ele>937</ele>
        <time>2012-05-17T09:41:48Z</time>
      </trkpt>
      <trkpt lat="43.92145" lon="7.23956">
        <ele>937</ele>
        <time>2012-05-17T09:41:55Z</time>
      </trkpt>
      <trkpt lat="43.92143" lon="7.23922">
        <ele>937</ele>
        <time>2012-05-17T09:42:03Z</time>
      </trkpt>
      <trkpt lat="43.92136" lon="7.23902">
        <ele>936</ele>
        <time>2012-05-17T09:42:10Z</time>
      </trkpt>
      <trkpt lat="43.92125" lon="7.23885">
        <ele>936</ele>
        <time>2012-05-17T09:42:18Z</time>
      </trkpt>
      <trkpt lat="43.92107" lon="7.23883">
        <ele>938</ele>
        <time>2012-05-17T09:42:26Z</time>
      </trkpt>
      <trkpt lat="43.92088" lon="7.23891">
        <ele>940</ele>
        <time>2012-05-17T09:42:34Z</time>
      </trkpt>
      <trkpt lat="43.92077" lon="7.23896">
        <ele>941</ele>
        <time>2012-05-17T09:42:42Z</time>
      </trkpt>
      <trkpt lat="43.92066" lon="7.23894">
        <ele>943</ele>
        <time>2012-05-17T09:42:48Z</time>
      </trkpt>
      <trkpt lat="43.92056" lon="7.23887">
        <ele>944</ele>
        <time>2012-05-17T09:42:56Z</time>
      </trkpt>
      <trkpt lat="43.9205" lon="7.23872">
        <ele>945</ele>
        <time>2012-05-17T09:43:03Z</time>
      </trkpt>
      <trkpt lat="43.92047" lon="7.23857">
        <ele>946</ele>
        <time>2012-05-17T09:43:10Z</time>
      </trkpt>
      <trkpt lat="43.92036" lon="7.23844">
        <ele>948</ele>
        <time>2012-05-17T09:43:17Z</time>
      </trkpt>
      <trkpt lat="43.92023" lon="7.23836">
        <ele>948</ele>
        <time>2012-05-17T09:43:24Z</time>
      </trkpt>
      <trkpt lat="43.92021" lon="7.23824">
        <ele>948</ele>
        <time>2012-05-17T09:43:31Z</time>
      </trkpt>
      <trkpt lat="43.92033" lon="7.23804">
        <ele>949</ele>
        <time>2012-05-17T09:43:38Z</time>
      </trkpt>
      <trkpt lat="43.92041" lon="7.23762">
        <ele>949</ele>
        <time>2012-05-17T09:43:44Z</time>
      </trkpt>
      <trkpt lat="43.92036" lon="7.23736">
        <ele>949</ele>
        <time>2012-05-17T09:43:51Z</time>
      </trkpt>
      <trkpt lat="43.92035" lon="7.2371">
        <ele>950</ele>
        <time>2012-05-17T09:43:58Z</time>
      </trkpt>
      <trkpt lat="43.92038" lon="7.23688">
        <ele>952</ele>
        <time>2012-05-17T09:44:05Z</time>
      </trkpt>
      <trkpt lat="43.92044" lon="7.23657">
        <ele>952</ele>
        <time>2012-05-17T09:44:13Z</time>
      </trkpt>
      <trkpt lat="43.92053" lon="7.23619">
        <ele>952</ele>
        <time>2012-05-17T09:44:21Z</time>
      </trkpt>
      <trkpt lat="43.92053" lon="7.23589">
        <ele>953</ele>
        <time>2012-05-17T09:44:28Z</time>
      </trkpt>
      <trkpt lat="43.92049" lon="7.23557">
        <ele>952</ele>
        <time>2012-05-17T09:44:36Z</time>
      </trkpt>
      <trkpt lat="43.92048" lon="7.2353">
        <ele>952</ele>
        <time>2012-05-17T09:44:43Z</time>
      </trkpt>
      <trkpt lat="43.92051" lon="7.23508">
        <ele>953</ele>
        <time>2012-05-17T09:44:51Z</time>
      </trkpt>
      <trkpt lat="43.92047" lon="7.23494">
        <ele>954</ele>
        <time>2012-05-17T09:44:58Z</time>
      </trkpt>
      <trkpt lat="43.92043" lon="7.23478">
        <ele>955</ele>
        <time>2012-05-17T09:45:05Z</time>
      </trkpt>
      <trkpt lat="43.92041" lon="7.23464">
        <ele>957</ele>
        <time>2012-05-17T09:45:14Z</time>
      </trkpt>
      <trkpt lat="43.92042" lon="7.23457">
        <ele>957</ele>
        <time>2012-05-17T09:45:21Z</time>
      </trkpt>
      <trkpt lat="43.92037" lon="7.23446">
        <ele>961</ele>
        <time>2012-05-17T09:45:28Z</time>
      </trkpt>
      <trkpt lat="43.9203" lon="7.23432">
        <ele>962</ele>
        <time>2012-05-17T09:45:36Z</time>
      </trkpt>
      <trkpt lat="43.92034" lon="7.23421">
        <ele>964</ele>
        <time>2012-05-17T09:45:43Z</time>
      </trkpt>
      <trkpt lat="43.92044" lon="7.23411">
        <ele>965</ele>
        <time>2012-05-17T09:45:50Z</time>
      </trkpt>
      <trkpt lat="43.92059" lon="7.23406">
        <ele>968</ele>
        <time>2012-05-17T09:45:57Z</time>
      </trkpt>
      <trkpt lat="43.92073" lon="7.23398">
        <ele>969</ele>
        <time>2012-05-17T09:46:04Z</time>
      </trkpt>
      <trkpt lat="43.92084" lon="7.2339">
        <ele>969</ele>
        <time>2012-05-17T09:46:12Z</time>
      </trkpt>
      <trkpt lat="43.92094" lon="7.23385">
        <ele>971</ele>
        <time>2012-05-17T09:46:18Z</time>
      </trkpt>
      <trkpt lat="43.92106" lon="7.23373">
        <ele>972</ele>
        <time>2012-05-17T09:46:27Z</time>
      </trkpt>
      <trkpt lat="43.92097" lon="7.23339">
        <ele>973</ele>
        <time>2012-05-17T09:46:35Z</time>
      </trkpt>
      <trkpt lat="43.92099" lon="7.23292">
        <ele>975</ele>
        <time>2012-05-17T09:46:42Z</time>
      </trkpt>
      <trkpt lat="43.92122" lon="7.23246">
        <ele>976</ele>
        <time>2012-05-17T09:46:49Z</time>
      </trkpt>
      <trkpt lat="43.92138" lon="7.2323">
        <ele>977</ele>
        <time>2012-05-17T09:46:57Z</time>
      </trkpt>
      <trkpt lat="43.92148" lon="7.23224">
        <ele>979</ele>
        <time>2012-05-17T09:47:04Z</time>
      </trkpt>
      <trkpt lat="43.92163" lon="7.23216">
        <ele>980</ele>
        <time>2012-05-17T09:47:11Z</time>
      </trkpt>
      <trkpt lat="43.92168" lon="7.23211">
        <ele>980</ele>
        <time>2012-05-17T09:47:17Z</time>
      </trkpt>
      <trkpt lat="43.92167" lon="7.2321">
        <ele>980</ele>
        <time>2012-05-17T09:47:24Z</time>
      </trkpt>
      <trkpt lat="43.92182" lon="7.23196">
        <ele>980</ele>
        <time>2012-05-17T09:47:31Z</time>
      </trkpt>
      <trkpt lat="43.92192" lon="7.2318">
        <ele>980</ele>
        <time>2012-05-17T09:47:37Z</time>
      </trkpt>
      <trkpt lat="43.922" lon="7.23155">
        <ele>980</ele>
        <time>2012-05-17T09:47:44Z</time>
      </trkpt>
      <trkpt lat="43.92204" lon="7.23137">
        <ele>981</ele>
        <time>2012-05-17T09:47:51Z</time>
      </trkpt>
      <trkpt lat="43.92211" lon="7.23124">
        <ele>982</ele>
        <time>2012-05-17T09:47:58Z</time>
      </trkpt>
      <trkpt lat="43.92218" lon="7.23118">
        <ele>982</ele>
        <time>2012-05-17T09:48:05Z</time>
      </trkpt>
      <trkpt lat="43.92222" lon="7.23114">
        <ele>986</ele>
        <time>2012-05-17T09:48:12Z</time>
      </trkpt>
      <trkpt lat="43.92235" lon="7.23101">
        <ele>987</ele>
        <time>2012-05-17T09:48:19Z</time>
      </trkpt>
      <trkpt lat="43.92246" lon="7.2308">
        <ele>989</ele>
        <time>2012-05-17T09:48:25Z</time>
      </trkpt>
      <trkpt lat="43.92251" lon="7.23068">
        <ele>990</ele>
        <time>2012-05-17T09:48:32Z</time>
      </trkpt>
      <trkpt lat="43.92255" lon="7.23061">
        <ele>993</ele>
        <time>2012-05-17T09:48:39Z</time>
      </trkpt>
      <trkpt lat="43.92261" lon="7.23046">
        <ele>992</ele>
        <time>2012-05-17T09:48:45Z</time>
      </trkpt>
      <trkpt lat="43.92266" lon="7.23022">
        <ele>990</ele>
        <time>2012-05-17T09:48:53Z</time>
      </trkpt>
      <trkpt lat="43.92268" lon="7.22987">
        <ele>992</ele>
        <time>2012-05-17T09:48:59Z</time>
      </trkpt>
      <trkpt lat="43.92277" lon="7.22959">
        <ele>994</ele>
        <time>2012-05-17T09:49:06Z</time>
      </trkpt>
      <trkpt lat="43.92288" lon="7.22946">
        <ele>995</ele>
        <time>2012-05-17T09:49:13Z</time>
      </trkpt>
      <trkpt lat="43.92299" lon="7.22934">
        <ele>995</ele>
        <time>2012-05-17T09:49:19Z</time>
      </trkpt>
      <trkpt lat="43.92309" lon="7.2292">
        <ele>994</ele>
        <time>2012-05-17T09:49:27Z</time>
      </trkpt>
      <trkpt lat="43.92312" lon="7.22915">
        <ele>994</ele>
        <time>2012-05-17T09:49:35Z</time>
      </trkpt>
      <trkpt lat="43.92313" lon="7.22915">
        <ele>994</ele>
        <time>2012-05-17T09:49:41Z</time>
      </trkpt>
      <trkpt lat="43.92317" lon="7.22904">
        <ele>1000</ele>
        <time>2012-05-17T09:49:48Z</time>
      </trkpt>
      <trkpt lat="43.9232" lon="7.22883">
        <ele>1001</ele>
        <time>2012-05-17T09:49:56Z</time>
      </trkpt>
      <trkpt lat="43.9232" lon="7.2287">
        <ele>1002</ele>
        <time>2012-05-17T09:50:02Z</time>
      </trkpt>
      <trkpt lat="43.92332" lon="7.22854">
        <ele>1003</ele>
        <time>2012-05-17T09:50:10Z</time>
      </trkpt>
      <trkpt lat="43.92344" lon="7.22846">
        <ele>1003</ele>
        <time>2012-05-17T09:50:17Z</time>
      </trkpt>
      <trkpt lat="43.92358" lon="7.22846">
        <ele>1005</ele>
        <time>2012-05-17T09:50:24Z</time>
      </trkpt>
      <trkpt lat="43.92368" lon="7.22847">
        <ele>1005</ele>
        <time>2012-05-17T09:50:31Z</time>
      </trkpt>
      <trkpt lat="43.92387" lon="7.22843">
        <ele>1004</ele>
        <time>2012-05-17T09:50:39Z</time>
      </trkpt>
      <trkpt lat="43.92407" lon="7.22848">
        <ele>1006</ele>
        <time>2012-05-17T09:50:46Z</time>
      </trkpt>
      <trkpt lat="43.92432" lon="7.22859">
        <ele>1006</ele>
        <time>2012-05-17T09:50:53Z</time>
      </trkpt>
      <trkpt lat="43.92458" lon="7.22853">
        <ele>1006</ele>
        <time>2012-05-17T09:51:00Z</time>
      </trkpt>
      <trkpt lat="43.92477" lon="7.22837">
        <ele>1006</ele>
        <time>2012-05-17T09:51:07Z</time>
      </trkpt>
      <trkpt lat="43.92489" lon="7.2282">
        <ele>1006</ele>
        <time>2012-05-17T09:51:14Z</time>
      </trkpt>
      <trkpt lat="43.9251" lon="7.22805">
        <ele>1006</ele>
        <time>2012-05-17T09:51:21Z</time>
      </trkpt>
      <trkpt lat="43.92532" lon="7.22799">
        <ele>1008</ele>
        <time>2012-05-17T09:51:29Z</time>
      </trkpt>
      <trkpt lat="43.92546" lon="7.22784">
        <ele>1008</ele>
        <time>2012-05-17T09:51:37Z</time>
      </trkpt>
      <trkpt lat="43.92552" lon="7.22761">
        <ele>1008</ele>
        <time>2012-05-17T09:51:44Z</time>
      </trkpt>
      <trkpt lat="43.92554" lon="7.22732">
        <ele>1007</ele>
        <time>2012-05-17T09:51:52Z</time>
      </trkpt>
      <trkpt lat="43.92553" lon="7.22693">
        <ele>1008</ele>
        <time>2012-05-17T09:52:00Z</time>
      </trkpt>
      <trkpt lat="43.92541" lon="7.22645">
        <ele>1008</ele>
        <time>2012-05-17T09:52:07Z</time>
      </trkpt>
      <trkpt lat="43.92526" lon="7.22612">
        <ele>1008</ele>
        <time>2012-05-17T09:52:14Z</time>
      </trkpt>
      <trkpt lat="43.92511" lon="7.22575">
        <ele>1007</ele>
        <time>2012-05-17T09:52:21Z</time>
      </trkpt>
      <trkpt lat="43.92492" lon="7.22543">
        <ele>1005</ele>
        <time>2012-05-17T09:52:29Z</time>
      </trkpt>
      <trkpt lat="43.92459" lon="7.22549">
        <ele>1004</ele>
        <time>2012-05-17T09:52:36Z</time>
      </trkpt>
      <trkpt lat="43.9243" lon="7.22569">
        <ele>1006</ele>
        <time>2012-05-17T09:52:42Z</time>
      </trkpt>
      <trkpt lat="43.9241" lon="7.22581">
        <ele>1007</ele>
        <time>2012-05-17T09:52:49Z</time>
      </trkpt>
      <trkpt lat="43.92386" lon="7.22574">
        <ele>1006</ele>
        <time>2012-05-17T09:52:56Z</time>
      </trkpt>
      <trkpt lat="43.92363" lon="7.22576">
        <ele>1008</ele>
        <time>2012-05-17T09:53:03Z</time>
      </trkpt>
      <trkpt lat="43.92356" lon="7.22569">
        <ele>1009</ele>
        <time>2012-05-17T09:53:10Z</time>
      </trkpt>
      <trkpt lat="43.92344" lon="7.22522">
        <ele>1010</ele>
        <time>2012-05-17T09:53:18Z</time>
      </trkpt>
      <trkpt lat="43.92338" lon="7.22513">
        <ele>1011</ele>
        <time>2012-05-17T09:53:25Z</time>
      </trkpt>
      <trkpt lat="43.92348" lon="7.22484">
        <ele>1012</ele>
        <time>2012-05-17T09:53:33Z</time>
      </trkpt>
      <trkpt lat="43.92349" lon="7.22458">
        <ele>1009</ele>
        <time>2012-05-17T09:53:41Z</time>
      </trkpt>
      <trkpt lat="43.92337" lon="7.22439">
        <ele>1005</ele>
        <time>2012-05-17T09:53:48Z</time>
      </trkpt>
      <trkpt lat="43.92321" lon="7.22434">
        <ele>1007</ele>
        <time>2012-05-17T09:53:55Z</time>
      </trkpt>
      <trkpt lat="43.9231" lon="7.22424">
        <ele>1008</ele>
        <time>2012-05-17T09:54:03Z</time>
      </trkpt>
      <trkpt lat="43.92315" lon="7.22409">
        <ele>1010</ele>
        <time>2012-05-17T09:54:11Z</time>
      </trkpt>
      <trkpt lat="43.92315" lon="7.22405">
        <ele>1010</ele>
        <time>2012-05-17T09:54:18Z</time>
      </trkpt>
      <trkpt lat="43.92309" lon="7.2239">
        <ele>1008</ele>
        <time>2012-05-17T09:54:25Z</time>
      </trkpt>
      <trkpt lat="43.92301" lon="7.22381">
        <ele>1008</ele>
        <time>2012-05-17T09:54:33Z</time>
      </trkpt>
      <trkpt lat="43.92299" lon="7.22378">
        <ele>1008</ele>
        <time>2012-05-17T09:54:41Z</time>
      </trkpt>
      <trkpt lat="43.92295" lon="7.22374">
        <ele>1012</ele>
        <time>2012-05-17T09:54:48Z</time>
      </trkpt>
      <trkpt lat="43.92276" lon="7.22356">
        <ele>1012</ele>
        <time>2012-05-17T09:54:55Z</time>
      </trkpt>
      <trkpt lat="43.92268" lon="7.22348">
        <ele>1014</ele>
        <time>2012-05-17T09:55:02Z</time>
      </trkpt>
      <trkpt lat="43.92258" lon="7.22336">
        <ele>1015</ele>
        <time>2012-05-17T09:55:09Z</time>
      </trkpt>
      <trkpt lat="43.92246" lon="7.22329">
        <ele>1015</ele>
        <time>2012-05-17T09:55:17Z</time>
      </trkpt>
      <trkpt lat="43.92235" lon="7.22321">
        <ele>1018</ele>
        <time>2012-05-17T09:55:23Z</time>
      </trkpt>
      <trkpt lat="43.92224" lon="7.22316">
        <ele>1020</ele>
        <time>2012-05-17T09:55:31Z</time>
      </trkpt>
      <trkpt lat="43.92217" lon="7.22315">
        <ele>1024</ele>
        <time>2012-05-17T09:55:37Z</time>
      </trkpt>
      <trkpt lat="43.92209" lon="7.22314">
        <ele>1024</ele>
        <time>2012-05-17T09:55:45Z</time>
      </trkpt>
      <trkpt lat="43.92206" lon="7.2232">
        <ele>1024</ele>
        <time>2012-05-17T09:55:53Z</time>
      </trkpt>
      <trkpt lat="43.92192" lon="7.22318">
        <ele>1030</ele>
        <time>2012-05-17T09:56:01Z</time>
      </trkpt>
      <trkpt lat="43.92184" lon="7.22319">
        <ele>1031</ele>
        <time>2012-05-17T09:56:08Z</time>
      </trkpt>
      <trkpt lat="43.92177" lon="7.22319">
        <ele>1031</ele>
        <time>2012-05-17T09:56:15Z</time>
      </trkpt>
      <trkpt lat="43.92169" lon="7.22319">
        <ele>1036</ele>
        <time>2012-05-17T09:56:23Z</time>
      </trkpt>
      <trkpt lat="43.92163" lon="7.22323">
        <ele>1036</ele>
        <time>2012-05-17T09:56:31Z</time>
      </trkpt>
      <trkpt lat="43.92161" lon="7.22323">
        <ele>1036</ele>
        <time>2012-05-17T09:56:39Z</time>
      </trkpt>
      <trkpt lat="43.9216" lon="7.22323">
        <ele>1036</ele>
        <time>2012-05-17T09:56:46Z</time>
      </trkpt>
      <trkpt lat="43.92157" lon="7.22322">
        <ele>1036</ele>
        <time>2012-05-17T09:56:53Z</time>
      </trkpt>
      <trkpt lat="43.92157" lon="7.22322">
        <ele>1036</ele>
        <time>2012-05-17T09:57:01Z</time>
      </trkpt>
      <trkpt lat="43.92157" lon="7.22322">
        <ele>1036</ele>
        <time>2012-05-17T09:57:09Z</time>
      </trkpt>
      <trkpt lat="43.92158" lon="7.22322">
        <ele>1041</ele>
        <time>2012-05-17T09:57:16Z</time>
      </trkpt>
      <trkpt lat="43.92134" lon="7.22309">
        <ele>1053</ele>
        <time>2012-05-17T09:57:23Z</time>
      </trkpt>
      <trkpt lat="43.9213" lon="7.22306">
        <ele>1053</ele>
        <time>2012-05-17T09:57:31Z</time>
      </trkpt>
      <trkpt lat="43.92128" lon="7.22306">
        <ele>1054</ele>
        <time>2012-05-17T09:57:39Z</time>
      </trkpt>
      <trkpt lat="43.92116" lon="7.22307">
        <ele>1056</ele>
        <time>2012-05-17T09:57:46Z</time>
      </trkpt>
      <trkpt lat="43.92114" lon="7.22307">
        <ele>1057</ele>
        <time>2012-05-17T09:57:53Z</time>
      </trkpt>
      <trkpt lat="43.92113" lon="7.22307">
        <ele>1057</ele>
        <time>2012-05-17T09:58:01Z</time>
      </trkpt>
      <trkpt lat="43.92104" lon="7.22306">
        <ele>1059</ele>
        <time>2012-05-17T09:58:08Z</time>
      </trkpt>
      <trkpt lat="43.92087" lon="7.22299">
        <ele>1060</ele>
        <time>2012-05-17T09:58:15Z</time>
      </trkpt>
      <trkpt lat="43.92085" lon="7.22298">
        <ele>1060</ele>
        <time>2012-05-17T09:58:22Z</time>
      </trkpt>
      <trkpt lat="43.92086" lon="7.22298">
        <ele>1060</ele>
        <time>2012-05-17T09:58:29Z</time>
      </trkpt>
      <trkpt lat="43.92085" lon="7.22298">
        <ele>1060</ele>
        <time>2012-05-17T09:58:36Z</time>
      </trkpt>
      <trkpt lat="43.92085" lon="7.22298">
        <ele>1060</ele>
        <time>2012-05-17T09:58:42Z</time>
      </trkpt>
      <trkpt lat="43.92085" lon="7.22298">
        <ele>1060</ele>
        <time>2012-05-17T09:58:49Z</time>
      </trkpt>
      <trkpt lat="43.92085" lon="7.22298">
        <ele>1060</ele>
        <time>2012-05-17T09:58:56Z</time>
      </trkpt>
      <trkpt lat="43.92069" lon="7.22297">
        <ele>1079</ele>
        <time>2012-05-17T09:59:02Z</time>
      </trkpt>
      <trkpt lat="43.92053" lon="7.22296">
        <ele>1079</ele>
        <time>2012-05-17T09:59:09Z</time>
      </trkpt>
      <trkpt lat="43.9205" lon="7.22295">
        <ele>1079</ele>
        <time>2012-05-17T09:59:17Z</time>
      </trkpt>
      <trkpt lat="43.92051" lon="7.22295">
        <ele>1079</ele>
        <time>2012-05-17T09:59:25Z</time>
      </trkpt>
      <trkpt lat="43.9205" lon="7.22295">
        <ele>1079</ele>
        <time>2012-05-17T09:59:32Z</time>
      </trkpt>
      <trkpt lat="43.92048" lon="7.22293">
        <ele>1079</ele>
        <time>2012-05-17T09:59:39Z</time>
      </trkpt>
      <trkpt lat="43.92035" lon="7.2229">
        <ele>1085</ele>
        <time>2012-05-17T09:59:46Z</time>
      </trkpt>
      <trkpt lat="43.92016" lon="7.22285">
        <ele>1085</ele>
        <time>2012-05-17T09:59:54Z</time>
      </trkpt>
      <trkpt lat="43.92005" lon="7.22283">
        <ele>1087</ele>
        <time>2012-05-17T10:00:01Z</time>
      </trkpt>
      <trkpt lat="43.91996" lon="7.22283">
        <ele>1087</ele>
        <time>2012-05-17T10:00:08Z</time>
      </trkpt>
      <trkpt lat="43.91992" lon="7.22282">
        <ele>1090</ele>
        <time>2012-05-17T10:00:15Z</time>
      </trkpt>
      <trkpt lat="43.91978" lon="7.22281">
        <ele>1092</ele>
        <time>2012-05-17T10:00:23Z</time>
      </trkpt>
      <trkpt lat="43.91968" lon="7.2228">
        <ele>1092</ele>
        <time>2012-05-17T10:00:31Z</time>
      </trkpt>
      <trkpt lat="43.91964" lon="7.22276">
        <ele>1091</ele>
        <time>2012-05-17T10:00:38Z</time>
      </trkpt>
      <trkpt lat="43.9196" lon="7.22258">
        <ele>1092</ele>
        <time>2012-05-17T10:00:45Z</time>
      </trkpt>
      <trkpt lat="43.91959" lon="7.22251">
        <ele>1092</ele>
        <time>2012-05-17T10:00:53Z</time>
      </trkpt>
      <trkpt lat="43.91947" lon="7.22243">
        <ele>1094</ele>
        <time>2012-05-17T10:01:01Z</time>
      </trkpt>
      <trkpt lat="43.91937" lon="7.22236">
        <ele>1094</ele>
        <time>2012-05-17T10:01:07Z</time>
      </trkpt>
      <trkpt lat="43.91924" lon="7.22231">
        <ele>1094</ele>
        <time>2012-05-17T10:01:14Z</time>
      </trkpt>
      <trkpt lat="43.91922" lon="7.2223">
        <ele>1094</ele>
        <time>2012-05-17T10:01:20Z</time>
      </trkpt>
      <trkpt lat="43.91922" lon="7.2223">
        <ele>1094</ele>
        <time>2012-05-17T10:01:27Z</time>
      </trkpt>
      <trkpt lat="43.91922" lon="7.2223">
        <ele>1094</ele>
        <time>2012-05-17T10:01:35Z</time>
      </trkpt>
      <trkpt lat="43.9191" lon="7.22244">
        <ele>1102</ele>
        <time>2012-05-17T10:01:42Z</time>
      </trkpt>
      <trkpt lat="43.91895" lon="7.22265">
        <ele>1102</ele>
        <time>2012-05-17T10:01:49Z</time>
      </trkpt>
      <trkpt lat="43.91891" lon="7.22269">
        <ele>1102</ele>
        <time>2012-05-17T10:01:57Z</time>
      </trkpt>
      <trkpt lat="43.91891" lon="7.2227">
        <ele>1102</ele>
        <time>2012-05-17T10:02:05Z</time>
      </trkpt>
      <trkpt lat="43.91891" lon="7.2227">
        <ele>1102</ele>
        <time>2012-05-17T10:02:13Z</time>
      </trkpt>
      <trkpt lat="43.91891" lon="7.2227">
        <ele>1102</ele>
        <time>2012-05-17T10:02:20Z</time>
      </trkpt>
      <trkpt lat="43.9189" lon="7.22271">
        <ele>1102</ele>
        <time>2012-05-17T10:02:27Z</time>
      </trkpt>
      <trkpt lat="43.9189" lon="7.22271">
        <ele>1102</ele>
        <time>2012-05-17T10:02:34Z</time>
      </trkpt>
      <trkpt lat="43.91889" lon="7.22283">
        <ele>1106</ele>
        <time>2012-05-17T10:02:42Z</time>
      </trkpt>
      <trkpt lat="43.91895" lon="7.22326">
        <ele>1104</ele>
        <time>2012-05-17T10:02:49Z</time>
      </trkpt>
      <trkpt lat="43.919" lon="7.2235">
        <ele>1104</ele>
        <time>2012-05-17T10:02:55Z</time>
      </trkpt>
      <trkpt lat="43.91907" lon="7.2237">
        <ele>1104</ele>
        <time>2012-05-17T10:03:03Z</time>
      </trkpt>
      <trkpt lat="43.9191" lon="7.22392">
        <ele>1104</ele>
        <time>2012-05-17T10:03:11Z</time>
      </trkpt>
      <trkpt lat="43.91899" lon="7.22437">
        <ele>1104</ele>
        <time>2012-05-17T10:03:17Z</time>
      </trkpt>
      <trkpt lat="43.91874" lon="7.22465">
        <ele>1104</ele>
        <time>2012-05-17T10:03:25Z</time>
      </trkpt>
      <trkpt lat="43.91857" lon="7.22474">
        <ele>1104</ele>
        <time>2012-05-17T10:03:32Z</time>
      </trkpt>
      <trkpt lat="43.91841" lon="7.22486">
        <ele>1104</ele>
        <time>2012-05-17T10:03:39Z</time>
      </trkpt>
      <trkpt lat="43.91818" lon="7.22514">
        <ele>1104</ele>
        <time>2012-05-17T10:03:45Z</time>
      </trkpt>
      <trkpt lat="43.91796" lon="7.22543">
        <ele>1104</ele>
        <time>2012-05-17T10:03:53Z</time>
      </trkpt>
      <trkpt lat="43.91774" lon="7.22564">
        <ele>1103</ele>
        <time>2012-05-17T10:04:00Z</time>
      </trkpt>
      <trkpt lat="43.9175" lon="7.22575">
        <ele>1102</ele>
        <time>2012-05-17T10:04:07Z</time>
      </trkpt>
      <trkpt lat="43.91723" lon="7.22592">
        <ele>1102</ele>
        <time>2012-05-17T10:04:14Z</time>
      </trkpt>
      <trkpt lat="43.91695" lon="7.22657">
        <ele>1098</ele>
        <time>2012-05-17T10:04:21Z</time>
      </trkpt>
      <trkpt lat="43.91671" lon="7.22724">
        <ele>1095</ele>
        <time>2012-05-17T10:04:27Z</time>
      </trkpt>
      <trkpt lat="43.91671" lon="7.22773">
        <ele>1088</ele>
        <time>2012-05-17T10:04:34Z</time>
      </trkpt>
      <trkpt lat="43.91638" lon="7.22811">
        <ele>1085</ele>
        <time>2012-05-17T10:04:41Z</time>
      </trkpt>
      <trkpt lat="43.91631" lon="7.2284">
        <ele>1081</ele>
        <time>2012-05-17T10:04:48Z</time>
      </trkpt>
      <trkpt lat="43.91632" lon="7.22851">
        <ele>1079</ele>
        <time>2012-05-17T10:04:55Z</time>
      </trkpt>
      <trkpt lat="43.91629" lon="7.22868">
        <ele>1075</ele>
        <time>2012-05-17T10:05:02Z</time>
      </trkpt>
      <trkpt lat="43.91623" lon="7.22876">
        <ele>1074</ele>
        <time>2012-05-17T10:05:09Z</time>
      </trkpt>
      <trkpt lat="43.91617" lon="7.22884">
        <ele>1077</ele>
        <time>2012-05-17T10:05:16Z</time>
      </trkpt>
      <trkpt lat="43.9161" lon="7.22893">
        <ele>1079</ele>
        <time>2012-05-17T10:05:22Z</time>
      </trkpt>
      <trkpt lat="43.91605" lon="7.22907">
        <ele>1080</ele>
        <time>2012-05-17T10:05:29Z</time>
      </trkpt>
      <trkpt lat="43.916" lon="7.22921">
        <ele>1081</ele>
        <time>2012-05-17T10:05:35Z</time>
      </trkpt>
      <trkpt lat="43.91594" lon="7.22934">
        <ele>1080</ele>
        <time>2012-05-17T10:05:43Z</time>
      </trkpt>
      <trkpt lat="43.91596" lon="7.22958">
        <ele>1077</ele>
        <time>2012-05-17T10:05:51Z</time>
      </trkpt>
      <trkpt lat="43.91596" lon="7.22974">
        <ele>1076</ele>
        <time>2012-05-17T10:05:58Z</time>
      </trkpt>
      <trkpt lat="43.916" lon="7.22989">
        <ele>1075</ele>
        <time>2012-05-17T10:06:05Z</time>
      </trkpt>
      <trkpt lat="43.91601" lon="7.23001">
        <ele>1075</ele>
        <time>2012-05-17T10:06:11Z</time>
      </trkpt>
      <trkpt lat="43.91602" lon="7.23017">
        <ele>1076</ele>
        <time>2012-05-17T10:06:19Z</time>
      </trkpt>
      <trkpt lat="43.91604" lon="7.23029">
        <ele>1077</ele>
        <time>2012-05-17T10:06:25Z</time>
      </trkpt>
      <trkpt lat="43.91607" lon="7.23042">
        <ele>1078</ele>
        <time>2012-05-17T10:06:32Z</time>
      </trkpt>
      <trkpt lat="43.91616" lon="7.23057">
        <ele>1081</ele>
        <time>2012-05-17T10:06:40Z</time>
      </trkpt>
      <trkpt lat="43.91623" lon="7.23069">
        <ele>1084</ele>
        <time>2012-05-17T10:06:47Z</time>
      </trkpt>
      <trkpt lat="43.91626" lon="7.2308">
        <ele>1086</ele>
        <time>2012-05-17T10:06:53Z</time>
      </trkpt>
      <trkpt lat="43.91627" lon="7.23093">
        <ele>1087</ele>
        <time>2012-05-17T10:07:00Z</time>
      </trkpt>
      <trkpt lat="43.91622" lon="7.23104">
        <ele>1089</ele>
        <time>2012-05-17T10:07:06Z</time>
      </trkpt>
      <trkpt lat="43.9162" lon="7.23112">
        <ele>1090</ele>
        <time>2012-05-17T10:07:13Z</time>
      </trkpt>
      <trkpt lat="43.91615" lon="7.23118">
        <ele>1092</ele>
        <time>2012-05-17T10:07:20Z</time>
      </trkpt>
      <trkpt lat="43.91606" lon="7.23111">
        <ele>1091</ele>
        <time>2012-05-17T10:07:28Z</time>
      </trkpt>
      <trkpt lat="43.91601" lon="7.23103">
        <ele>1091</ele>
        <time>2012-05-17T10:07:35Z</time>
      </trkpt>
      <trkpt lat="43.91591" lon="7.23099">
        <ele>1092</ele>
        <time>2012-05-17T10:07:42Z</time>
      </trkpt>
      <trkpt lat="43.91578" lon="7.23098">
        <ele>1094</ele>
        <time>2012-05-17T10:07:50Z</time>
      </trkpt>
      <trkpt lat="43.91569" lon="7.23108">
        <ele>1094</ele>
        <time>2012-05-17T10:07:56Z</time>
      </trkpt>
      <trkpt lat="43.9156" lon="7.23115">
        <ele>1096</ele>
        <time>2012-05-17T10:08:03Z</time>
      </trkpt>
      <trkpt lat="43.91552" lon="7.23123">
        <ele>1097</ele>
        <time>2012-05-17T10:08:10Z</time>
      </trkpt>
      <trkpt lat="43.91541" lon="7.23134">
        <ele>1099</ele>
        <time>2012-05-17T10:08:17Z</time>
      </trkpt>
      <trkpt lat="43.9153" lon="7.2314">
        <ele>1101</ele>
        <time>2012-05-17T10:08:24Z</time>
      </trkpt>
      <trkpt lat="43.91519" lon="7.23146">
        <ele>1103</ele>
        <time>2012-05-17T10:08:31Z</time>
      </trkpt>
      <trkpt lat="43.91509" lon="7.23145">
        <ele>1104</ele>
        <time>2012-05-17T10:08:38Z</time>
      </trkpt>
      <trkpt lat="43.915" lon="7.23147">
        <ele>1106</ele>
        <time>2012-05-17T10:08:45Z</time>
      </trkpt>
      <trkpt lat="43.9149" lon="7.2315">
        <ele>1107</ele>
        <time>2012-05-17T10:08:52Z</time>
      </trkpt>
      <trkpt lat="43.91474" lon="7.23153">
        <ele>1108</ele>
        <time>2012-05-17T10:09:00Z</time>
      </trkpt>
      <trkpt lat="43.91463" lon="7.2316">
        <ele>1110</ele>
        <time>2012-05-17T10:09:07Z</time>
      </trkpt>
      <trkpt lat="43.91455" lon="7.23159">
        <ele>1110</ele>
        <time>2012-05-17T10:09:13Z</time>
      </trkpt>
      <trkpt lat="43.91453" lon="7.23156">
        <ele>1110</ele>
        <time>2012-05-17T10:09:20Z</time>
      </trkpt>
      <trkpt lat="43.91451" lon="7.23155">
        <ele>1110</ele>
        <time>2012-05-17T10:09:27Z</time>
      </trkpt>
      <trkpt lat="43.91451" lon="7.23155">
        <ele>1110</ele>
        <time>2012-05-17T10:09:34Z</time>
      </trkpt>
      <trkpt lat="43.91453" lon="7.23155">
        <ele>1110</ele>
        <time>2012-05-17T10:09:41Z</time>
      </trkpt>
      <trkpt lat="43.91452" lon="7.23155">
        <ele>1110</ele>
        <time>2012-05-17T10:09:49Z</time>
      </trkpt>
      <trkpt lat="43.91452" lon="7.23155">
        <ele>1110</ele>
        <time>2012-05-17T10:09:56Z</time>
      </trkpt>
      <trkpt lat="43.91452" lon="7.23155">
        <ele>1110</ele>
        <time>2012-05-17T10:10:03Z</time>
      </trkpt>
      <trkpt lat="43.91452" lon="7.23155">
        <ele>1110</ele>
        <time>2012-05-17T10:10:10Z</time>
      </trkpt>
      <trkpt lat="43.91452" lon="7.23155">
        <ele>1112</ele>
        <time>2012-05-17T10:10:17Z</time>
      </trkpt>
      <trkpt lat="43.91425" lon="7.23138">
        <ele>1120</ele>
        <time>2012-05-17T10:10:24Z</time>
      </trkpt>
      <trkpt lat="43.91418" lon="7.23134">
        <ele>1120</ele>
        <time>2012-05-17T10:10:31Z</time>
      </trkpt>
      <trkpt lat="43.91417" lon="7.23134">
        <ele>1120</ele>
        <time>2012-05-17T10:10:39Z</time>
      </trkpt>
      <trkpt lat="43.91417" lon="7.23134">
        <ele>1120</ele>
        <time>2012-05-17T10:10:46Z</time>
      </trkpt>
      <trkpt lat="43.91417" lon="7.23134">
        <ele>1120</ele>
        <time>2012-05-17T10:10:53Z</time>
      </trkpt>
      <trkpt lat="43.91417" lon="7.23134">
        <ele>1120</ele>
        <time>2012-05-17T10:11:00Z</time>
      </trkpt>
      <trkpt lat="43.91417" lon="7.23134">
        <ele>1120</ele>
        <time>2012-05-17T10:11:08Z</time>
      </trkpt>
      <trkpt lat="43.91414" lon="7.23133">
        <ele>1129</ele>
        <time>2012-05-17T10:11:15Z</time>
      </trkpt>
      <trkpt lat="43.91384" lon="7.23128">
        <ele>1135</ele>
        <time>2012-05-17T10:11:23Z</time>
      </trkpt>
      <trkpt lat="43.91381" lon="7.23127">
        <ele>1135</ele>
        <time>2012-05-17T10:11:29Z</time>
      </trkpt>
      <trkpt lat="43.9138" lon="7.23127">
        <ele>1135</ele>
        <time>2012-05-17T10:11:37Z</time>
      </trkpt>
      <trkpt lat="43.9138" lon="7.23127">
        <ele>1135</ele>
        <time>2012-05-17T10:11:45Z</time>
      </trkpt>
      <trkpt lat="43.9138" lon="7.23127">
        <ele>1135</ele>
        <time>2012-05-17T10:11:52Z</time>
      </trkpt>
      <trkpt lat="43.91381" lon="7.23127">
        <ele>1135</ele>
        <time>2012-05-17T10:12:00Z</time>
      </trkpt>
      <trkpt lat="43.91381" lon="7.23127">
        <ele>1135</ele>
        <time>2012-05-17T10:12:07Z</time>
      </trkpt>
      <trkpt lat="43.9138" lon="7.23127">
        <ele>1135</ele>
        <time>2012-05-17T10:12:14Z</time>
      </trkpt>
      <trkpt lat="43.9138" lon="7.23127">
        <ele>1135</ele>
        <time>2012-05-17T10:12:21Z</time>
      </trkpt>
      <trkpt lat="43.91378" lon="7.2313">
        <ele>1144</ele>
        <time>2012-05-17T10:12:28Z</time>
      </trkpt>
      <trkpt lat="43.91351" lon="7.2315">
        <ele>1148</ele>
        <time>2012-05-17T10:12:36Z</time>
      </trkpt>
      <trkpt lat="43.91349" lon="7.23151">
        <ele>1148</ele>
        <time>2012-05-17T10:12:43Z</time>
      </trkpt>
      <trkpt lat="43.91349" lon="7.23151">
        <ele>1148</ele>
        <time>2012-05-17T10:12:49Z</time>
      </trkpt>
      <trkpt lat="43.91349" lon="7.23151">
        <ele>1148</ele>
        <time>2012-05-17T10:12:56Z</time>
      </trkpt>
      <trkpt lat="43.91348" lon="7.23151">
        <ele>1148</ele>
        <time>2012-05-17T10:13:03Z</time>
      </trkpt>
      <trkpt lat="43.91347" lon="7.23154">
        <ele>1148</ele>
        <time>2012-05-17T10:13:10Z</time>
      </trkpt>
      <trkpt lat="43.91346" lon="7.23157">
        <ele>1148</ele>
        <time>2012-05-17T10:13:17Z</time>
      </trkpt>
      <trkpt lat="43.91345" lon="7.23158">
        <ele>1157</ele>
        <time>2012-05-17T10:13:24Z</time>
      </trkpt>
      <trkpt lat="43.91314" lon="7.23149">
        <ele>1163</ele>
        <time>2012-05-17T10:13:31Z</time>
      </trkpt>
      <trkpt lat="43.9131" lon="7.23149">
        <ele>1163</ele>
        <time>2012-05-17T10:13:39Z</time>
      </trkpt>
      <trkpt lat="43.91307" lon="7.23151">
        <ele>1163</ele>
        <time>2012-05-17T10:13:47Z</time>
      </trkpt>
      <trkpt lat="43.91308" lon="7.2315">
        <ele>1163</ele>
        <time>2012-05-17T10:13:55Z</time>
      </trkpt>
      <trkpt lat="43.91307" lon="7.23151">
        <ele>1163</ele>
        <time>2012-05-17T10:14:02Z</time>
      </trkpt>
      <trkpt lat="43.91306" lon="7.23152">
        <ele>1163</ele>
        <time>2012-05-17T10:14:09Z</time>
      </trkpt>
      <trkpt lat="43.91308" lon="7.2315">
        <ele>1163</ele>
        <time>2012-05-17T10:14:16Z</time>
      </trkpt>
      <trkpt lat="43.91308" lon="7.23149">
        <ele>1163</ele>
        <time>2012-05-17T10:14:23Z</time>
      </trkpt>
      <trkpt lat="43.91308" lon="7.2315">
        <ele>1163</ele>
        <time>2012-05-17T10:14:30Z</time>
      </trkpt>
      <trkpt lat="43.91299" lon="7.23149">
        <ele>1177</ele>
        <time>2012-05-17T10:14:37Z</time>
      </trkpt>
      <trkpt lat="43.9128" lon="7.23142">
        <ele>1177</ele>
        <time>2012-05-17T10:14:44Z</time>
      </trkpt>
      <trkpt lat="43.91274" lon="7.23141">
        <ele>1177</ele>
        <time>2012-05-17T10:14:51Z</time>
      </trkpt>
      <trkpt lat="43.91272" lon="7.2314">
        <ele>1177</ele>
        <time>2012-05-17T10:14:59Z</time>
      </trkpt>
      <trkpt lat="43.91271" lon="7.23139">
        <ele>1177</ele>
        <time>2012-05-17T10:15:07Z</time>
      </trkpt>
      <trkpt lat="43.91271" lon="7.23138">
        <ele>1177</ele>
        <time>2012-05-17T10:15:15Z</time>
      </trkpt>
      <trkpt lat="43.9127" lon="7.23139">
        <ele>1177</ele>
        <time>2012-05-17T10:15:23Z</time>
      </trkpt>
      <trkpt lat="43.91271" lon="7.23138">
        <ele>1177</ele>
        <time>2012-05-17T10:15:31Z</time>
      </trkpt>
      <trkpt lat="43.91271" lon="7.23138">
        <ele>1177</ele>
        <time>2012-05-17T10:15:38Z</time>
      </trkpt>
      <trkpt lat="43.91269" lon="7.23141">
        <ele>1188</ele>
        <time>2012-05-17T10:15:46Z</time>
      </trkpt>
      <trkpt lat="43.91252" lon="7.23161">
        <ele>1192</ele>
        <time>2012-05-17T10:15:53Z</time>
      </trkpt>
      <trkpt lat="43.91245" lon="7.23167">
        <ele>1192</ele>
        <time>2012-05-17T10:16:00Z</time>
      </trkpt>
      <trkpt lat="43.91244" lon="7.23167">
        <ele>1192</ele>
        <time>2012-05-17T10:16:07Z</time>
      </trkpt>
      <trkpt lat="43.91244" lon="7.23167">
        <ele>1192</ele>
        <time>2012-05-17T10:16:14Z</time>
      </trkpt>
      <trkpt lat="43.91244" lon="7.23167">
        <ele>1192</ele>
        <time>2012-05-17T10:16:21Z</time>
      </trkpt>
      <trkpt lat="43.91245" lon="7.23166">
        <ele>1192</ele>
        <time>2012-05-17T10:16:28Z</time>
      </trkpt>
      <trkpt lat="43.91245" lon="7.23166">
        <ele>1192</ele>
        <time>2012-05-17T10:16:35Z</time>
      </trkpt>
      <trkpt lat="43.91244" lon="7.23167">
        <ele>1192</ele>
        <time>2012-05-17T10:16:42Z</time>
      </trkpt>
      <trkpt lat="43.91245" lon="7.23166">
        <ele>1192</ele>
        <time>2012-05-17T10:16:49Z</time>
      </trkpt>
      <trkpt lat="43.91236" lon="7.23172">
        <ele>1207</ele>
        <time>2012-05-17T10:16:55Z</time>
      </trkpt>
      <trkpt lat="43.91215" lon="7.23184">
        <ele>1208</ele>
        <time>2012-05-17T10:17:02Z</time>
      </trkpt>
      <trkpt lat="43.91214" lon="7.23185">
        <ele>1208</ele>
        <time>2012-05-17T10:17:09Z</time>
      </trkpt>
      <trkpt lat="43.91214" lon="7.23189">
        <ele>1211</ele>
        <time>2012-05-17T10:17:15Z</time>
      </trkpt>
      <trkpt lat="43.91201" lon="7.23199">
        <ele>1213</ele>
        <time>2012-05-17T10:17:21Z</time>
      </trkpt>
      <trkpt lat="43.91189" lon="7.23205">
        <ele>1213</ele>
        <time>2012-05-17T10:17:27Z</time>
      </trkpt>
      <trkpt lat="43.91179" lon="7.23213">
        <ele>1213</ele>
        <time>2012-05-17T10:17:35Z</time>
      </trkpt>
      <trkpt lat="43.91168" lon="7.2322">
        <ele>1213</ele>
        <time>2012-05-17T10:17:42Z</time>
      </trkpt>
      <trkpt lat="43.91158" lon="7.23223">
        <ele>1214</ele>
        <time>2012-05-17T10:17:49Z</time>
      </trkpt>
      <trkpt lat="43.91147" lon="7.23219">
        <ele>1216</ele>
        <time>2012-05-17T10:17:56Z</time>
      </trkpt>
      <trkpt lat="43.91138" lon="7.23207">
        <ele>1216</ele>
        <time>2012-05-17T10:18:03Z</time>
      </trkpt>
      <trkpt lat="43.91131" lon="7.23189">
        <ele>1216</ele>
        <time>2012-05-17T10:18:10Z</time>
      </trkpt>
      <trkpt lat="43.91124" lon="7.23171">
        <ele>1216</ele>
        <time>2012-05-17T10:18:18Z</time>
      </trkpt>
      <trkpt lat="43.9112" lon="7.23159">
        <ele>1216</ele>
        <time>2012-05-17T10:18:25Z</time>
      </trkpt>
      <trkpt lat="43.91119" lon="7.23152">
        <ele>1218</ele>
        <time>2012-05-17T10:18:32Z</time>
      </trkpt>
      <trkpt lat="43.91119" lon="7.23141">
        <ele>1218</ele>
        <time>2012-05-17T10:18:39Z</time>
      </trkpt>
      <trkpt lat="43.9112" lon="7.23131">
        <ele>1219</ele>
        <time>2012-05-17T10:18:46Z</time>
      </trkpt>
      <trkpt lat="43.91114" lon="7.23112">
        <ele>1220</ele>
        <time>2012-05-17T10:18:54Z</time>
      </trkpt>
      <trkpt lat="43.91113" lon="7.23098">
        <ele>1221</ele>
        <time>2012-05-17T10:19:00Z</time>
      </trkpt>
      <trkpt lat="43.91113" lon="7.23083">
        <ele>1221</ele>
        <time>2012-05-17T10:19:08Z</time>
      </trkpt>
      <trkpt lat="43.9111" lon="7.23069">
        <ele>1222</ele>
        <time>2012-05-17T10:19:15Z</time>
      </trkpt>
      <trkpt lat="43.91104" lon="7.2306">
        <ele>1223</ele>
        <time>2012-05-17T10:19:22Z</time>
      </trkpt>
      <trkpt lat="43.91096" lon="7.23046">
        <ele>1224</ele>
        <time>2012-05-17T10:19:29Z</time>
      </trkpt>
      <trkpt lat="43.91091" lon="7.23033">
        <ele>1224</ele>
        <time>2012-05-17T10:19:37Z</time>
      </trkpt>
      <trkpt lat="43.91088" lon="7.2302">
        <ele>1225</ele>
        <time>2012-05-17T10:19:44Z</time>
      </trkpt>
      <trkpt lat="43.91086" lon="7.23014">
        <ele>1225</ele>
        <time>2012-05-17T10:19:51Z</time>
      </trkpt>
      <trkpt lat="43.91083" lon="7.23003">
        <ele>1226</ele>
        <time>2012-05-17T10:19:59Z</time>
      </trkpt>
      <trkpt lat="43.91083" lon="7.23003">
        <ele>1226</ele>
        <time>2012-05-17T10:20:07Z</time>
      </trkpt>
      <trkpt lat="43.91083" lon="7.23003">
        <ele>1226</ele>
        <time>2012-05-17T10:20:14Z</time>
      </trkpt>
      <trkpt lat="43.91083" lon="7.23003">
        <ele>1226</ele>
        <time>2012-05-17T10:20:21Z</time>
      </trkpt>
      <trkpt lat="43.91083" lon="7.23003">
        <ele>1226</ele>
        <time>2012-05-17T10:20:29Z</time>
      </trkpt>
      <trkpt lat="43.91083" lon="7.23003">
        <ele>1226</ele>
        <time>2012-05-17T10:20:36Z</time>
      </trkpt>
      <trkpt lat="43.91083" lon="7.23003">
        <ele>1226</ele>
        <time>2012-05-17T10:20:42Z</time>
      </trkpt>
      <trkpt lat="43.91083" lon="7.23003">
        <ele>1226</ele>
        <time>2012-05-17T10:20:49Z</time>
      </trkpt>
      <trkpt lat="43.91083" lon="7.23003">
        <ele>1226</ele>
        <time>2012-05-17T10:20:57Z</time>
      </trkpt>
      <trkpt lat="43.91083" lon="7.23003">
        <ele>1226</ele>
        <time>2012-05-17T10:21:05Z</time>
      </trkpt>
      <trkpt lat="43.91083" lon="7.23003">
        <ele>1226</ele>
        <time>2012-05-17T10:21:12Z</time>
      </trkpt>
      <trkpt lat="43.91083" lon="7.23003">
        <ele>1226</ele>
        <time>2012-05-17T10:21:19Z</time>
      </trkpt>
      <trkpt lat="43.91083" lon="7.23003">
        <ele>1226</ele>
        <time>2012-05-17T10:21:27Z</time>
      </trkpt>
      <trkpt lat="43.91083" lon="7.23003">
        <ele>1226</ele>
        <time>2012-05-17T10:21:35Z</time>
      </trkpt>
      <trkpt lat="43.91083" lon="7.23003">
        <ele>1226</ele>
        <time>2012-05-17T10:21:42Z</time>
      </trkpt>
      <trkpt lat="43.91083" lon="7.23003">
        <ele>1226</ele>
        <time>2012-05-17T10:21:49Z</time>
      </trkpt>
      <trkpt lat="43.91083" lon="7.23003">
        <ele>1226</ele>
        <time>2012-05-17T10:21:56Z</time>
      </trkpt>
      <trkpt lat="43.91083" lon="7.23003">
        <ele>1226</ele>
        <time>2012-05-17T10:22:03Z</time>
      </trkpt>
      <trkpt lat="43.91083" lon="7.23003">
        <ele>1226</ele>
        <time>2012-05-17T10:22:10Z</time>
      </trkpt>
      <trkpt lat="43.91083" lon="7.23003">
        <ele>1226</ele>
        <time>2012-05-17T10:22:17Z</time>
      </trkpt>
      <trkpt lat="43.91083" lon="7.23003">
        <ele>1226</ele>
        <time>2012-05-17T10:22:25Z</time>
      </trkpt>
      <trkpt lat="43.91083" lon="7.23003">
        <ele>1226</ele>
        <time>2012-05-17T10:22:32Z</time>
      </trkpt>
      <trkpt lat="43.91083" lon="7.23003">
        <ele>1226</ele>
        <time>2012-05-17T10:22:39Z</time>
      </trkpt>
      <trkpt lat="43.91083" lon="7.23003">
        <ele>1226</ele>
        <time>2012-05-17T10:22:46Z</time>
      </trkpt>
      <trkpt lat="43.91083" lon="7.23003">
        <ele>1226</ele>
        <time>2012-05-17T10:22:53Z</time>
      </trkpt>
      <trkpt lat="43.91083" lon="7.23003">
        <ele>1226</ele>
        <time>2012-05-17T10:23:01Z</time>
      </trkpt>
      <trkpt lat="43.91083" lon="7.23003">
        <ele>1226</ele>
        <time>2012-05-17T10:23:07Z</time>
      </trkpt>
      <trkpt lat="43.91083" lon="7.23003">
        <ele>1226</ele>
        <time>2012-05-17T10:23:14Z</time>
      </trkpt>
      <trkpt lat="43.91083" lon="7.23003">
        <ele>1226</ele>
        <time>2012-05-17T10:23:22Z</time>
      </trkpt>
      <trkpt lat="43.91083" lon="7.23003">
        <ele>1226</ele>
        <time>2012-05-17T10:23:29Z</time>
      </trkpt>
      <trkpt lat="43.91083" lon="7.23003">
        <ele>1226</ele>
        <time>2012-05-17T10:23:36Z</time>
      </trkpt>
      <trkpt lat="43.91083" lon="7.23003">
        <ele>1226</ele>
        <time>2012-05-17T10:23:42Z</time>
      </trkpt>
      <trkpt lat="43.91083" lon="7.23003">
        <ele>1226</ele>
        <time>2012-05-17T10:23:49Z</time>
      </trkpt>
      <trkpt lat="43.91083" lon="7.23003">
        <ele>1226</ele>
        <time>2012-05-17T10:23:57Z</time>
      </trkpt>
      <trkpt lat="43.91083" lon="7.23003">
        <ele>1226</ele>
        <time>2012-05-17T10:24:04Z</time>
      </trkpt>
      <trkpt lat="43.91083" lon="7.23003">
        <ele>1226</ele>
        <time>2012-05-17T10:24:12Z</time>
      </trkpt>
      <trkpt lat="43.91083" lon="7.23003">
        <ele>1226</ele>
        <time>2012-05-17T10:24:18Z</time>
      </trkpt>
      <trkpt lat="43.9108" lon="7.22992">
        <ele>1228</ele>
        <time>2012-05-17T10:24:25Z</time>
      </trkpt>
      <trkpt lat="43.9107" lon="7.2297">
        <ele>1227</ele>
        <time>2012-05-17T10:24:32Z</time>
      </trkpt>
      <trkpt lat="43.91065" lon="7.22948">
        <ele>1227</ele>
        <time>2012-05-17T10:24:39Z</time>
      </trkpt>
      <trkpt lat="43.91048" lon="7.22925">
        <ele>1226</ele>
        <time>2012-05-17T10:24:46Z</time>
      </trkpt>
      <trkpt lat="43.91026" lon="7.22896">
        <ele>1226</ele>
        <time>2012-05-17T10:24:53Z</time>
      </trkpt>
      <trkpt lat="43.91006" lon="7.22868">
        <ele>1226</ele>
        <time>2012-05-17T10:25:00Z</time>
      </trkpt>
      <trkpt lat="43.90983" lon="7.22848">
        <ele>1225</ele>
        <time>2012-05-17T10:25:08Z</time>
      </trkpt>
      <trkpt lat="43.90979" lon="7.22835">
        <ele>1225</ele>
        <time>2012-05-17T10:25:15Z</time>
      </trkpt>
      <trkpt lat="43.90978" lon="7.22828">
        <ele>1225</ele>
        <time>2012-05-17T10:25:22Z</time>
      </trkpt>
      <trkpt lat="43.90977" lon="7.22826">
        <ele>1225</ele>
        <time>2012-05-17T10:25:29Z</time>
      </trkpt>
      <trkpt lat="43.90977" lon="7.22824">
        <ele>1225</ele>
        <time>2012-05-17T10:25:37Z</time>
      </trkpt>
      <trkpt lat="43.90977" lon="7.22825">
        <ele>1225</ele>
        <time>2012-05-17T10:25:44Z</time>
      </trkpt>
      <trkpt lat="43.90977" lon="7.22824">
        <ele>1225</ele>
        <time>2012-05-17T10:25:51Z</time>
      </trkpt>
      <trkpt lat="43.90977" lon="7.22824">
        <ele>1225</ele>
        <time>2012-05-17T10:25:59Z</time>
      </trkpt>
      <trkpt lat="43.90977" lon="7.22824">
        <ele>1225</ele>
        <time>2012-05-17T10:26:06Z</time>
      </trkpt>
      <trkpt lat="43.90977" lon="7.22825">
        <ele>1225</ele>
        <time>2012-05-17T10:26:12Z</time>
      </trkpt>
      <trkpt lat="43.90977" lon="7.22824">
        <ele>1225</ele>
        <time>2012-05-17T10:26:20Z</time>
      </trkpt>
      <trkpt lat="43.90977" lon="7.22825">
        <ele>1225</ele>
        <time>2012-05-17T10:26:28Z</time>
      </trkpt>
      <trkpt lat="43.90977" lon="7.22825">
        <ele>1225</ele>
        <time>2012-05-17T10:26:35Z</time>
      </trkpt>
      <trkpt lat="43.90977" lon="7.22825">
        <ele>1225</ele>
        <time>2012-05-17T10:26:42Z</time>
      </trkpt>
      <trkpt lat="43.90977" lon="7.22825">
        <ele>1225</ele>
        <time>2012-05-17T10:26:49Z</time>
      </trkpt>
      <trkpt lat="43.90977" lon="7.22825">
        <ele>1225</ele>
        <time>2012-05-17T10:26:56Z</time>
      </trkpt>
      <trkpt lat="43.90977" lon="7.22824">
        <ele>1225</ele>
        <time>2012-05-17T10:27:03Z</time>
      </trkpt>
      <trkpt lat="43.90977" lon="7.22825">
        <ele>1225</ele>
        <time>2012-05-17T10:27:10Z</time>
      </trkpt>
      <trkpt lat="43.9096" lon="7.22792">
        <ele>1219</ele>
        <time>2012-05-17T10:27:17Z</time>
      </trkpt>
      <trkpt lat="43.90956" lon="7.22784">
        <ele>1219</ele>
        <time>2012-05-17T10:27:25Z</time>
      </trkpt>
      <trkpt lat="43.90956" lon="7.22784">
        <ele>1219</ele>
        <time>2012-05-17T10:27:33Z</time>
      </trkpt>
      <trkpt lat="43.90954" lon="7.22783">
        <ele>1219</ele>
        <time>2012-05-17T10:27:40Z</time>
      </trkpt>
      <trkpt lat="43.90955" lon="7.22783">
        <ele>1219</ele>
        <time>2012-05-17T10:27:47Z</time>
      </trkpt>
      <trkpt lat="43.90956" lon="7.22783">
        <ele>1219</ele>
        <time>2012-05-17T10:27:55Z</time>
      </trkpt>
      <trkpt lat="43.90956" lon="7.22783">
        <ele>1219</ele>
        <time>2012-05-17T10:28:02Z</time>
      </trkpt>
      <trkpt lat="43.90956" lon="7.22783">
        <ele>1219</ele>
        <time>2012-05-17T10:28:09Z</time>
      </trkpt>
      <trkpt lat="43.90956" lon="7.22783">
        <ele>1219</ele>
        <time>2012-05-17T10:28:17Z</time>
      </trkpt>
      <trkpt lat="43.90955" lon="7.22782">
        <ele>1218</ele>
        <time>2012-05-17T10:28:23Z</time>
      </trkpt>
      <trkpt lat="43.90947" lon="7.22737">
        <ele>1214</ele>
        <time>2012-05-17T10:28:31Z</time>
      </trkpt>
      <trkpt lat="43.90946" lon="7.22732">
        <ele>1214</ele>
        <time>2012-05-17T10:28:38Z</time>
      </trkpt>
      <trkpt lat="43.90946" lon="7.22732">
        <ele>1214</ele>
        <time>2012-05-17T10:28:46Z</time>
      </trkpt>
      <trkpt lat="43.90947" lon="7.22732">
        <ele>1214</ele>
        <time>2012-05-17T10:28:53Z</time>
      </trkpt>
      <trkpt lat="43.90946" lon="7.2273">
        <ele>1214</ele>
        <time>2012-05-17T10:29:01Z</time>
      </trkpt>
      <trkpt lat="43.90946" lon="7.2273">
        <ele>1214</ele>
        <time>2012-05-17T10:29:07Z</time>
      </trkpt>
      <trkpt lat="43.90945" lon="7.2273">
        <ele>1214</ele>
        <time>2012-05-17T10:29:14Z</time>
      </trkpt>
      <trkpt lat="43.90946" lon="7.2273">
        <ele>1214</ele>
        <time>2012-05-17T10:29:22Z</time>
      </trkpt>
      <trkpt lat="43.90941" lon="7.22724">
        <ele>1208</ele>
        <time>2012-05-17T10:29:28Z</time>
      </trkpt>
      <trkpt lat="43.90925" lon="7.22691">
        <ele>1208</ele>
        <time>2012-05-17T10:29:35Z</time>
      </trkpt>
      <trkpt lat="43.90924" lon="7.22688">
        <ele>1208</ele>
        <time>2012-05-17T10:29:42Z</time>
      </trkpt>
      <trkpt lat="43.90919" lon="7.22682">
        <ele>1205</ele>
        <time>2012-05-17T10:29:48Z</time>
      </trkpt>
      <trkpt lat="43.90905" lon="7.22669">
        <ele>1203</ele>
        <time>2012-05-17T10:29:55Z</time>
      </trkpt>
      <trkpt lat="43.9089" lon="7.22657">
        <ele>1200</ele>
        <time>2012-05-17T10:30:02Z</time>
      </trkpt>
      <trkpt lat="43.90875" lon="7.22653">
        <ele>1197</ele>
        <time>2012-05-17T10:30:09Z</time>
      </trkpt>
      <trkpt lat="43.90865" lon="7.22644">
        <ele>1195</ele>
        <time>2012-05-17T10:30:16Z</time>
      </trkpt>
      <trkpt lat="43.90854" lon="7.22633">
        <ele>1191</ele>
        <time>2012-05-17T10:30:23Z</time>
      </trkpt>
      <trkpt lat="43.90843" lon="7.22628">
        <ele>1187</ele>
        <time>2012-05-17T10:30:30Z</time>
      </trkpt>
      <trkpt lat="43.90828" lon="7.22615">
        <ele>1183</ele>
        <time>2012-05-17T10:30:37Z</time>
      </trkpt>
      <trkpt lat="43.90806" lon="7.22589">
        <ele>1178</ele>
        <time>2012-05-17T10:30:44Z</time>
      </trkpt>
      <trkpt lat="43.90783" lon="7.22562">
        <ele>1173</ele>
        <time>2012-05-17T10:30:51Z</time>
      </trkpt>
      <trkpt lat="43.9077" lon="7.2255">
        <ele>1169</ele>
        <time>2012-05-17T10:30:58Z</time>
      </trkpt>
      <trkpt lat="43.90762" lon="7.22539">
        <ele>1165</ele>
        <time>2012-05-17T10:31:05Z</time>
      </trkpt>
      <trkpt lat="43.90757" lon="7.22533">
        <ele>1164</ele>
        <time>2012-05-17T10:31:13Z</time>
      </trkpt>
      <trkpt lat="43.90756" lon="7.22531">
        <ele>1164</ele>
        <time>2012-05-17T10:31:20Z</time>
      </trkpt>
      <trkpt lat="43.90757" lon="7.22531">
        <ele>1164</ele>
        <time>2012-05-17T10:31:26Z</time>
      </trkpt>
      <trkpt lat="43.90756" lon="7.22531">
        <ele>1164</ele>
        <time>2012-05-17T10:31:33Z</time>
      </trkpt>
      <trkpt lat="43.90745" lon="7.2252">
        <ele>1156</ele>
        <time>2012-05-17T10:31:40Z</time>
      </trkpt>
      <trkpt lat="43.90725" lon="7.22504">
        <ele>1153</ele>
        <time>2012-05-17T10:31:47Z</time>
      </trkpt>
      <trkpt lat="43.90708" lon="7.22496">
        <ele>1150</ele>
        <time>2012-05-17T10:31:54Z</time>
      </trkpt>
      <trkpt lat="43.90691" lon="7.22486">
        <ele>1146</ele>
        <time>2012-05-17T10:32:02Z</time>
      </trkpt>
      <trkpt lat="43.90678" lon="7.22474">
        <ele>1142</ele>
        <time>2012-05-17T10:32:09Z</time>
      </trkpt>
      <trkpt lat="43.90667" lon="7.22464">
        <ele>1137</ele>
        <time>2012-05-17T10:32:17Z</time>
      </trkpt>
      <trkpt lat="43.90659" lon="7.22452">
        <ele>1134</ele>
        <time>2012-05-17T10:32:24Z</time>
      </trkpt>
      <trkpt lat="43.90651" lon="7.22444">
        <ele>1129</ele>
        <time>2012-05-17T10:32:31Z</time>
      </trkpt>
      <trkpt lat="43.90635" lon="7.22446">
        <ele>1124</ele>
        <time>2012-05-17T10:32:38Z</time>
      </trkpt>
      <trkpt lat="43.9063" lon="7.22452">
        <ele>1122</ele>
        <time>2012-05-17T10:32:45Z</time>
      </trkpt>
      <trkpt lat="43.9063" lon="7.22453">
        <ele>1122</ele>
        <time>2012-05-17T10:32:52Z</time>
      </trkpt>
      <trkpt lat="43.9063" lon="7.22453">
        <ele>1122</ele>
        <time>2012-05-17T10:33:00Z</time>
      </trkpt>
      <trkpt lat="43.9063" lon="7.22453">
        <ele>1122</ele>
        <time>2012-05-17T10:33:07Z</time>
      </trkpt>
      <trkpt lat="43.9063" lon="7.22453">
        <ele>1122</ele>
        <time>2012-05-17T10:33:15Z</time>
      </trkpt>
      <trkpt lat="43.9063" lon="7.22453">
        <ele>1122</ele>
        <time>2012-05-17T10:33:22Z</time>
      </trkpt>
      <trkpt lat="43.9063" lon="7.22453">
        <ele>1122</ele>
        <time>2012-05-17T10:33:28Z</time>
      </trkpt>
      <trkpt lat="43.9063" lon="7.22453">
        <ele>1122</ele>
        <time>2012-05-17T10:33:36Z</time>
      </trkpt>
      <trkpt lat="43.9063" lon="7.22453">
        <ele>1122</ele>
        <time>2012-05-17T10:33:43Z</time>
      </trkpt>
      <trkpt lat="43.9063" lon="7.22453">
        <ele>1122</ele>
        <time>2012-05-17T10:33:50Z</time>
      </trkpt>
      <trkpt lat="43.9063" lon="7.22453">
        <ele>1122</ele>
        <time>2012-05-17T10:33:57Z</time>
      </trkpt>
      <trkpt lat="43.9063" lon="7.22453">
        <ele>1122</ele>
        <time>2012-05-17T10:34:05Z</time>
      </trkpt>
      <trkpt lat="43.90627" lon="7.22453">
        <ele>1117</ele>
        <time>2012-05-17T10:34:13Z</time>
      </trkpt>
      <trkpt lat="43.90613" lon="7.22445">
        <ele>1111</ele>
        <time>2012-05-17T10:34:20Z</time>
      </trkpt>
      <trkpt lat="43.90599" lon="7.22431">
        <ele>1107</ele>
        <time>2012-05-17T10:34:28Z</time>
      </trkpt>
      <trkpt lat="43.90585" lon="7.22417">
        <ele>1102</ele>
        <time>2012-05-17T10:34:36Z</time>
      </trkpt>
      <trkpt lat="43.90579" lon="7.22415">
        <ele>1099</ele>
        <time>2012-05-17T10:34:43Z</time>
      </trkpt>
      <trkpt lat="43.90573" lon="7.22413">
        <ele>1095</ele>
        <time>2012-05-17T10:34:49Z</time>
      </trkpt>
      <trkpt lat="43.90563" lon="7.22413">
        <ele>1090</ele>
        <time>2012-05-17T10:34:56Z</time>
      </trkpt>
      <trkpt lat="43.90557" lon="7.22418">
        <ele>1088</ele>
        <time>2012-05-17T10:35:03Z</time>
      </trkpt>
      <trkpt lat="43.90544" lon="7.22422">
        <ele>1083</ele>
        <time>2012-05-17T10:35:11Z</time>
      </trkpt>
      <trkpt lat="43.90538" lon="7.22421">
        <ele>1080</ele>
        <time>2012-05-17T10:35:19Z</time>
      </trkpt>
      <trkpt lat="43.90536" lon="7.2242">
        <ele>1077</ele>
        <time>2012-05-17T10:35:25Z</time>
      </trkpt>
      <trkpt lat="43.90521" lon="7.22411">
        <ele>1070</ele>
        <time>2012-05-17T10:35:33Z</time>
      </trkpt>
      <trkpt lat="43.90512" lon="7.22402">
        <ele>1065</ele>
        <time>2012-05-17T10:35:40Z</time>
      </trkpt>
      <trkpt lat="43.90503" lon="7.22396">
        <ele>1057</ele>
        <time>2012-05-17T10:35:47Z</time>
      </trkpt>
      <trkpt lat="43.90493" lon="7.22379">
        <ele>1052</ele>
        <time>2012-05-17T10:35:55Z</time>
      </trkpt>
      <trkpt lat="43.90478" lon="7.22377">
        <ele>1048</ele>
        <time>2012-05-17T10:36:02Z</time>
      </trkpt>
      <trkpt lat="43.90439" lon="7.22363">
        <ele>1043</ele>
        <time>2012-05-17T10:36:09Z</time>
      </trkpt>
      <trkpt lat="43.90397" lon="7.22354">
        <ele>1037</ele>
        <time>2012-05-17T10:36:15Z</time>
      </trkpt>
      <trkpt lat="43.90351" lon="7.22342">
        <ele>1030</ele>
        <time>2012-05-17T10:36:23Z</time>
      </trkpt>
      <trkpt lat="43.90282" lon="7.22357">
        <ele>1027</ele>
        <time>2012-05-17T10:36:30Z</time>
      </trkpt>
      <trkpt lat="43.90232" lon="7.2239">
        <ele>1022</ele>
        <time>2012-05-17T10:36:37Z</time>
      </trkpt>
      <trkpt lat="43.90213" lon="7.22417">
        <ele>1020</ele>
        <time>2012-05-17T10:36:43Z</time>
      </trkpt>
      <trkpt lat="43.90203" lon="7.22442">
        <ele>1019</ele>
        <time>2012-05-17T10:36:50Z</time>
      </trkpt>
      <trkpt lat="43.90188" lon="7.22459">
        <ele>1019</ele>
        <time>2012-05-17T10:36:57Z</time>
      </trkpt>
      <trkpt lat="43.9019" lon="7.22496">
        <ele>1017</ele>
        <time>2012-05-17T10:37:05Z</time>
      </trkpt>
      <trkpt lat="43.90195" lon="7.22528">
        <ele>1016</ele>
        <time>2012-05-17T10:37:13Z</time>
      </trkpt>
      <trkpt lat="43.9019" lon="7.22548">
        <ele>1018</ele>
        <time>2012-05-17T10:37:21Z</time>
      </trkpt>
      <trkpt lat="43.90183" lon="7.22545">
        <ele>1021</ele>
        <time>2012-05-17T10:37:28Z</time>
      </trkpt>
      <trkpt lat="43.90183" lon="7.22535">
        <ele>1023</ele>
        <time>2012-05-17T10:37:35Z</time>
      </trkpt>
      <trkpt lat="43.90171" lon="7.22525">
        <ele>1024</ele>
        <time>2012-05-17T10:37:43Z</time>
      </trkpt>
      <trkpt lat="43.9016" lon="7.22531">
        <ele>1026</ele>
        <time>2012-05-17T10:37:49Z</time>
      </trkpt>
      <trkpt lat="43.90153" lon="7.2254">
        <ele>1028</ele>
        <time>2012-05-17T10:37:55Z</time>
      </trkpt>
      <trkpt lat="43.90151" lon="7.22541">
        <ele>1028</ele>
        <time>2012-05-17T10:38:03Z</time>
      </trkpt>
      <trkpt lat="43.90141" lon="7.22551">
        <ele>1031</ele>
        <time>2012-05-17T10:38:11Z</time>
      </trkpt>
      <trkpt lat="43.90139" lon="7.22556">
        <ele>1031</ele>
        <time>2012-05-17T10:38:17Z</time>
      </trkpt>
      <trkpt lat="43.90139" lon="7.22556">
        <ele>1031</ele>
        <time>2012-05-17T10:38:24Z</time>
      </trkpt>
      <trkpt lat="43.90139" lon="7.22556">
        <ele>1031</ele>
        <time>2012-05-17T10:38:32Z</time>
      </trkpt>
      <trkpt lat="43.90139" lon="7.22556">
        <ele>1031</ele>
        <time>2012-05-17T10:38:39Z</time>
      </trkpt>
      <trkpt lat="43.90139" lon="7.22556">
        <ele>1031</ele>
        <time>2012-05-17T10:38:46Z</time>
      </trkpt>
      <trkpt lat="43.90137" lon="7.22556">
        <ele>1036</ele>
        <time>2012-05-17T10:38:53Z</time>
      </trkpt>
      <trkpt lat="43.90111" lon="7.2254">
        <ele>1049</ele>
        <time>2012-05-17T10:39:01Z</time>
      </trkpt>
      <trkpt lat="43.90107" lon="7.22538">
        <ele>1049</ele>
        <time>2012-05-17T10:39:07Z</time>
      </trkpt>
      <trkpt lat="43.90107" lon="7.22536">
        <ele>1049</ele>
        <time>2012-05-17T10:39:14Z</time>
      </trkpt>
      <trkpt lat="43.90107" lon="7.22537">
        <ele>1049</ele>
        <time>2012-05-17T10:39:21Z</time>
      </trkpt>
      <trkpt lat="43.90103" lon="7.22535">
        <ele>1053</ele>
        <time>2012-05-17T10:39:29Z</time>
      </trkpt>
      <trkpt lat="43.90067" lon="7.22525">
        <ele>1055</ele>
        <time>2012-05-17T10:39:37Z</time>
      </trkpt>
      <trkpt lat="43.90065" lon="7.22525">
        <ele>1055</ele>
        <time>2012-05-17T10:39:44Z</time>
      </trkpt>
      <trkpt lat="43.90065" lon="7.22525">
        <ele>1055</ele>
        <time>2012-05-17T10:39:51Z</time>
      </trkpt>
      <trkpt lat="43.90064" lon="7.22525">
        <ele>1057</ele>
        <time>2012-05-17T10:39:58Z</time>
      </trkpt>
      <trkpt lat="43.90033" lon="7.22536">
        <ele>1062</ele>
        <time>2012-05-17T10:40:05Z</time>
      </trkpt>
      <trkpt lat="43.90026" lon="7.22539">
        <ele>1062</ele>
        <time>2012-05-17T10:40:11Z</time>
      </trkpt>
      <trkpt lat="43.90025" lon="7.2254">
        <ele>1062</ele>
        <time>2012-05-17T10:40:18Z</time>
      </trkpt>
      <trkpt lat="43.90025" lon="7.2254">
        <ele>1062</ele>
        <time>2012-05-17T10:40:25Z</time>
      </trkpt>
      <trkpt lat="43.90025" lon="7.2254">
        <ele>1064</ele>
        <time>2012-05-17T10:40:33Z</time>
      </trkpt>
      <trkpt lat="43.90007" lon="7.22579">
        <ele>1070</ele>
        <time>2012-05-17T10:40:41Z</time>
      </trkpt>
      <trkpt lat="43.90005" lon="7.22584">
        <ele>1070</ele>
        <time>2012-05-17T10:40:47Z</time>
      </trkpt>
      <trkpt lat="43.89991" lon="7.22592">
        <ele>1074</ele>
        <time>2012-05-17T10:40:55Z</time>
      </trkpt>
      <trkpt lat="43.89972" lon="7.22597">
        <ele>1074</ele>
        <time>2012-05-17T10:41:02Z</time>
      </trkpt>
      <trkpt lat="43.89969" lon="7.22598">
        <ele>1074</ele>
        <time>2012-05-17T10:41:09Z</time>
      </trkpt>
      <trkpt lat="43.8997" lon="7.22598">
        <ele>1074</ele>
        <time>2012-05-17T10:41:17Z</time>
      </trkpt>
      <trkpt lat="43.8997" lon="7.22598">
        <ele>1074</ele>
        <time>2012-05-17T10:41:25Z</time>
      </trkpt>
      <trkpt lat="43.8996" lon="7.22604">
        <ele>1080</ele>
        <time>2012-05-17T10:41:32Z</time>
      </trkpt>
      <trkpt lat="43.8994" lon="7.22619">
        <ele>1079</ele>
        <time>2012-05-17T10:41:38Z</time>
      </trkpt>
      <trkpt lat="43.89927" lon="7.22632">
        <ele>1079</ele>
        <time>2012-05-17T10:41:45Z</time>
      </trkpt>
      <trkpt lat="43.8992" lon="7.22644">
        <ele>1080</ele>
        <time>2012-05-17T10:41:52Z</time>
      </trkpt>
      <trkpt lat="43.89916" lon="7.22655">
        <ele>1080</ele>
        <time>2012-05-17T10:41:59Z</time>
      </trkpt>
      <trkpt lat="43.89916" lon="7.22656">
        <ele>1080</ele>
        <time>2012-05-17T10:42:06Z</time>
      </trkpt>
      <trkpt lat="43.89916" lon="7.22655">
        <ele>1080</ele>
        <time>2012-05-17T10:42:14Z</time>
      </trkpt>
      <trkpt lat="43.89897" lon="7.22674">
        <ele>1087</ele>
        <time>2012-05-17T10:42:21Z</time>
      </trkpt>
      <trkpt lat="43.89876" lon="7.22689">
        <ele>1088</ele>
        <time>2012-05-17T10:42:28Z</time>
      </trkpt>
      <trkpt lat="43.89869" lon="7.22695">
        <ele>1088</ele>
        <time>2012-05-17T10:42:35Z</time>
      </trkpt>
      <trkpt lat="43.89863" lon="7.22695">
        <ele>1088</ele>
        <time>2012-05-17T10:42:41Z</time>
      </trkpt>
      <trkpt lat="43.89863" lon="7.22694">
        <ele>1088</ele>
        <time>2012-05-17T10:42:48Z</time>
      </trkpt>
      <trkpt lat="43.89862" lon="7.22694">
        <ele>1088</ele>
        <time>2012-05-17T10:42:55Z</time>
      </trkpt>
      <trkpt lat="43.89862" lon="7.22694">
        <ele>1088</ele>
        <time>2012-05-17T10:43:02Z</time>
      </trkpt>
      <trkpt lat="43.89863" lon="7.22694">
        <ele>1088</ele>
        <time>2012-05-17T10:43:09Z</time>
      </trkpt>
      <trkpt lat="43.89863" lon="7.22694">
        <ele>1088</ele>
        <time>2012-05-17T10:43:17Z</time>
      </trkpt>
      <trkpt lat="43.89863" lon="7.22694">
        <ele>1088</ele>
        <time>2012-05-17T10:43:25Z</time>
      </trkpt>
      <trkpt lat="43.89861" lon="7.22691">
        <ele>1088</ele>
        <time>2012-05-17T10:43:33Z</time>
      </trkpt>
      <trkpt lat="43.89856" lon="7.2265">
        <ele>1090</ele>
        <time>2012-05-17T10:43:40Z</time>
      </trkpt>
      <trkpt lat="43.89862" lon="7.22633">
        <ele>1090</ele>
        <time>2012-05-17T10:43:47Z</time>
      </trkpt>
      <trkpt lat="43.89871" lon="7.22617">
        <ele>1090</ele>
        <time>2012-05-17T10:43:54Z</time>
      </trkpt>
      <trkpt lat="43.89876" lon="7.22602">
        <ele>1090</ele>
        <time>2012-05-17T10:44:00Z</time>
      </trkpt>
      <trkpt lat="43.89878" lon="7.22582">
        <ele>1092</ele>
        <time>2012-05-17T10:44:08Z</time>
      </trkpt>
      <trkpt lat="43.89877" lon="7.22563">
        <ele>1093</ele>
        <time>2012-05-17T10:44:14Z</time>
      </trkpt>
      <trkpt lat="43.89881" lon="7.22545">
        <ele>1093</ele>
        <time>2012-05-17T10:44:22Z</time>
      </trkpt>
      <trkpt lat="43.89884" lon="7.22534">
        <ele>1092</ele>
        <time>2012-05-17T10:44:29Z</time>
      </trkpt>
      <trkpt lat="43.89888" lon="7.22521">
        <ele>1094</ele>
        <time>2012-05-17T10:44:36Z</time>
      </trkpt>
      <trkpt lat="43.89892" lon="7.22499">
        <ele>1095</ele>
        <time>2012-05-17T10:44:44Z</time>
      </trkpt>
      <trkpt lat="43.89892" lon="7.22481">
        <ele>1096</ele>
        <time>2012-05-17T10:44:51Z</time>
      </trkpt>
      <trkpt lat="43.89885" lon="7.22467">
        <ele>1098</ele>
        <time>2012-05-17T10:44:58Z</time>
      </trkpt>
      <trkpt lat="43.89882" lon="7.22446">
        <ele>1099</ele>
        <time>2012-05-17T10:45:06Z</time>
      </trkpt>
      <trkpt lat="43.89881" lon="7.22428">
        <ele>1099</ele>
        <time>2012-05-17T10:45:14Z</time>
      </trkpt>
      <trkpt lat="43.89878" lon="7.22412">
        <ele>1101</ele>
        <time>2012-05-17T10:45:21Z</time>
      </trkpt>
      <trkpt lat="43.89876" lon="7.22394">
        <ele>1102</ele>
        <time>2012-05-17T10:45:28Z</time>
      </trkpt>
      <trkpt lat="43.89874" lon="7.22381">
        <ele>1103</ele>
        <time>2012-05-17T10:45:35Z</time>
      </trkpt>
      <trkpt lat="43.89865" lon="7.22363">
        <ele>1104</ele>
        <time>2012-05-17T10:45:42Z</time>
      </trkpt>
      <trkpt lat="43.89855" lon="7.22345">
        <ele>1104</ele>
        <time>2012-05-17T10:45:49Z</time>
      </trkpt>
      <trkpt lat="43.89843" lon="7.22322">
        <ele>1104</ele>
        <time>2012-05-17T10:45:56Z</time>
      </trkpt>
      <trkpt lat="43.89836" lon="7.22292">
        <ele>1104</ele>
        <time>2012-05-17T10:46:04Z</time>
      </trkpt>
      <trkpt lat="43.89827" lon="7.22263">
        <ele>1104</ele>
        <time>2012-05-17T10:46:11Z</time>
      </trkpt>
      <trkpt lat="43.89821" lon="7.22232">
        <ele>1104</ele>
        <time>2012-05-17T10:46:18Z</time>
      </trkpt>
      <trkpt lat="43.89815" lon="7.22206">
        <ele>1104</ele>
        <time>2012-05-17T10:46:24Z</time>
      </trkpt>
      <trkpt lat="43.89807" lon="7.22182">
        <ele>1104</ele>
        <time>2012-05-17T10:46:31Z</time>
      </trkpt>
      <trkpt lat="43.89794" lon="7.2216">
        <ele>1105</ele>
        <time>2012-05-17T10:46:38Z</time>
      </trkpt>
      <trkpt lat="43.89783" lon="7.22134">
        <ele>1105</ele>
        <time>2012-05-17T10:46:46Z</time>
      </trkpt>
      <trkpt lat="43.8978" lon="7.22111">
        <ele>1106</ele>
        <time>2012-05-17T10:46:53Z</time>
      </trkpt>
      <trkpt lat="43.89777" lon="7.22087">
        <ele>1106</ele>
        <time>2012-05-17T10:47:00Z</time>
      </trkpt>
      <trkpt lat="43.89773" lon="7.22059">
        <ele>1106</ele>
        <time>2012-05-17T10:47:07Z</time>
      </trkpt>
      <trkpt lat="43.89767" lon="7.22029">
        <ele>1107</ele>
        <time>2012-05-17T10:47:15Z</time>
      </trkpt>
      <trkpt lat="43.89756" lon="7.22005">
        <ele>1107</ele>
        <time>2012-05-17T10:47:22Z</time>
      </trkpt>
      <trkpt lat="43.89746" lon="7.21984">
        <ele>1108</ele>
        <time>2012-05-17T10:47:28Z</time>
      </trkpt>
      <trkpt lat="43.89738" lon="7.21961">
        <ele>1107</ele>
        <time>2012-05-17T10:47:35Z</time>
      </trkpt>
      <trkpt lat="43.89731" lon="7.2194">
        <ele>1108</ele>
        <time>2012-05-17T10:47:41Z</time>
      </trkpt>
      <trkpt lat="43.8972" lon="7.21917">
        <ele>1108</ele>
        <time>2012-05-17T10:47:48Z</time>
      </trkpt>
      <trkpt lat="43.8971" lon="7.21888">
        <ele>1107</ele>
        <time>2012-05-17T10:47:55Z</time>
      </trkpt>
      <trkpt lat="43.89701" lon="7.21859">
        <ele>1107</ele>
        <time>2012-05-17T10:48:03Z</time>
      </trkpt>
      <trkpt lat="43.89692" lon="7.21826">
        <ele>1106</ele>
        <time>2012-05-17T10:48:11Z</time>
      </trkpt>
      <trkpt lat="43.89679" lon="7.21801">
        <ele>1104</ele>
        <time>2012-05-17T10:48:19Z</time>
      </trkpt>
      <trkpt lat="43.89679" lon="7.21781">
        <ele>1103</ele>
        <time>2012-05-17T10:48:27Z</time>
      </trkpt>
      <trkpt lat="43.89674" lon="7.21774">
        <ele>1102</ele>
        <time>2012-05-17T10:48:34Z</time>
      </trkpt>
      <trkpt lat="43.89666" lon="7.2177">
        <ele>1101</ele>
        <time>2012-05-17T10:48:41Z</time>
      </trkpt>
      <trkpt lat="43.89654" lon="7.21766">
        <ele>1098</ele>
        <time>2012-05-17T10:48:48Z</time>
      </trkpt>
      <trkpt lat="43.89638" lon="7.21764">
        <ele>1097</ele>
        <time>2012-05-17T10:48:55Z</time>
      </trkpt>
      <trkpt lat="43.89629" lon="7.21758">
        <ele>1094</ele>
        <time>2012-05-17T10:49:01Z</time>
      </trkpt>
      <trkpt lat="43.89618" lon="7.21751">
        <ele>1092</ele>
        <time>2012-05-17T10:49:09Z</time>
      </trkpt>
      <trkpt lat="43.89617" lon="7.2175">
        <ele>1092</ele>
        <time>2012-05-17T10:49:16Z</time>
      </trkpt>
      <trkpt lat="43.89617" lon="7.2175">
        <ele>1092</ele>
        <time>2012-05-17T10:49:24Z</time>
      </trkpt>
      <trkpt lat="43.89617" lon="7.2175">
        <ele>1092</ele>
        <time>2012-05-17T10:49:32Z</time>
      </trkpt>
      <trkpt lat="43.89617" lon="7.2175">
        <ele>1092</ele>
        <time>2012-05-17T10:49:39Z</time>
      </trkpt>
      <trkpt lat="43.89604" lon="7.21742">
        <ele>1085</ele>
        <time>2012-05-17T10:49:47Z</time>
      </trkpt>
      <trkpt lat="43.89599" lon="7.21734">
        <ele>1085</ele>
        <time>2012-05-17T10:49:55Z</time>
      </trkpt>
      <trkpt lat="43.89591" lon="7.2172">
        <ele>1086</ele>
        <time>2012-05-17T10:50:02Z</time>
      </trkpt>
      <trkpt lat="43.89582" lon="7.21704">
        <ele>1085</ele>
        <time>2012-05-17T10:50:08Z</time>
      </trkpt>
      <trkpt lat="43.8958" lon="7.21689">
        <ele>1086</ele>
        <time>2012-05-17T10:50:16Z</time>
      </trkpt>
      <trkpt lat="43.89579" lon="7.21687">
        <ele>1086</ele>
        <time>2012-05-17T10:50:24Z</time>
      </trkpt>
      <trkpt lat="43.89573" lon="7.21674">
        <ele>1085</ele>
        <time>2012-05-17T10:50:32Z</time>
      </trkpt>
      <trkpt lat="43.89568" lon="7.21639">
        <ele>1078</ele>
        <time>2012-05-17T10:50:40Z</time>
      </trkpt>
      <trkpt lat="43.8957" lon="7.21623">
        <ele>1078</ele>
        <time>2012-05-17T10:50:47Z</time>
      </trkpt>
      <trkpt lat="43.89568" lon="7.21601">
        <ele>1072</ele>
        <time>2012-05-17T10:50:54Z</time>
      </trkpt>
      <trkpt lat="43.89552" lon="7.21564">
        <ele>1068</ele>
        <time>2012-05-17T10:51:02Z</time>
      </trkpt>
      <trkpt lat="43.89538" lon="7.21538">
        <ele>1067</ele>
        <time>2012-05-17T10:51:09Z</time>
      </trkpt>
      <trkpt lat="43.8953" lon="7.21515">
        <ele>1065</ele>
        <time>2012-05-17T10:51:15Z</time>
      </trkpt>
      <trkpt lat="43.89531" lon="7.21481">
        <ele>1064</ele>
        <time>2012-05-17T10:51:22Z</time>
      </trkpt>
      <trkpt lat="43.89525" lon="7.21446">
        <ele>1062</ele>
        <time>2012-05-17T10:51:28Z</time>
      </trkpt>
      <trkpt lat="43.89524" lon="7.21422">
        <ele>1055</ele>
        <time>2012-05-17T10:51:35Z</time>
      </trkpt>
      <trkpt lat="43.89522" lon="7.21392">
        <ele>1047</ele>
        <time>2012-05-17T10:51:43Z</time>
      </trkpt>
      <trkpt lat="43.89523" lon="7.21386">
        <ele>1046</ele>
        <time>2012-05-17T10:51:49Z</time>
      </trkpt>
      <trkpt lat="43.89524" lon="7.21373">
        <ele>1046</ele>
        <time>2012-05-17T10:51:56Z</time>
      </trkpt>
      <trkpt lat="43.8952" lon="7.21335">
        <ele>1038</ele>
        <time>2012-05-17T10:52:03Z</time>
      </trkpt>
      <trkpt lat="43.89517" lon="7.21302">
        <ele>1033</ele>
        <time>2012-05-17T10:52:10Z</time>
      </trkpt>
      <trkpt lat="43.89517" lon="7.21285">
        <ele>1031</ele>
        <time>2012-05-17T10:52:17Z</time>
      </trkpt>
      <trkpt lat="43.89517" lon="7.21285">
        <ele>1031</ele>
        <time>2012-05-17T10:52:25Z</time>
      </trkpt>
      <trkpt lat="43.89517" lon="7.21282">
        <ele>1031</ele>
        <time>2012-05-17T10:52:32Z</time>
      </trkpt>
      <trkpt lat="43.89517" lon="7.21283">
        <ele>1031</ele>
        <time>2012-05-17T10:52:39Z</time>
      </trkpt>
      <trkpt lat="43.89517" lon="7.21282">
        <ele>1029</ele>
        <time>2012-05-17T10:52:45Z</time>
      </trkpt>
      <trkpt lat="43.89509" lon="7.21249">
        <ele>1023</ele>
        <time>2012-05-17T10:52:53Z</time>
      </trkpt>
      <trkpt lat="43.89498" lon="7.21225">
        <ele>1018</ele>
        <time>2012-05-17T10:53:01Z</time>
      </trkpt>
      <trkpt lat="43.89486" lon="7.21199">
        <ele>1013</ele>
        <time>2012-05-17T10:53:09Z</time>
      </trkpt>
      <trkpt lat="43.8947" lon="7.21176">
        <ele>1011</ele>
        <time>2012-05-17T10:53:17Z</time>
      </trkpt>
      <trkpt lat="43.8945" lon="7.21161">
        <ele>1008</ele>
        <time>2012-05-17T10:53:24Z</time>
      </trkpt>
      <trkpt lat="43.89429" lon="7.21143">
        <ele>1006</ele>
        <time>2012-05-17T10:53:31Z</time>
      </trkpt>
      <trkpt lat="43.89408" lon="7.21118">
        <ele>1005</ele>
        <time>2012-05-17T10:53:39Z</time>
      </trkpt>
      <trkpt lat="43.89389" lon="7.21098">
        <ele>1004</ele>
        <time>2012-05-17T10:53:45Z</time>
      </trkpt>
      <trkpt lat="43.89364" lon="7.21077">
        <ele>1003</ele>
        <time>2012-05-17T10:53:53Z</time>
      </trkpt>
      <trkpt lat="43.89332" lon="7.21053">
        <ele>1003</ele>
        <time>2012-05-17T10:54:01Z</time>
      </trkpt>
      <trkpt lat="43.89297" lon="7.21023">
        <ele>1001</ele>
        <time>2012-05-17T10:54:09Z</time>
      </trkpt>
      <trkpt lat="43.89253" lon="7.20999">
        <ele>998</ele>
        <time>2012-05-17T10:54:17Z</time>
      </trkpt>
      <trkpt lat="43.89225" lon="7.2098">
        <ele>996</ele>
        <time>2012-05-17T10:54:25Z</time>
      </trkpt>
      <trkpt lat="43.89202" lon="7.20953">
        <ele>992</ele>
        <time>2012-05-17T10:54:32Z</time>
      </trkpt>
      <trkpt lat="43.89158" lon="7.2094">
        <ele>983</ele>
        <time>2012-05-17T10:54:39Z</time>
      </trkpt>
      <trkpt lat="43.89112" lon="7.20935">
        <ele>979</ele>
        <time>2012-05-17T10:54:47Z</time>
      </trkpt>
      <trkpt lat="43.89083" lon="7.20915">
        <ele>976</ele>
        <time>2012-05-17T10:54:55Z</time>
      </trkpt>
      <trkpt lat="43.89057" lon="7.20886">
        <ele>970</ele>
        <time>2012-05-17T10:55:02Z</time>
      </trkpt>
      <trkpt lat="43.89043" lon="7.20855">
        <ele>966</ele>
        <time>2012-05-17T10:55:09Z</time>
      </trkpt>
      <trkpt lat="43.89037" lon="7.20827">
        <ele>964</ele>
        <time>2012-05-17T10:55:17Z</time>
      </trkpt>
      <trkpt lat="43.8903" lon="7.20812">
        <ele>963</ele>
        <time>2012-05-17T10:55:24Z</time>
      </trkpt>
      <trkpt lat="43.89024" lon="7.20802">
        <ele>964</ele>
        <time>2012-05-17T10:55:31Z</time>
      </trkpt>
      <trkpt lat="43.89023" lon="7.20802">
        <ele>964</ele>
        <time>2012-05-17T10:55:39Z</time>
      </trkpt>
      <trkpt lat="43.89023" lon="7.20802">
        <ele>964</ele>
        <time>2012-05-17T10:55:45Z</time>
      </trkpt>
      <trkpt lat="43.89023" lon="7.20802">
        <ele>964</ele>
        <time>2012-05-17T10:55:53Z</time>
      </trkpt>
      <trkpt lat="43.89023" lon="7.20802">
        <ele>964</ele>
        <time>2012-05-17T10:56:00Z</time>
      </trkpt>
      <trkpt lat="43.89023" lon="7.20802">
        <ele>964</ele>
        <time>2012-05-17T10:56:07Z</time>
      </trkpt>
      <trkpt lat="43.89023" lon="7.20802">
        <ele>964</ele>
        <time>2012-05-17T10:56:13Z</time>
      </trkpt>
      <trkpt lat="43.89023" lon="7.20802">
        <ele>964</ele>
        <time>2012-05-17T10:56:21Z</time>
      </trkpt>
      <trkpt lat="43.89023" lon="7.20802">
        <ele>964</ele>
        <time>2012-05-17T10:56:28Z</time>
      </trkpt>
      <trkpt lat="43.89023" lon="7.20802">
        <ele>964</ele>
        <time>2012-05-17T10:56:36Z</time>
      </trkpt>
      <trkpt lat="43.89023" lon="7.20802">
        <ele>964</ele>
        <time>2012-05-17T10:56:43Z</time>
      </trkpt>
      <trkpt lat="43.89018" lon="7.208">
        <ele>964</ele>
        <time>2012-05-17T10:56:51Z</time>
      </trkpt>
      <trkpt lat="43.88984" lon="7.2078">
        <ele>962</ele>
        <time>2012-05-17T10:56:58Z</time>
      </trkpt>
      <trkpt lat="43.88958" lon="7.20764">
        <ele>956</ele>
        <time>2012-05-17T10:57:05Z</time>
      </trkpt>
      <trkpt lat="43.88943" lon="7.20742">
        <ele>953</ele>
        <time>2012-05-17T10:57:12Z</time>
      </trkpt>
      <trkpt lat="43.88932" lon="7.20731">
        <ele>950</ele>
        <time>2012-05-17T10:57:19Z</time>
      </trkpt>
      <trkpt lat="43.88923" lon="7.20732">
        <ele>948</ele>
        <time>2012-05-17T10:57:27Z</time>
      </trkpt>
      <trkpt lat="43.8892" lon="7.20731">
        <ele>947</ele>
        <time>2012-05-17T10:57:35Z</time>
      </trkpt>
      <trkpt lat="43.88909" lon="7.20712">
        <ele>943</ele>
        <time>2012-05-17T10:57:42Z</time>
      </trkpt>
      <trkpt lat="43.88884" lon="7.20689">
        <ele>940</ele>
        <time>2012-05-17T10:57:49Z</time>
      </trkpt>
      <trkpt lat="43.8885" lon="7.20672">
        <ele>934</ele>
        <time>2012-05-17T10:57:56Z</time>
      </trkpt>
      <trkpt lat="43.8884" lon="7.20655">
        <ele>930</ele>
        <time>2012-05-17T10:58:03Z</time>
      </trkpt>
      <trkpt lat="43.88845" lon="7.20651">
        <ele>930</ele>
        <time>2012-05-17T10:58:11Z</time>
      </trkpt>
      <trkpt lat="43.88845" lon="7.20651">
        <ele>930</ele>
        <time>2012-05-17T10:58:19Z</time>
      </trkpt>
      <trkpt lat="43.88845" lon="7.20651">
        <ele>930</ele>
        <time>2012-05-17T10:58:27Z</time>
      </trkpt>
      <trkpt lat="43.88846" lon="7.2065">
        <ele>930</ele>
        <time>2012-05-17T10:58:33Z</time>
      </trkpt>
      <trkpt lat="43.88846" lon="7.2065">
        <ele>930</ele>
        <time>2012-05-17T10:58:40Z</time>
      </trkpt>
      <trkpt lat="43.88846" lon="7.2065">
        <ele>930</ele>
        <time>2012-05-17T10:58:47Z</time>
      </trkpt>
      <trkpt lat="43.88846" lon="7.2065">
        <ele>930</ele>
        <time>2012-05-17T10:58:54Z</time>
      </trkpt>
      <trkpt lat="43.88846" lon="7.2065">
        <ele>930</ele>
        <time>2012-05-17T10:59:01Z</time>
      </trkpt>
      <trkpt lat="43.88846" lon="7.2065">
        <ele>930</ele>
        <time>2012-05-17T10:59:09Z</time>
      </trkpt>
      <trkpt lat="43.88846" lon="7.20644">
        <ele>924</ele>
        <time>2012-05-17T10:59:16Z</time>
      </trkpt>
      <trkpt lat="43.88849" lon="7.20612">
        <ele>922</ele>
        <time>2012-05-17T10:59:22Z</time>
      </trkpt>
      <trkpt lat="43.88859" lon="7.20567">
        <ele>921</ele>
        <time>2012-05-17T10:59:30Z</time>
      </trkpt>
      <trkpt lat="43.88859" lon="7.20523">
        <ele>914</ele>
        <time>2012-05-17T10:59:37Z</time>
      </trkpt>
      <trkpt lat="43.88815" lon="7.20479">
        <ele>907</ele>
        <time>2012-05-17T10:59:45Z</time>
      </trkpt>
      <trkpt lat="43.88777" lon="7.20453">
        <ele>904</ele>
        <time>2012-05-17T10:59:52Z</time>
      </trkpt>
      <trkpt lat="43.88725" lon="7.20437">
        <ele>900</ele>
        <time>2012-05-17T11:00:00Z</time>
      </trkpt>
      <trkpt lat="43.88696" lon="7.20437">
        <ele>898</ele>
        <time>2012-05-17T11:00:08Z</time>
      </trkpt>
      <trkpt lat="43.88677" lon="7.20451">
        <ele>897</ele>
        <time>2012-05-17T11:00:15Z</time>
      </trkpt>
      <trkpt lat="43.88653" lon="7.20462">
        <ele>895</ele>
        <time>2012-05-17T11:00:22Z</time>
      </trkpt>
      <trkpt lat="43.88613" lon="7.20473">
        <ele>889</ele>
        <time>2012-05-17T11:00:31Z</time>
      </trkpt>
      <trkpt lat="43.88593" lon="7.20474">
        <ele>885</ele>
        <time>2012-05-17T11:00:38Z</time>
      </trkpt>
      <trkpt lat="43.88589" lon="7.20476">
        <ele>885</ele>
        <time>2012-05-17T11:00:44Z</time>
      </trkpt>
      <trkpt lat="43.88588" lon="7.20477">
        <ele>885</ele>
        <time>2012-05-17T11:00:51Z</time>
      </trkpt>
      <trkpt lat="43.88585" lon="7.20478">
        <ele>880</ele>
        <time>2012-05-17T11:00:58Z</time>
      </trkpt>
      <trkpt lat="43.88565" lon="7.20477">
        <ele>872</ele>
        <time>2012-05-17T11:01:05Z</time>
      </trkpt>
      <trkpt lat="43.88535" lon="7.20478">
        <ele>869</ele>
        <time>2012-05-17T11:01:13Z</time>
      </trkpt>
      <trkpt lat="43.88507" lon="7.2048">
        <ele>867</ele>
        <time>2012-05-17T11:01:19Z</time>
      </trkpt>
      <trkpt lat="43.88484" lon="7.20472">
        <ele>866</ele>
        <time>2012-05-17T11:01:26Z</time>
      </trkpt>
      <trkpt lat="43.88464" lon="7.20481">
        <ele>865</ele>
        <time>2012-05-17T11:01:33Z</time>
      </trkpt>
      <trkpt lat="43.88449" lon="7.20496">
        <ele>864</ele>
        <time>2012-05-17T11:01:39Z</time>
      </trkpt>
      <trkpt lat="43.88431" lon="7.20514">
        <ele>863</ele>
        <time>2012-05-17T11:01:47Z</time>
      </trkpt>
      <trkpt lat="43.88413" lon="7.20532">
        <ele>862</ele>
        <time>2012-05-17T11:01:55Z</time>
      </trkpt>
      <trkpt lat="43.88397" lon="7.20548">
        <ele>863</ele>
        <time>2012-05-17T11:02:01Z</time>
      </trkpt>
      <trkpt lat="43.8838" lon="7.20563">
        <ele>863</ele>
        <time>2012-05-17T11:02:07Z</time>
      </trkpt>
      <trkpt lat="43.88362" lon="7.2058">
        <ele>863</ele>
        <time>2012-05-17T11:02:15Z</time>
      </trkpt>
      <trkpt lat="43.88342" lon="7.20591">
        <ele>862</ele>
        <time>2012-05-17T11:02:22Z</time>
      </trkpt>
      <trkpt lat="43.88323" lon="7.20597">
        <ele>861</ele>
        <time>2012-05-17T11:02:29Z</time>
      </trkpt>
      <trkpt lat="43.88309" lon="7.20601">
        <ele>862</ele>
        <time>2012-05-17T11:02:36Z</time>
      </trkpt>
      <trkpt lat="43.88294" lon="7.20603">
        <ele>863</ele>
        <time>2012-05-17T11:02:42Z</time>
      </trkpt>
      <trkpt lat="43.88267" lon="7.20617">
        <ele>863</ele>
        <time>2012-05-17T11:02:49Z</time>
      </trkpt>
      <trkpt lat="43.88226" lon="7.2063">
        <ele>863</ele>
        <time>2012-05-17T11:02:57Z</time>
      </trkpt>
      <trkpt lat="43.88201" lon="7.2065">
        <ele>863</ele>
        <time>2012-05-17T11:03:04Z</time>
      </trkpt>
      <trkpt lat="43.88182" lon="7.20651">
        <ele>862</ele>
        <time>2012-05-17T11:03:11Z</time>
      </trkpt>
      <trkpt lat="43.88161" lon="7.20651">
        <ele>862</ele>
        <time>2012-05-17T11:03:18Z</time>
      </trkpt>
      <trkpt lat="43.88132" lon="7.2065">
        <ele>862</ele>
        <time>2012-05-17T11:03:25Z</time>
      </trkpt>
      <trkpt lat="43.88106" lon="7.20643">
        <ele>862</ele>
        <time>2012-05-17T11:03:32Z</time>
      </trkpt>
      <trkpt lat="43.88081" lon="7.20638">
        <ele>864</ele>
        <time>2012-05-17T11:03:39Z</time>
      </trkpt>
      <trkpt lat="43.88057" lon="7.20631">
        <ele>864</ele>
        <time>2012-05-17T11:03:46Z</time>
      </trkpt>
      <trkpt lat="43.88033" lon="7.2063">
        <ele>865</ele>
        <time>2012-05-17T11:03:53Z</time>
      </trkpt>
      <trkpt lat="43.88004" lon="7.20626">
        <ele>866</ele>
        <time>2012-05-17T11:04:00Z</time>
      </trkpt>
      <trkpt lat="43.87972" lon="7.20616">
        <ele>865</ele>
        <time>2012-05-17T11:04:09Z</time>
      </trkpt>
      <trkpt lat="43.87936" lon="7.2062">
        <ele>865</ele>
        <time>2012-05-17T11:04:16Z</time>
      </trkpt>
      <trkpt lat="43.87909" lon="7.20627">
        <ele>864</ele>
        <time>2012-05-17T11:04:22Z</time>
      </trkpt>
      <trkpt lat="43.87889" lon="7.20635">
        <ele>863</ele>
        <time>2012-05-17T11:04:30Z</time>
      </trkpt>
      <trkpt lat="43.87868" lon="7.20659">
        <ele>863</ele>
        <time>2012-05-17T11:04:36Z</time>
      </trkpt>
      <trkpt lat="43.87855" lon="7.20694">
        <ele>862</ele>
        <time>2012-05-17T11:04:44Z</time>
      </trkpt>
      <trkpt lat="43.87833" lon="7.20717">
        <ele>861</ele>
        <time>2012-05-17T11:04:51Z</time>
      </trkpt>
      <trkpt lat="43.87802" lon="7.20742">
        <ele>859</ele>
        <time>2012-05-17T11:04:58Z</time>
      </trkpt>
      <trkpt lat="43.87765" lon="7.20758">
        <ele>857</ele>
        <time>2012-05-17T11:05:06Z</time>
      </trkpt>
      <trkpt lat="43.8773" lon="7.20776">
        <ele>855</ele>
        <time>2012-05-17T11:05:12Z</time>
      </trkpt>
      <trkpt lat="43.87689" lon="7.20791">
        <ele>851</ele>
        <time>2012-05-17T11:05:19Z</time>
      </trkpt>
      <trkpt lat="43.87652" lon="7.20801">
        <ele>844</ele>
        <time>2012-05-17T11:05:27Z</time>
      </trkpt>
      <trkpt lat="43.87606" lon="7.20795">
        <ele>837</ele>
        <time>2012-05-17T11:05:35Z</time>
      </trkpt>
      <trkpt lat="43.8758" lon="7.20805">
        <ele>831</ele>
        <time>2012-05-17T11:05:42Z</time>
      </trkpt>
      <trkpt lat="43.87559" lon="7.2081">
        <ele>825</ele>
        <time>2012-05-17T11:05:49Z</time>
      </trkpt>
      <trkpt lat="43.87536" lon="7.20803">
        <ele>820</ele>
        <time>2012-05-17T11:05:56Z</time>
      </trkpt>
      <trkpt lat="43.8751" lon="7.208">
        <ele>816</ele>
        <time>2012-05-17T11:06:02Z</time>
      </trkpt>
      <trkpt lat="43.87483" lon="7.20802">
        <ele>813</ele>
        <time>2012-05-17T11:06:09Z</time>
      </trkpt>
      <trkpt lat="43.87458" lon="7.208">
        <ele>807</ele>
        <time>2012-05-17T11:06:16Z</time>
      </trkpt>
      <trkpt lat="43.87419" lon="7.20798">
        <ele>799</ele>
        <time>2012-05-17T11:06:24Z</time>
      </trkpt>
      <trkpt lat="43.87376" lon="7.20795">
        <ele>793</ele>
        <time>2012-05-17T11:06:32Z</time>
      </trkpt>
      <trkpt lat="43.87349" lon="7.20801">
        <ele>788</ele>
        <time>2012-05-17T11:06:39Z</time>
      </trkpt>
      <trkpt lat="43.87326" lon="7.20817">
        <ele>783</ele>
        <time>2012-05-17T11:06:46Z</time>
      </trkpt>
      <trkpt lat="43.87294" lon="7.20823">
        <ele>778</ele>
        <time>2012-05-17T11:06:54Z</time>
      </trkpt>
      <trkpt lat="43.87266" lon="7.20835">
        <ele>772</ele>
        <time>2012-05-17T11:07:02Z</time>
      </trkpt>
      <trkpt lat="43.87268" lon="7.20832">
        <ele>770</ele>
        <time>2012-05-17T11:07:08Z</time>
      </trkpt>
      <trkpt lat="43.87267" lon="7.20831">
        <ele>770</ele>
        <time>2012-05-17T11:07:14Z</time>
      </trkpt>
      <trkpt lat="43.87266" lon="7.20831">
        <ele>770</ele>
        <time>2012-05-17T11:07:21Z</time>
      </trkpt>
      <trkpt lat="43.87266" lon="7.20831">
        <ele>770</ele>
        <time>2012-05-17T11:07:28Z</time>
      </trkpt>
      <trkpt lat="43.87266" lon="7.20831">
        <ele>770</ele>
        <time>2012-05-17T11:07:35Z</time>
      </trkpt>
      <trkpt lat="43.87266" lon="7.20831">
        <ele>770</ele>
        <time>2012-05-17T11:07:43Z</time>
      </trkpt>
      <trkpt lat="43.87266" lon="7.20831">
        <ele>770</ele>
        <time>2012-05-17T11:07:50Z</time>
      </trkpt>
      <trkpt lat="43.87266" lon="7.20831">
        <ele>770</ele>
        <time>2012-05-17T11:07:59Z</time>
      </trkpt>
      <trkpt lat="43.87266" lon="7.20831">
        <ele>770</ele>
        <time>2012-05-17T11:08:06Z</time>
      </trkpt>
      <trkpt lat="43.87266" lon="7.20831">
        <ele>770</ele>
        <time>2012-05-17T11:08:13Z</time>
      </trkpt>
      <trkpt lat="43.87266" lon="7.20831">
        <ele>770</ele>
        <time>2012-05-17T11:08:20Z</time>
      </trkpt>
      <trkpt lat="43.87266" lon="7.20831">
        <ele>770</ele>
        <time>2012-05-17T11:08:27Z</time>
      </trkpt>
      <trkpt lat="43.87266" lon="7.20831">
        <ele>770</ele>
        <time>2012-05-17T11:08:35Z</time>
      </trkpt>
      <trkpt lat="43.87266" lon="7.20831">
        <ele>770</ele>
        <time>2012-05-17T11:08:41Z</time>
      </trkpt>
      <trkpt lat="43.87266" lon="7.20831">
        <ele>770</ele>
        <time>2012-05-17T11:08:49Z</time>
      </trkpt>
      <trkpt lat="43.87266" lon="7.20831">
        <ele>770</ele>
        <time>2012-05-17T11:08:55Z</time>
      </trkpt>
      <trkpt lat="43.87266" lon="7.20831">
        <ele>770</ele>
        <time>2012-05-17T11:09:02Z</time>
      </trkpt>
      <trkpt lat="43.87266" lon="7.20831">
        <ele>770</ele>
        <time>2012-05-17T11:09:11Z</time>
      </trkpt>
      <trkpt lat="43.87266" lon="7.20831">
        <ele>770</ele>
        <time>2012-05-17T11:09:17Z</time>
      </trkpt>
      <trkpt lat="43.87266" lon="7.20831">
        <ele>770</ele>
        <time>2012-05-17T11:09:26Z</time>
      </trkpt>
      <trkpt lat="43.87266" lon="7.20831">
        <ele>770</ele>
        <time>2012-05-17T11:09:34Z</time>
      </trkpt>
      <trkpt lat="43.87266" lon="7.20831">
        <ele>770</ele>
        <time>2012-05-17T11:09:41Z</time>
      </trkpt>
      <trkpt lat="43.87266" lon="7.20831">
        <ele>770</ele>
        <time>2012-05-17T11:09:48Z</time>
      </trkpt>
      <trkpt lat="43.87266" lon="7.20831">
        <ele>770</ele>
        <time>2012-05-17T11:09:55Z</time>
      </trkpt>
      <trkpt lat="43.87266" lon="7.20831">
        <ele>770</ele>
        <time>2012-05-17T11:10:03Z</time>
      </trkpt>
      <trkpt lat="43.87266" lon="7.20831">
        <ele>770</ele>
        <time>2012-05-17T11:10:09Z</time>
      </trkpt>
      <trkpt lat="43.87266" lon="7.20831">
        <ele>770</ele>
        <time>2012-05-17T11:10:16Z</time>
      </trkpt>
      <trkpt lat="43.87266" lon="7.20831">
        <ele>770</ele>
        <time>2012-05-17T11:10:23Z</time>
      </trkpt>
      <trkpt lat="43.87266" lon="7.20831">
        <ele>770</ele>
        <time>2012-05-17T11:10:31Z</time>
      </trkpt>
      <trkpt lat="43.87266" lon="7.20831">
        <ele>770</ele>
        <time>2012-05-17T11:10:38Z</time>
      </trkpt>
      <trkpt lat="43.87266" lon="7.20831">
        <ele>770</ele>
        <time>2012-05-17T11:10:46Z</time>
      </trkpt>
      <trkpt lat="43.87266" lon="7.20831">
        <ele>770</ele>
        <time>2012-05-17T11:10:52Z</time>
      </trkpt>
      <trkpt lat="43.87266" lon="7.20831">
        <ele>770</ele>
        <time>2012-05-17T11:11:00Z</time>
      </trkpt>
      <trkpt lat="43.87266" lon="7.20831">
        <ele>770</ele>
        <time>2012-05-17T11:11:08Z</time>
      </trkpt>
      <trkpt lat="43.87266" lon="7.20831">
        <ele>770</ele>
        <time>2012-05-17T11:11:15Z</time>
      </trkpt>
      <trkpt lat="43.87266" lon="7.20831">
        <ele>770</ele>
        <time>2012-05-17T11:11:22Z</time>
      </trkpt>
      <trkpt lat="43.87266" lon="7.20831">
        <ele>770</ele>
        <time>2012-05-17T11:11:28Z</time>
      </trkpt>
      <trkpt lat="43.87266" lon="7.20831">
        <ele>770</ele>
        <time>2012-05-17T11:11:36Z</time>
      </trkpt>
      <trkpt lat="43.87266" lon="7.20831">
        <ele>770</ele>
        <time>2012-05-17T11:11:43Z</time>
      </trkpt>
      <trkpt lat="43.87266" lon="7.20831">
        <ele>770</ele>
        <time>2012-05-17T11:11:51Z</time>
      </trkpt>
      <trkpt lat="43.87266" lon="7.20831">
        <ele>770</ele>
        <time>2012-05-17T11:11:58Z</time>
      </trkpt>
      <trkpt lat="43.87266" lon="7.20831">
        <ele>770</ele>
        <time>2012-05-17T11:12:06Z</time>
      </trkpt>
      <trkpt lat="43.87266" lon="7.20831">
        <ele>770</ele>
        <time>2012-05-17T11:12:13Z</time>
      </trkpt>
      <trkpt lat="43.87266" lon="7.20831">
        <ele>770</ele>
        <time>2012-05-17T11:12:20Z</time>
      </trkpt>
      <trkpt lat="43.87266" lon="7.20831">
        <ele>770</ele>
        <time>2012-05-17T11:12:28Z</time>
      </trkpt>
      <trkpt lat="43.87266" lon="7.20831">
        <ele>770</ele>
        <time>2012-05-17T11:12:36Z</time>
      </trkpt>
      <trkpt lat="43.87266" lon="7.20831">
        <ele>770</ele>
        <time>2012-05-17T11:12:42Z</time>
      </trkpt>
      <trkpt lat="43.87266" lon="7.20831">
        <ele>770</ele>
        <time>2012-05-17T11:12:49Z</time>
      </trkpt>
      <trkpt lat="43.87266" lon="7.20831">
        <ele>770</ele>
        <time>2012-05-17T11:12:57Z</time>
      </trkpt>
      <trkpt lat="43.87266" lon="7.20831">
        <ele>770</ele>
        <time>2012-05-17T11:13:04Z</time>
      </trkpt>
      <trkpt lat="43.87266" lon="7.20831">
        <ele>770</ele>
        <time>2012-05-17T11:13:12Z</time>
      </trkpt>
      <trkpt lat="43.87266" lon="7.20831">
        <ele>770</ele>
        <time>2012-05-17T11:13:18Z</time>
      </trkpt>
      <trkpt lat="43.87266" lon="7.20831">
        <ele>770</ele>
        <time>2012-05-17T11:13:25Z</time>
      </trkpt>
      <trkpt lat="43.87266" lon="7.20831">
        <ele>770</ele>
        <time>2012-05-17T11:13:33Z</time>
      </trkpt>
      <trkpt lat="43.87266" lon="7.20831">
        <ele>770</ele>
        <time>2012-05-17T11:13:40Z</time>
      </trkpt>
      <trkpt lat="43.87266" lon="7.20831">
        <ele>770</ele>
        <time>2012-05-17T11:13:48Z</time>
      </trkpt>
      <trkpt lat="43.87266" lon="7.20831">
        <ele>770</ele>
        <time>2012-05-17T11:13:56Z</time>
      </trkpt>
      <trkpt lat="43.87266" lon="7.20831">
        <ele>770</ele>
        <time>2012-05-17T11:14:03Z</time>
      </trkpt>
      <trkpt lat="43.87266" lon="7.20831">
        <ele>770</ele>
        <time>2012-05-17T11:14:10Z</time>
      </trkpt>
      <trkpt lat="43.87266" lon="7.20831">
        <ele>770</ele>
        <time>2012-05-17T11:14:16Z</time>
      </trkpt>
      <trkpt lat="43.87266" lon="7.20831">
        <ele>770</ele>
        <time>2012-05-17T11:14:24Z</time>
      </trkpt>
      <trkpt lat="43.87267" lon="7.20831">
        <ele>770</ele>
        <time>2012-05-17T11:14:31Z</time>
      </trkpt>
      <trkpt lat="43.87264" lon="7.20829">
        <ele>758</ele>
        <time>2012-05-17T11:14:39Z</time>
      </trkpt>
      <trkpt lat="43.87235" lon="7.20829">
        <ele>753</ele>
        <time>2012-05-17T11:14:46Z</time>
      </trkpt>
      <trkpt lat="43.87203" lon="7.20833">
        <ele>751</ele>
        <time>2012-05-17T11:14:53Z</time>
      </trkpt>
      <trkpt lat="43.8718" lon="7.20819">
        <ele>749</ele>
        <time>2012-05-17T11:15:00Z</time>
      </trkpt>
      <trkpt lat="43.87157" lon="7.20814">
        <ele>745</ele>
        <time>2012-05-17T11:15:07Z</time>
      </trkpt>
      <trkpt lat="43.87159" lon="7.20814">
        <ele>745</ele>
        <time>2012-05-17T11:15:14Z</time>
      </trkpt>
      <trkpt lat="43.87159" lon="7.20814">
        <ele>745</ele>
        <time>2012-05-17T11:15:21Z</time>
      </trkpt>
      <trkpt lat="43.87159" lon="7.20814">
        <ele>745</ele>
        <time>2012-05-17T11:15:29Z</time>
      </trkpt>
      <trkpt lat="43.87159" lon="7.20814">
        <ele>745</ele>
        <time>2012-05-17T11:15:37Z</time>
      </trkpt>
      <trkpt lat="43.87159" lon="7.20814">
        <ele>745</ele>
        <time>2012-05-17T11:15:44Z</time>
      </trkpt>
      <trkpt lat="43.87159" lon="7.20814">
        <ele>745</ele>
        <time>2012-05-17T11:15:51Z</time>
      </trkpt>
      <trkpt lat="43.87159" lon="7.20814">
        <ele>745</ele>
        <time>2012-05-17T11:15:59Z</time>
      </trkpt>
      <trkpt lat="43.87159" lon="7.20814">
        <ele>745</ele>
        <time>2012-05-17T11:16:07Z</time>
      </trkpt>
      <trkpt lat="43.87159" lon="7.20814">
        <ele>745</ele>
        <time>2012-05-17T11:16:15Z</time>
      </trkpt>
      <trkpt lat="43.87159" lon="7.20814">
        <ele>745</ele>
        <time>2012-05-17T11:16:22Z</time>
      </trkpt>
      <trkpt lat="43.87159" lon="7.20814">
        <ele>745</ele>
        <time>2012-05-17T11:16:30Z</time>
      </trkpt>
      <trkpt lat="43.87159" lon="7.20815">
        <ele>745</ele>
        <time>2012-05-17T11:16:37Z</time>
      </trkpt>
      <trkpt lat="43.8716" lon="7.20832">
        <ele>741</ele>
        <time>2012-05-17T11:16:44Z</time>
      </trkpt>
      <trkpt lat="43.87176" lon="7.20869">
        <ele>738</ele>
        <time>2012-05-17T11:16:51Z</time>
      </trkpt>
      <trkpt lat="43.87197" lon="7.20883">
        <ele>738</ele>
        <time>2012-05-17T11:16:58Z</time>
      </trkpt>
      <trkpt lat="43.87223" lon="7.20886">
        <ele>737</ele>
        <time>2012-05-17T11:17:06Z</time>
      </trkpt>
      <trkpt lat="43.87253" lon="7.20892">
        <ele>736</ele>
        <time>2012-05-17T11:17:13Z</time>
      </trkpt>
      <trkpt lat="43.87289" lon="7.20896">
        <ele>735</ele>
        <time>2012-05-17T11:17:20Z</time>
      </trkpt>
      <trkpt lat="43.87318" lon="7.20898">
        <ele>735</ele>
        <time>2012-05-17T11:17:28Z</time>
      </trkpt>
      <trkpt lat="43.87359" lon="7.20904">
        <ele>733</ele>
        <time>2012-05-17T11:17:36Z</time>
      </trkpt>
      <trkpt lat="43.87392" lon="7.20914">
        <ele>732</ele>
        <time>2012-05-17T11:17:43Z</time>
      </trkpt>
      <trkpt lat="43.87416" lon="7.20944">
        <ele>732</ele>
        <time>2012-05-17T11:17:50Z</time>
      </trkpt>
      <trkpt lat="43.87438" lon="7.20967">
        <ele>732</ele>
        <time>2012-05-17T11:17:57Z</time>
      </trkpt>
      <trkpt lat="43.87466" lon="7.20981">
        <ele>731</ele>
        <time>2012-05-17T11:18:05Z</time>
      </trkpt>
      <trkpt lat="43.87492" lon="7.20999">
        <ele>730</ele>
        <time>2012-05-17T11:18:13Z</time>
      </trkpt>
      <trkpt lat="43.87515" lon="7.21021">
        <ele>730</ele>
        <time>2012-05-17T11:18:20Z</time>
      </trkpt>
      <trkpt lat="43.87525" lon="7.21045">
        <ele>728</ele>
        <time>2012-05-17T11:18:27Z</time>
      </trkpt>
      <trkpt lat="43.87535" lon="7.21058">
        <ele>728</ele>
        <time>2012-05-17T11:18:34Z</time>
      </trkpt>
      <trkpt lat="43.87537" lon="7.21061">
        <ele>728</ele>
        <time>2012-05-17T11:18:41Z</time>
      </trkpt>
      <trkpt lat="43.87537" lon="7.21061">
        <ele>728</ele>
        <time>2012-05-17T11:18:49Z</time>
      </trkpt>
      <trkpt lat="43.87539" lon="7.21063">
        <ele>729</ele>
        <time>2012-05-17T11:18:56Z</time>
      </trkpt>
      <trkpt lat="43.87557" lon="7.21067">
        <ele>730</ele>
        <time>2012-05-17T11:19:02Z</time>
      </trkpt>
      <trkpt lat="43.87561" lon="7.21068">
        <ele>731</ele>
        <time>2012-05-17T11:19:09Z</time>
      </trkpt>
      <trkpt lat="43.87577" lon="7.21075">
        <ele>732</ele>
        <time>2012-05-17T11:19:16Z</time>
      </trkpt>
      <trkpt lat="43.87597" lon="7.2108">
        <ele>733</ele>
        <time>2012-05-17T11:19:23Z</time>
      </trkpt>
      <trkpt lat="43.87617" lon="7.21085">
        <ele>734</ele>
        <time>2012-05-17T11:19:31Z</time>
      </trkpt>
      <trkpt lat="43.87637" lon="7.21094">
        <ele>735</ele>
        <time>2012-05-17T11:19:38Z</time>
      </trkpt>
      <trkpt lat="43.87655" lon="7.21108">
        <ele>736</ele>
        <time>2012-05-17T11:19:45Z</time>
      </trkpt>
      <trkpt lat="43.8767" lon="7.21128">
        <ele>737</ele>
        <time>2012-05-17T11:19:53Z</time>
      </trkpt>
      <trkpt lat="43.87681" lon="7.21153">
        <ele>737</ele>
        <time>2012-05-17T11:20:01Z</time>
      </trkpt>
      <trkpt lat="43.87701" lon="7.21175">
        <ele>737</ele>
        <time>2012-05-17T11:20:08Z</time>
      </trkpt>
      <trkpt lat="43.87721" lon="7.2118">
        <ele>737</ele>
        <time>2012-05-17T11:20:14Z</time>
      </trkpt>
      <trkpt lat="43.87735" lon="7.21196">
        <ele>737</ele>
        <time>2012-05-17T11:20:21Z</time>
      </trkpt>
      <trkpt lat="43.87744" lon="7.21221">
        <ele>738</ele>
        <time>2012-05-17T11:20:29Z</time>
      </trkpt>
      <trkpt lat="43.87751" lon="7.21237">
        <ele>739</ele>
        <time>2012-05-17T11:20:36Z</time>
      </trkpt>
      <trkpt lat="43.87756" lon="7.21244">
        <ele>740</ele>
        <time>2012-05-17T11:20:43Z</time>
      </trkpt>
      <trkpt lat="43.87762" lon="7.21249">
        <ele>741</ele>
        <time>2012-05-17T11:20:50Z</time>
      </trkpt>
      <trkpt lat="43.87763" lon="7.21249">
        <ele>741</ele>
        <time>2012-05-17T11:20:57Z</time>
      </trkpt>
      <trkpt lat="43.87763" lon="7.21249">
        <ele>741</ele>
        <time>2012-05-17T11:21:04Z</time>
      </trkpt>
      <trkpt lat="43.87763" lon="7.21249">
        <ele>741</ele>
        <time>2012-05-17T11:21:10Z</time>
      </trkpt>
      <trkpt lat="43.87776" lon="7.21251">
        <ele>747</ele>
        <time>2012-05-17T11:21:18Z</time>
      </trkpt>
      <trkpt lat="43.87793" lon="7.21247">
        <ele>748</ele>
        <time>2012-05-17T11:21:25Z</time>
      </trkpt>
      <trkpt lat="43.87809" lon="7.21237">
        <ele>751</ele>
        <time>2012-05-17T11:21:32Z</time>
      </trkpt>
      <trkpt lat="43.8782" lon="7.21227">
        <ele>752</ele>
        <time>2012-05-17T11:21:39Z</time>
      </trkpt>
      <trkpt lat="43.87832" lon="7.21214">
        <ele>753</ele>
        <time>2012-05-17T11:21:46Z</time>
      </trkpt>
      <trkpt lat="43.87842" lon="7.212">
        <ele>754</ele>
        <time>2012-05-17T11:21:53Z</time>
      </trkpt>
      <trkpt lat="43.87855" lon="7.21182">
        <ele>755</ele>
        <time>2012-05-17T11:22:01Z</time>
      </trkpt>
      <trkpt lat="43.87867" lon="7.21168">
        <ele>755</ele>
        <time>2012-05-17T11:22:07Z</time>
      </trkpt>
      <trkpt lat="43.87881" lon="7.21155">
        <ele>756</ele>
        <time>2012-05-17T11:22:14Z</time>
      </trkpt>
      <trkpt lat="43.87904" lon="7.21143">
        <ele>756</ele>
        <time>2012-05-17T11:22:22Z</time>
      </trkpt>
      <trkpt lat="43.87928" lon="7.21133">
        <ele>756</ele>
        <time>2012-05-17T11:22:29Z</time>
      </trkpt>
      <trkpt lat="43.87948" lon="7.2113">
        <ele>756</ele>
        <time>2012-05-17T11:22:35Z</time>
      </trkpt>
      <trkpt lat="43.87979" lon="7.21138">
        <ele>755</ele>
        <time>2012-05-17T11:22:42Z</time>
      </trkpt>
      <trkpt lat="43.88015" lon="7.2113">
        <ele>752</ele>
        <time>2012-05-17T11:22:49Z</time>
      </trkpt>
      <trkpt lat="43.88046" lon="7.2111">
        <ele>751</ele>
        <time>2012-05-17T11:22:57Z</time>
      </trkpt>
      <trkpt lat="43.88066" lon="7.21096">
        <ele>752</ele>
        <time>2012-05-17T11:23:04Z</time>
      </trkpt>
      <trkpt lat="43.88091" lon="7.21088">
        <ele>752</ele>
        <time>2012-05-17T11:23:11Z</time>
      </trkpt>
      <trkpt lat="43.88109" lon="7.21083">
        <ele>752</ele>
        <time>2012-05-17T11:23:19Z</time>
      </trkpt>
      <trkpt lat="43.88133" lon="7.21077">
        <ele>751</ele>
        <time>2012-05-17T11:23:26Z</time>
      </trkpt>
      <trkpt lat="43.88159" lon="7.21066">
        <ele>748</ele>
        <time>2012-05-17T11:23:33Z</time>
      </trkpt>
      <trkpt lat="43.88189" lon="7.21056">
        <ele>747</ele>
        <time>2012-05-17T11:23:40Z</time>
      </trkpt>
      <trkpt lat="43.88196" lon="7.21051">
        <ele>746</ele>
        <time>2012-05-17T11:23:48Z</time>
      </trkpt>
      <trkpt lat="43.88196" lon="7.2105">
        <ele>746</ele>
        <time>2012-05-17T11:23:55Z</time>
      </trkpt>
      <trkpt lat="43.88207" lon="7.21044">
        <ele>745</ele>
        <time>2012-05-17T11:24:03Z</time>
      </trkpt>
      <trkpt lat="43.8823" lon="7.21035">
        <ele>745</ele>
        <time>2012-05-17T11:24:10Z</time>
      </trkpt>
      <trkpt lat="43.88244" lon="7.21031">
        <ele>745</ele>
        <time>2012-05-17T11:24:16Z</time>
      </trkpt>
      <trkpt lat="43.8826" lon="7.21034">
        <ele>744</ele>
        <time>2012-05-17T11:24:23Z</time>
      </trkpt>
      <trkpt lat="43.88288" lon="7.21036">
        <ele>744</ele>
        <time>2012-05-17T11:24:30Z</time>
      </trkpt>
      <trkpt lat="43.88317" lon="7.21018">
        <ele>742</ele>
        <time>2012-05-17T11:24:37Z</time>
      </trkpt>
      <trkpt lat="43.8834" lon="7.20993">
        <ele>742</ele>
        <time>2012-05-17T11:24:44Z</time>
      </trkpt>
      <trkpt lat="43.88363" lon="7.20968">
        <ele>743</ele>
        <time>2012-05-17T11:24:52Z</time>
      </trkpt>
      <trkpt lat="43.8838" lon="7.20959">
        <ele>743</ele>
        <time>2012-05-17T11:24:58Z</time>
      </trkpt>
      <trkpt lat="43.8838" lon="7.20962">
        <ele>743</ele>
        <time>2012-05-17T11:25:05Z</time>
      </trkpt>
      <trkpt lat="43.88382" lon="7.20962">
        <ele>743</ele>
        <time>2012-05-17T11:25:12Z</time>
      </trkpt>
      <trkpt lat="43.88381" lon="7.20962">
        <ele>743</ele>
        <time>2012-05-17T11:25:19Z</time>
      </trkpt>
      <trkpt lat="43.88381" lon="7.20962">
        <ele>743</ele>
        <time>2012-05-17T11:25:26Z</time>
      </trkpt>
      <trkpt lat="43.88381" lon="7.20962">
        <ele>743</ele>
        <time>2012-05-17T11:25:32Z</time>
      </trkpt>
      <trkpt lat="43.8838" lon="7.20962">
        <ele>743</ele>
        <time>2012-05-17T11:25:39Z</time>
      </trkpt>
      <trkpt lat="43.8838" lon="7.20962">
        <ele>743</ele>
        <time>2012-05-17T11:25:47Z</time>
      </trkpt>
      <trkpt lat="43.88381" lon="7.2097">
        <ele>742</ele>
        <time>2012-05-17T11:25:55Z</time>
      </trkpt>
      <trkpt lat="43.88378" lon="7.21012">
        <ele>740</ele>
        <time>2012-05-17T11:26:04Z</time>
      </trkpt>
      <trkpt lat="43.88381" lon="7.21043">
        <ele>739</ele>
        <time>2012-05-17T11:26:10Z</time>
      </trkpt>
      <trkpt lat="43.88393" lon="7.21067">
        <ele>738</ele>
        <time>2012-05-17T11:26:17Z</time>
      </trkpt>
      <trkpt lat="43.88398" lon="7.21089">
        <ele>737</ele>
        <time>2012-05-17T11:26:24Z</time>
      </trkpt>
      <trkpt lat="43.88391" lon="7.21119">
        <ele>736</ele>
        <time>2012-05-17T11:26:31Z</time>
      </trkpt>
      <trkpt lat="43.88401" lon="7.21155">
        <ele>735</ele>
        <time>2012-05-17T11:26:38Z</time>
      </trkpt>
      <trkpt lat="43.88391" lon="7.21175">
        <ele>733</ele>
        <time>2012-05-17T11:26:45Z</time>
      </trkpt>
      <trkpt lat="43.88372" lon="7.2119">
        <ele>734</ele>
        <time>2012-05-17T11:26:53Z</time>
      </trkpt>
      <trkpt lat="43.88359" lon="7.21211">
        <ele>734</ele>
        <time>2012-05-17T11:27:00Z</time>
      </trkpt>
      <trkpt lat="43.88355" lon="7.21237">
        <ele>734</ele>
        <time>2012-05-17T11:27:07Z</time>
      </trkpt>
      <trkpt lat="43.88353" lon="7.21261">
        <ele>732</ele>
        <time>2012-05-17T11:27:14Z</time>
      </trkpt>
      <trkpt lat="43.88344" lon="7.21275">
        <ele>732</ele>
        <time>2012-05-17T11:27:22Z</time>
      </trkpt>
      <trkpt lat="43.88339" lon="7.21302">
        <ele>731</ele>
        <time>2012-05-17T11:27:28Z</time>
      </trkpt>
      <trkpt lat="43.88341" lon="7.21336">
        <ele>731</ele>
        <time>2012-05-17T11:27:35Z</time>
      </trkpt>
      <trkpt lat="43.88337" lon="7.21363">
        <ele>731</ele>
        <time>2012-05-17T11:27:43Z</time>
      </trkpt>
      <trkpt lat="43.88336" lon="7.2138">
        <ele>729</ele>
        <time>2012-05-17T11:27:50Z</time>
      </trkpt>
      <trkpt lat="43.88342" lon="7.21394">
        <ele>727</ele>
        <time>2012-05-17T11:27:57Z</time>
      </trkpt>
      <trkpt lat="43.88345" lon="7.21396">
        <ele>727</ele>
        <time>2012-05-17T11:28:04Z</time>
      </trkpt>
      <trkpt lat="43.88348" lon="7.21405">
        <ele>726</ele>
        <time>2012-05-17T11:28:11Z</time>
      </trkpt>
      <trkpt lat="43.8835" lon="7.21419">
        <ele>726</ele>
        <time>2012-05-17T11:28:19Z</time>
      </trkpt>
      <trkpt lat="43.88356" lon="7.2144">
        <ele>721</ele>
        <time>2012-05-17T11:28:26Z</time>
      </trkpt>
      <trkpt lat="43.88358" lon="7.21451">
        <ele>720</ele>
        <time>2012-05-17T11:28:33Z</time>
      </trkpt>
      <trkpt lat="43.88358" lon="7.21452">
        <ele>720</ele>
        <time>2012-05-17T11:28:41Z</time>
      </trkpt>
      <trkpt lat="43.88358" lon="7.21452">
        <ele>720</ele>
        <time>2012-05-17T11:28:47Z</time>
      </trkpt>
      <trkpt lat="43.88358" lon="7.21452">
        <ele>720</ele>
        <time>2012-05-17T11:28:54Z</time>
      </trkpt>
      <trkpt lat="43.88362" lon="7.21472">
        <ele>715</ele>
        <time>2012-05-17T11:29:01Z</time>
      </trkpt>
      <trkpt lat="43.88365" lon="7.21485">
        <ele>713</ele>
        <time>2012-05-17T11:29:09Z</time>
      </trkpt>
      <trkpt lat="43.88368" lon="7.21506">
        <ele>707</ele>
        <time>2012-05-17T11:29:16Z</time>
      </trkpt>
      <trkpt lat="43.88372" lon="7.21519">
        <ele>705</ele>
        <time>2012-05-17T11:29:23Z</time>
      </trkpt>
      <trkpt lat="43.88372" lon="7.2152">
        <ele>705</ele>
        <time>2012-05-17T11:29:31Z</time>
      </trkpt>
      <trkpt lat="43.88374" lon="7.21525">
        <ele>705</ele>
        <time>2012-05-17T11:29:39Z</time>
      </trkpt>
      <trkpt lat="43.88385" lon="7.21543">
        <ele>694</ele>
        <time>2012-05-17T11:29:47Z</time>
      </trkpt>
      <trkpt lat="43.88412" lon="7.21584">
        <ele>693</ele>
        <time>2012-05-17T11:29:55Z</time>
      </trkpt>
      <trkpt lat="43.88443" lon="7.21621">
        <ele>689</ele>
        <time>2012-05-17T11:30:03Z</time>
      </trkpt>
      <trkpt lat="43.88461" lon="7.21652">
        <ele>688</ele>
        <time>2012-05-17T11:30:10Z</time>
      </trkpt>
      <trkpt lat="43.88473" lon="7.21679">
        <ele>686</ele>
        <time>2012-05-17T11:30:16Z</time>
      </trkpt>
      <trkpt lat="43.88492" lon="7.21721">
        <ele>683</ele>
        <time>2012-05-17T11:30:24Z</time>
      </trkpt>
      <trkpt lat="43.8849" lon="7.21772">
        <ele>681</ele>
        <time>2012-05-17T11:30:31Z</time>
      </trkpt>
      <trkpt lat="43.88475" lon="7.21794">
        <ele>679</ele>
        <time>2012-05-17T11:30:38Z</time>
      </trkpt>
      <trkpt lat="43.8847" lon="7.21811">
        <ele>679</ele>
        <time>2012-05-17T11:30:45Z</time>
      </trkpt>
      <trkpt lat="43.88467" lon="7.21835">
        <ele>677</ele>
        <time>2012-05-17T11:30:52Z</time>
      </trkpt>
      <trkpt lat="43.88464" lon="7.21858">
        <ele>677</ele>
        <time>2012-05-17T11:30:58Z</time>
      </trkpt>
      <trkpt lat="43.88461" lon="7.21885">
        <ele>677</ele>
        <time>2012-05-17T11:31:06Z</time>
      </trkpt>
      <trkpt lat="43.88458" lon="7.21913">
        <ele>677</ele>
        <time>2012-05-17T11:31:14Z</time>
      </trkpt>
      <trkpt lat="43.88457" lon="7.2194">
        <ele>678</ele>
        <time>2012-05-17T11:31:20Z</time>
      </trkpt>
      <trkpt lat="43.88459" lon="7.21956">
        <ele>678</ele>
        <time>2012-05-17T11:31:28Z</time>
      </trkpt>
      <trkpt lat="43.88463" lon="7.21968">
        <ele>681</ele>
        <time>2012-05-17T11:31:35Z</time>
      </trkpt>
      <trkpt lat="43.88467" lon="7.21977">
        <ele>681</ele>
        <time>2012-05-17T11:31:42Z</time>
      </trkpt>
      <trkpt lat="43.88468" lon="7.21978">
        <ele>681</ele>
        <time>2012-05-17T11:31:49Z</time>
      </trkpt>
      <trkpt lat="43.88468" lon="7.2198">
        <ele>681</ele>
        <time>2012-05-17T11:31:56Z</time>
      </trkpt>
      <trkpt lat="43.88468" lon="7.21979">
        <ele>681</ele>
        <time>2012-05-17T11:32:03Z</time>
      </trkpt>
      <trkpt lat="43.8847" lon="7.21984">
        <ele>684</ele>
        <time>2012-05-17T11:32:11Z</time>
      </trkpt>
      <trkpt lat="43.88487" lon="7.2201">
        <ele>687</ele>
        <time>2012-05-17T11:32:17Z</time>
      </trkpt>
      <trkpt lat="43.88491" lon="7.22016">
        <ele>688</ele>
        <time>2012-05-17T11:32:24Z</time>
      </trkpt>
      <trkpt lat="43.88492" lon="7.22017">
        <ele>688</ele>
        <time>2012-05-17T11:32:32Z</time>
      </trkpt>
      <trkpt lat="43.88492" lon="7.22017">
        <ele>688</ele>
        <time>2012-05-17T11:32:39Z</time>
      </trkpt>
      <trkpt lat="43.88491" lon="7.22017">
        <ele>688</ele>
        <time>2012-05-17T11:32:47Z</time>
      </trkpt>
      <trkpt lat="43.88494" lon="7.22018">
        <ele>688</ele>
        <time>2012-05-17T11:32:54Z</time>
      </trkpt>
      <trkpt lat="43.8851" lon="7.22052">
        <ele>698</ele>
        <time>2012-05-17T11:33:01Z</time>
      </trkpt>
      <trkpt lat="43.88514" lon="7.2206">
        <ele>698</ele>
        <time>2012-05-17T11:33:08Z</time>
      </trkpt>
      <trkpt lat="43.88514" lon="7.22061">
        <ele>698</ele>
        <time>2012-05-17T11:33:15Z</time>
      </trkpt>
      <trkpt lat="43.88525" lon="7.22074">
        <ele>700</ele>
        <time>2012-05-17T11:33:23Z</time>
      </trkpt>
      <trkpt lat="43.88532" lon="7.22082">
        <ele>700</ele>
        <time>2012-05-17T11:33:31Z</time>
      </trkpt>
      <trkpt lat="43.88535" lon="7.22083">
        <ele>700</ele>
        <time>2012-05-17T11:33:39Z</time>
      </trkpt>
      <trkpt lat="43.88533" lon="7.22083">
        <ele>700</ele>
        <time>2012-05-17T11:33:47Z</time>
      </trkpt>
      <trkpt lat="43.88534" lon="7.22083">
        <ele>700</ele>
        <time>2012-05-17T11:33:54Z</time>
      </trkpt>
      <trkpt lat="43.88543" lon="7.22098">
        <ele>707</ele>
        <time>2012-05-17T11:34:01Z</time>
      </trkpt>
      <trkpt lat="43.88557" lon="7.22121">
        <ele>708</ele>
        <time>2012-05-17T11:34:08Z</time>
      </trkpt>
      <trkpt lat="43.88572" lon="7.22141">
        <ele>710</ele>
        <time>2012-05-17T11:34:15Z</time>
      </trkpt>
      <trkpt lat="43.88582" lon="7.22154">
        <ele>712</ele>
        <time>2012-05-17T11:34:23Z</time>
      </trkpt>
      <trkpt lat="43.88592" lon="7.22164">
        <ele>711</ele>
        <time>2012-05-17T11:34:31Z</time>
      </trkpt>
      <trkpt lat="43.88601" lon="7.22175">
        <ele>712</ele>
        <time>2012-05-17T11:34:37Z</time>
      </trkpt>
      <trkpt lat="43.88611" lon="7.22188">
        <ele>712</ele>
        <time>2012-05-17T11:34:44Z</time>
      </trkpt>
      <trkpt lat="43.88619" lon="7.22197">
        <ele>713</ele>
        <time>2012-05-17T11:34:51Z</time>
      </trkpt>
      <trkpt lat="43.88622" lon="7.22199">
        <ele>713</ele>
        <time>2012-05-17T11:34:59Z</time>
      </trkpt>
      <trkpt lat="43.88623" lon="7.22199">
        <ele>713</ele>
        <time>2012-05-17T11:35:06Z</time>
      </trkpt>
      <trkpt lat="43.88626" lon="7.22201">
        <ele>713</ele>
        <time>2012-05-17T11:35:13Z</time>
      </trkpt>
      <trkpt lat="43.88633" lon="7.22206">
        <ele>716</ele>
        <time>2012-05-17T11:35:20Z</time>
      </trkpt>
      <trkpt lat="43.88648" lon="7.22216">
        <ele>716</ele>
        <time>2012-05-17T11:35:27Z</time>
      </trkpt>
      <trkpt lat="43.88658" lon="7.22229">
        <ele>718</ele>
        <time>2012-05-17T11:35:35Z</time>
      </trkpt>
      <trkpt lat="43.8866" lon="7.22234">
        <ele>718</ele>
        <time>2012-05-17T11:35:42Z</time>
      </trkpt>
      <trkpt lat="43.88661" lon="7.22235">
        <ele>718</ele>
        <time>2012-05-17T11:35:49Z</time>
      </trkpt>
      <trkpt lat="43.88661" lon="7.22235">
        <ele>718</ele>
        <time>2012-05-17T11:35:57Z</time>
      </trkpt>
      <trkpt lat="43.88664" lon="7.22239">
        <ele>718</ele>
        <time>2012-05-17T11:36:04Z</time>
      </trkpt>
      <trkpt lat="43.88661" lon="7.22235">
        <ele>718</ele>
        <time>2012-05-17T11:36:11Z</time>
      </trkpt>
      <trkpt lat="43.88661" lon="7.22235">
        <ele>718</ele>
        <time>2012-05-17T11:36:19Z</time>
      </trkpt>
      <trkpt lat="43.88661" lon="7.22235">
        <ele>718</ele>
        <time>2012-05-17T11:36:26Z</time>
      </trkpt>
      <trkpt lat="43.88661" lon="7.22235">
        <ele>718</ele>
        <time>2012-05-17T11:36:33Z</time>
      </trkpt>
      <trkpt lat="43.88661" lon="7.22234">
        <ele>718</ele>
        <time>2012-05-17T11:36:41Z</time>
      </trkpt>
      <trkpt lat="43.88664" lon="7.22237">
        <ele>721</ele>
        <time>2012-05-17T11:36:49Z</time>
      </trkpt>
      <trkpt lat="43.88691" lon="7.22267">
        <ele>722</ele>
        <time>2012-05-17T11:36:57Z</time>
      </trkpt>
      <trkpt lat="43.88707" lon="7.22301">
        <ele>721</ele>
        <time>2012-05-17T11:37:05Z</time>
      </trkpt>
      <trkpt lat="43.88721" lon="7.2232">
        <ele>721</ele>
        <time>2012-05-17T11:37:13Z</time>
      </trkpt>
      <trkpt lat="43.88723" lon="7.22327">
        <ele>721</ele>
        <time>2012-05-17T11:37:20Z</time>
      </trkpt>
      <trkpt lat="43.88723" lon="7.2233">
        <ele>721</ele>
        <time>2012-05-17T11:37:27Z</time>
      </trkpt>
      <trkpt lat="43.88702" lon="7.22359">
        <ele>719</ele>
        <time>2012-05-17T11:37:35Z</time>
      </trkpt>
      <trkpt lat="43.88693" lon="7.22361">
        <ele>716</ele>
        <time>2012-05-17T11:37:42Z</time>
      </trkpt>
      <trkpt lat="43.88691" lon="7.22367">
        <ele>712</ele>
        <time>2012-05-17T11:37:49Z</time>
      </trkpt>
      <trkpt lat="43.88697" lon="7.22398">
        <ele>707</ele>
        <time>2012-05-17T11:37:57Z</time>
      </trkpt>
      <trkpt lat="43.88704" lon="7.22423">
        <ele>705</ele>
        <time>2012-05-17T11:38:04Z</time>
      </trkpt>
      <trkpt lat="43.88706" lon="7.2244">
        <ele>703</ele>
        <time>2012-05-17T11:38:11Z</time>
      </trkpt>
      <trkpt lat="43.88709" lon="7.22473">
        <ele>701</ele>
        <time>2012-05-17T11:38:18Z</time>
      </trkpt>
      <trkpt lat="43.8871" lon="7.22505">
        <ele>699</ele>
        <time>2012-05-17T11:38:25Z</time>
      </trkpt>
      <trkpt lat="43.88711" lon="7.22529">
        <ele>697</ele>
        <time>2012-05-17T11:38:33Z</time>
      </trkpt>
      <trkpt lat="43.88711" lon="7.22557">
        <ele>692</ele>
        <time>2012-05-17T11:38:40Z</time>
      </trkpt>
      <trkpt lat="43.8872" lon="7.22581">
        <ele>687</ele>
        <time>2012-05-17T11:38:47Z</time>
      </trkpt>
      <trkpt lat="43.88731" lon="7.22595">
        <ele>684</ele>
        <time>2012-05-17T11:38:55Z</time>
      </trkpt>
      <trkpt lat="43.88731" lon="7.22596">
        <ele>684</ele>
        <time>2012-05-17T11:39:01Z</time>
      </trkpt>
      <trkpt lat="43.88731" lon="7.22596">
        <ele>684</ele>
        <time>2012-05-17T11:39:09Z</time>
      </trkpt>
      <trkpt lat="43.88731" lon="7.22596">
        <ele>684</ele>
        <time>2012-05-17T11:39:16Z</time>
      </trkpt>
      <trkpt lat="43.88731" lon="7.22596">
        <ele>684</ele>
        <time>2012-05-17T11:39:23Z</time>
      </trkpt>
      <trkpt lat="43.88731" lon="7.22596">
        <ele>684</ele>
        <time>2012-05-17T11:39:31Z</time>
      </trkpt>
      <trkpt lat="43.88731" lon="7.22596">
        <ele>684</ele>
        <time>2012-05-17T11:39:38Z</time>
      </trkpt>
      <trkpt lat="43.88731" lon="7.22596">
        <ele>684</ele>
        <time>2012-05-17T11:39:46Z</time>
      </trkpt>
      <trkpt lat="43.88734" lon="7.22603">
        <ele>675</ele>
        <time>2012-05-17T11:39:53Z</time>
      </trkpt>
      <trkpt lat="43.88732" lon="7.22622">
        <ele>672</ele>
        <time>2012-05-17T11:39:59Z</time>
      </trkpt>
      <trkpt lat="43.88722" lon="7.22632">
        <ele>669</ele>
        <time>2012-05-17T11:40:06Z</time>
      </trkpt>
      <trkpt lat="43.88719" lon="7.22653">
        <ele>664</ele>
        <time>2012-05-17T11:40:13Z</time>
      </trkpt>
      <trkpt lat="43.88714" lon="7.22682">
        <ele>659</ele>
        <time>2012-05-17T11:40:20Z</time>
      </trkpt>
      <trkpt lat="43.88715" lon="7.22721">
        <ele>654</ele>
        <time>2012-05-17T11:40:27Z</time>
      </trkpt>
      <trkpt lat="43.88712" lon="7.22756">
        <ele>648</ele>
        <time>2012-05-17T11:40:35Z</time>
      </trkpt>
      <trkpt lat="43.887" lon="7.2277">
        <ele>644</ele>
        <time>2012-05-17T11:40:43Z</time>
      </trkpt>
      <trkpt lat="43.88697" lon="7.2277">
        <ele>643</ele>
        <time>2012-05-17T11:40:49Z</time>
      </trkpt>
      <trkpt lat="43.88697" lon="7.22771">
        <ele>640</ele>
        <time>2012-05-17T11:40:57Z</time>
      </trkpt>
      <trkpt lat="43.88689" lon="7.2278">
        <ele>634</ele>
        <time>2012-05-17T11:41:04Z</time>
      </trkpt>
      <trkpt lat="43.88688" lon="7.22781">
        <ele>634</ele>
        <time>2012-05-17T11:41:12Z</time>
      </trkpt>
      <trkpt lat="43.88685" lon="7.22781">
        <ele>631</ele>
        <time>2012-05-17T11:41:20Z</time>
      </trkpt>
      <trkpt lat="43.88675" lon="7.22784">
        <ele>626</ele>
        <time>2012-05-17T11:41:26Z</time>
      </trkpt>
      <trkpt lat="43.88667" lon="7.2277">
        <ele>622</ele>
        <time>2012-05-17T11:41:33Z</time>
      </trkpt>
      <trkpt lat="43.88659" lon="7.22744">
        <ele>619</ele>
        <time>2012-05-17T11:41:39Z</time>
      </trkpt>
      <trkpt lat="43.88658" lon="7.22738">
        <ele>618</ele>
        <time>2012-05-17T11:41:47Z</time>
      </trkpt>
      <trkpt lat="43.88658" lon="7.22738">
        <ele>618</ele>
        <time>2012-05-17T11:41:53Z</time>
      </trkpt>
      <trkpt lat="43.88658" lon="7.22738">
        <ele>618</ele>
        <time>2012-05-17T11:42:01Z</time>
      </trkpt>
      <trkpt lat="43.88658" lon="7.22738">
        <ele>618</ele>
        <time>2012-05-17T11:42:08Z</time>
      </trkpt>
      <trkpt lat="43.88653" lon="7.22738">
        <ele>614</ele>
        <time>2012-05-17T11:42:15Z</time>
      </trkpt>
      <trkpt lat="43.88622" lon="7.22753">
        <ele>611</ele>
        <time>2012-05-17T11:42:22Z</time>
      </trkpt>
      <trkpt lat="43.8861" lon="7.22759">
        <ele>609</ele>
        <time>2012-05-17T11:42:30Z</time>
      </trkpt>
      <trkpt lat="43.88588" lon="7.22798">
        <ele>608</ele>
        <time>2012-05-17T11:42:36Z</time>
      </trkpt>
      <trkpt lat="43.88583" lon="7.22817">
        <ele>606</ele>
        <time>2012-05-17T11:42:43Z</time>
      </trkpt>
      <trkpt lat="43.88597" lon="7.22821">
        <ele>603</ele>
        <time>2012-05-17T11:42:50Z</time>
      </trkpt>
      <trkpt lat="43.88608" lon="7.22827">
        <ele>600</ele>
        <time>2012-05-17T11:42:56Z</time>
      </trkpt>
      <trkpt lat="43.88619" lon="7.22843">
        <ele>597</ele>
        <time>2012-05-17T11:43:04Z</time>
      </trkpt>
      <trkpt lat="43.88626" lon="7.22865">
        <ele>595</ele>
        <time>2012-05-17T11:43:10Z</time>
      </trkpt>
      <trkpt lat="43.88625" lon="7.22867">
        <ele>595</ele>
        <time>2012-05-17T11:43:17Z</time>
      </trkpt>
      <trkpt lat="43.88625" lon="7.22867">
        <ele>595</ele>
        <time>2012-05-17T11:43:24Z</time>
      </trkpt>
      <trkpt lat="43.88625" lon="7.22867">
        <ele>595</ele>
        <time>2012-05-17T11:43:31Z</time>
      </trkpt>
      <trkpt lat="43.88625" lon="7.22867">
        <ele>595</ele>
        <time>2012-05-17T11:43:38Z</time>
      </trkpt>
      <trkpt lat="43.88625" lon="7.22867">
        <ele>595</ele>
        <time>2012-05-17T11:43:46Z</time>
      </trkpt>
      <trkpt lat="43.88629" lon="7.22873">
        <ele>592</ele>
        <time>2012-05-17T11:43:52Z</time>
      </trkpt>
      <trkpt lat="43.88638" lon="7.22887">
        <ele>589</ele>
        <time>2012-05-17T11:43:59Z</time>
      </trkpt>
      <trkpt lat="43.88639" lon="7.229">
        <ele>588</ele>
        <time>2012-05-17T11:44:06Z</time>
      </trkpt>
      <trkpt lat="43.88633" lon="7.22918">
        <ele>587</ele>
        <time>2012-05-17T11:44:14Z</time>
      </trkpt>
      <trkpt lat="43.88626" lon="7.22929">
        <ele>586</ele>
        <time>2012-05-17T11:44:21Z</time>
      </trkpt>
      <trkpt lat="43.88622" lon="7.22934">
        <ele>584</ele>
        <time>2012-05-17T11:44:28Z</time>
      </trkpt>
      <trkpt lat="43.88618" lon="7.22963">
        <ele>582</ele>
        <time>2012-05-17T11:44:35Z</time>
      </trkpt>
      <trkpt lat="43.88619" lon="7.23008">
        <ele>576</ele>
        <time>2012-05-17T11:44:43Z</time>
      </trkpt>
      <trkpt lat="43.88628" lon="7.23031">
        <ele>573</ele>
        <time>2012-05-17T11:44:51Z</time>
      </trkpt>
      <trkpt lat="43.88619" lon="7.23054">
        <ele>569</ele>
        <time>2012-05-17T11:44:59Z</time>
      </trkpt>
      <trkpt lat="43.88632" lon="7.23067">
        <ele>564</ele>
        <time>2012-05-17T11:45:05Z</time>
      </trkpt>
      <trkpt lat="43.88658" lon="7.23074">
        <ele>560</ele>
        <time>2012-05-17T11:45:13Z</time>
      </trkpt>
      <trkpt lat="43.88673" lon="7.2309">
        <ele>555</ele>
        <time>2012-05-17T11:45:20Z</time>
      </trkpt>
      <trkpt lat="43.88674" lon="7.23115">
        <ele>550</ele>
        <time>2012-05-17T11:45:27Z</time>
      </trkpt>
      <trkpt lat="43.88683" lon="7.23131">
        <ele>545</ele>
        <time>2012-05-17T11:45:34Z</time>
      </trkpt>
      <trkpt lat="43.88694" lon="7.23136">
        <ele>542</ele>
        <time>2012-05-17T11:45:41Z</time>
      </trkpt>
      <trkpt lat="43.88693" lon="7.23136">
        <ele>541</ele>
        <time>2012-05-17T11:45:49Z</time>
      </trkpt>
      <trkpt lat="43.88693" lon="7.23136">
        <ele>541</ele>
        <time>2012-05-17T11:45:55Z</time>
      </trkpt>
      <trkpt lat="43.88693" lon="7.23136">
        <ele>541</ele>
        <time>2012-05-17T11:46:03Z</time>
      </trkpt>
      <trkpt lat="43.88693" lon="7.23136">
        <ele>541</ele>
        <time>2012-05-17T11:46:10Z</time>
      </trkpt>
      <trkpt lat="43.887" lon="7.23145">
        <ele>533</ele>
        <time>2012-05-17T11:46:17Z</time>
      </trkpt>
      <trkpt lat="43.88718" lon="7.23172">
        <ele>530</ele>
        <time>2012-05-17T11:46:24Z</time>
      </trkpt>
      <trkpt lat="43.88739" lon="7.232">
        <ele>528</ele>
        <time>2012-05-17T11:46:31Z</time>
      </trkpt>
      <trkpt lat="43.88758" lon="7.2323">
        <ele>524</ele>
        <time>2012-05-17T11:46:38Z</time>
      </trkpt>
      <trkpt lat="43.8876" lon="7.23255">
        <ele>519</ele>
        <time>2012-05-17T11:46:45Z</time>
      </trkpt>
      <trkpt lat="43.88768" lon="7.23266">
        <ele>515</ele>
        <time>2012-05-17T11:46:52Z</time>
      </trkpt>
      <trkpt lat="43.88768" lon="7.23277">
        <ele>511</ele>
        <time>2012-05-17T11:47:00Z</time>
      </trkpt>
      <trkpt lat="43.88771" lon="7.2328">
        <ele>508</ele>
        <time>2012-05-17T11:47:07Z</time>
      </trkpt>
      <trkpt lat="43.88771" lon="7.2328">
        <ele>508</ele>
        <time>2012-05-17T11:47:15Z</time>
      </trkpt>
      <trkpt lat="43.88775" lon="7.2328">
        <ele>508</ele>
        <time>2012-05-17T11:47:23Z</time>
      </trkpt>
      <trkpt lat="43.88778" lon="7.23281">
        <ele>508</ele>
        <time>2012-05-17T11:47:30Z</time>
      </trkpt>
      <trkpt lat="43.88779" lon="7.23281">
        <ele>508</ele>
        <time>2012-05-17T11:47:37Z</time>
      </trkpt>
      <trkpt lat="43.88785" lon="7.23281">
        <ele>508</ele>
        <time>2012-05-17T11:47:44Z</time>
      </trkpt>
      <trkpt lat="43.88788" lon="7.23282">
        <ele>508</ele>
        <time>2012-05-17T11:47:52Z</time>
      </trkpt>
      <trkpt lat="43.8879" lon="7.23282">
        <ele>508</ele>
        <time>2012-05-17T11:48:00Z</time>
      </trkpt>
      <trkpt lat="43.88788" lon="7.23282">
        <ele>505</ele>
        <time>2012-05-17T11:48:07Z</time>
      </trkpt>
      <trkpt lat="43.88774" lon="7.23293">
        <ele>494</ele>
        <time>2012-05-17T11:48:13Z</time>
      </trkpt>
      <trkpt lat="43.8876" lon="7.23302">
        <ele>491</ele>
        <time>2012-05-17T11:48:20Z</time>
      </trkpt>
      <trkpt lat="43.88759" lon="7.23302">
        <ele>491</ele>
        <time>2012-05-17T11:48:28Z</time>
      </trkpt>
      <trkpt lat="43.88759" lon="7.23302">
        <ele>491</ele>
        <time>2012-05-17T11:48:35Z</time>
      </trkpt>
      <trkpt lat="43.88758" lon="7.23302">
        <ele>489</ele>
        <time>2012-05-17T11:48:43Z</time>
      </trkpt>
      <trkpt lat="43.88734" lon="7.233">
        <ele>486</ele>
        <time>2012-05-17T11:48:49Z</time>
      </trkpt>
      <trkpt lat="43.88712" lon="7.23288">
        <ele>484</ele>
        <time>2012-05-17T11:48:56Z</time>
      </trkpt>
      <trkpt lat="43.88684" lon="7.23296">
        <ele>481</ele>
        <time>2012-05-17T11:49:02Z</time>
      </trkpt>
      <trkpt lat="43.88648" lon="7.23318">
        <ele>478</ele>
        <time>2012-05-17T11:49:09Z</time>
      </trkpt>
      <trkpt lat="43.88623" lon="7.23336">
        <ele>472</ele>
        <time>2012-05-17T11:49:17Z</time>
      </trkpt>
      <trkpt lat="43.8862" lon="7.23343">
        <ele>469</ele>
        <time>2012-05-17T11:49:25Z</time>
      </trkpt>
      <trkpt lat="43.88619" lon="7.23354">
        <ele>460</ele>
        <time>2012-05-17T11:49:33Z</time>
      </trkpt>
      <trkpt lat="43.88622" lon="7.23372">
        <ele>455</ele>
        <time>2012-05-17T11:49:41Z</time>
      </trkpt>
      <trkpt lat="43.88621" lon="7.2338">
        <ele>450</ele>
        <time>2012-05-17T11:49:49Z</time>
      </trkpt>
      <trkpt lat="43.88607" lon="7.23411">
        <ele>446</ele>
        <time>2012-05-17T11:49:57Z</time>
      </trkpt>
      <trkpt lat="43.88577" lon="7.2346">
        <ele>445</ele>
        <time>2012-05-17T11:50:04Z</time>
      </trkpt>
      <trkpt lat="43.88554" lon="7.23482">
        <ele>443</ele>
        <time>2012-05-17T11:50:11Z</time>
      </trkpt>
      <trkpt lat="43.88542" lon="7.23497">
        <ele>442</ele>
        <time>2012-05-17T11:50:19Z</time>
      </trkpt>
      <trkpt lat="43.88528" lon="7.23509">
        <ele>442</ele>
        <time>2012-05-17T11:50:26Z</time>
      </trkpt>
      <trkpt lat="43.88523" lon="7.23514">
        <ele>442</ele>
        <time>2012-05-17T11:50:33Z</time>
      </trkpt>
      <trkpt lat="43.88513" lon="7.23522">
        <ele>443</ele>
        <time>2012-05-17T11:50:41Z</time>
      </trkpt>
      <trkpt lat="43.88501" lon="7.2353">
        <ele>444</ele>
        <time>2012-05-17T11:50:48Z</time>
      </trkpt>
      <trkpt lat="43.88491" lon="7.2354">
        <ele>443</ele>
        <time>2012-05-17T11:50:54Z</time>
      </trkpt>
      <trkpt lat="43.88479" lon="7.23552">
        <ele>443</ele>
        <time>2012-05-17T11:51:01Z</time>
      </trkpt>
      <trkpt lat="43.88465" lon="7.23565">
        <ele>442</ele>
        <time>2012-05-17T11:51:09Z</time>
      </trkpt>
      <trkpt lat="43.88455" lon="7.23584">
        <ele>444</ele>
        <time>2012-05-17T11:51:17Z</time>
      </trkpt>
      <trkpt lat="43.88452" lon="7.23601">
        <ele>445</ele>
        <time>2012-05-17T11:51:24Z</time>
      </trkpt>
      <trkpt lat="43.88454" lon="7.23617">
        <ele>445</ele>
        <time>2012-05-17T11:51:31Z</time>
      </trkpt>
      <trkpt lat="43.88454" lon="7.23632">
        <ele>444</ele>
        <time>2012-05-17T11:51:37Z</time>
      </trkpt>
      <trkpt lat="43.88453" lon="7.23645">
        <ele>443</ele>
        <time>2012-05-17T11:51:44Z</time>
      </trkpt>
      <trkpt lat="43.88453" lon="7.23655">
        <ele>443</ele>
        <time>2012-05-17T11:51:51Z</time>
      </trkpt>
      <trkpt lat="43.88454" lon="7.23659">
        <ele>443</ele>
        <time>2012-05-17T11:51:58Z</time>
      </trkpt>
      <trkpt lat="43.88454" lon="7.23661">
        <ele>443</ele>
        <time>2012-05-17T11:52:05Z</time>
      </trkpt>
      <trkpt lat="43.88454" lon="7.23663">
        <ele>443</ele>
        <time>2012-05-17T11:52:13Z</time>
      </trkpt>
      <trkpt lat="43.88454" lon="7.23664">
        <ele>443</ele>
        <time>2012-05-17T11:52:19Z</time>
      </trkpt>
      <trkpt lat="43.88454" lon="7.23669">
        <ele>448</ele>
        <time>2012-05-17T11:52:26Z</time>
      </trkpt>
      <trkpt lat="43.88462" lon="7.23686">
        <ele>449</ele>
        <time>2012-05-17T11:52:32Z</time>
      </trkpt>
      <trkpt lat="43.88476" lon="7.23708">
        <ele>451</ele>
        <time>2012-05-17T11:52:40Z</time>
      </trkpt>
      <trkpt lat="43.88484" lon="7.23735">
        <ele>450</ele>
        <time>2012-05-17T11:52:48Z</time>
      </trkpt>
      <trkpt lat="43.88487" lon="7.23752">
        <ele>451</ele>
        <time>2012-05-17T11:52:55Z</time>
      </trkpt>
      <trkpt lat="43.88487" lon="7.2377">
        <ele>451</ele>
        <time>2012-05-17T11:53:01Z</time>
      </trkpt>
      <trkpt lat="43.8848" lon="7.23798">
        <ele>452</ele>
        <time>2012-05-17T11:53:09Z</time>
      </trkpt>
      <trkpt lat="43.88474" lon="7.23817">
        <ele>453</ele>
        <time>2012-05-17T11:53:16Z</time>
      </trkpt>
      <trkpt lat="43.88473" lon="7.23824">
        <ele>454</ele>
        <time>2012-05-17T11:53:23Z</time>
      </trkpt>
      <trkpt lat="43.88472" lon="7.23829">
        <ele>454</ele>
        <time>2012-05-17T11:53:31Z</time>
      </trkpt>
      <trkpt lat="43.88472" lon="7.23828">
        <ele>454</ele>
        <time>2012-05-17T11:53:39Z</time>
      </trkpt>
      <trkpt lat="43.88473" lon="7.23838">
        <ele>459</ele>
        <time>2012-05-17T11:53:47Z</time>
      </trkpt>
      <trkpt lat="43.88477" lon="7.23853">
        <ele>459</ele>
        <time>2012-05-17T11:53:53Z</time>
      </trkpt>
      <trkpt lat="43.88479" lon="7.23866">
        <ele>460</ele>
        <time>2012-05-17T11:54:00Z</time>
      </trkpt>
      <trkpt lat="43.88479" lon="7.2389">
        <ele>461</ele>
        <time>2012-05-17T11:54:07Z</time>
      </trkpt>
      <trkpt lat="43.88477" lon="7.23912">
        <ele>462</ele>
        <time>2012-05-17T11:54:15Z</time>
      </trkpt>
      <trkpt lat="43.88478" lon="7.23953">
        <ele>463</ele>
        <time>2012-05-17T11:54:23Z</time>
      </trkpt>
      <trkpt lat="43.88479" lon="7.23984">
        <ele>462</ele>
        <time>2012-05-17T11:54:30Z</time>
      </trkpt>
      <trkpt lat="43.88482" lon="7.24005">
        <ele>462</ele>
        <time>2012-05-17T11:54:37Z</time>
      </trkpt>
      <trkpt lat="43.88495" lon="7.24029">
        <ele>462</ele>
        <time>2012-05-17T11:54:44Z</time>
      </trkpt>
      <trkpt lat="43.88501" lon="7.24039">
        <ele>462</ele>
        <time>2012-05-17T11:54:50Z</time>
      </trkpt>
      <trkpt lat="43.88519" lon="7.24049">
        <ele>462</ele>
        <time>2012-05-17T11:54:58Z</time>
      </trkpt>
      <trkpt lat="43.88537" lon="7.24067">
        <ele>462</ele>
        <time>2012-05-17T11:55:05Z</time>
      </trkpt>
      <trkpt lat="43.88545" lon="7.24081">
        <ele>461</ele>
        <time>2012-05-17T11:55:12Z</time>
      </trkpt>
      <trkpt lat="43.88544" lon="7.24087">
        <ele>461</ele>
        <time>2012-05-17T11:55:18Z</time>
      </trkpt>
      <trkpt lat="43.88544" lon="7.24087">
        <ele>461</ele>
        <time>2012-05-17T11:55:26Z</time>
      </trkpt>
      <trkpt lat="43.88541" lon="7.24088">
        <ele>461</ele>
        <time>2012-05-17T11:55:33Z</time>
      </trkpt>
      <trkpt lat="43.88521" lon="7.24089">
        <ele>461</ele>
        <time>2012-05-17T11:55:41Z</time>
      </trkpt>
      <trkpt lat="43.8849" lon="7.24084">
        <ele>459</ele>
        <time>2012-05-17T11:55:49Z</time>
      </trkpt>
      <trkpt lat="43.88473" lon="7.24063">
        <ele>456</ele>
        <time>2012-05-17T11:55:55Z</time>
      </trkpt>
      <trkpt lat="43.88455" lon="7.2403">
        <ele>454</ele>
        <time>2012-05-17T11:56:03Z</time>
      </trkpt>
      <trkpt lat="43.88441" lon="7.23992">
        <ele>451</ele>
        <time>2012-05-17T11:56:09Z</time>
      </trkpt>
      <trkpt lat="43.88427" lon="7.23965">
        <ele>448</ele>
        <time>2012-05-17T11:56:15Z</time>
      </trkpt>
      <trkpt lat="43.8841" lon="7.23931">
        <ele>444</ele>
        <time>2012-05-17T11:56:22Z</time>
      </trkpt>
      <trkpt lat="43.88404" lon="7.23902">
        <ele>441</ele>
        <time>2012-05-17T11:56:29Z</time>
      </trkpt>
      <trkpt lat="43.88399" lon="7.23884">
        <ele>438</ele>
        <time>2012-05-17T11:56:36Z</time>
      </trkpt>
      <trkpt lat="43.88391" lon="7.23895">
        <ele>435</ele>
        <time>2012-05-17T11:56:43Z</time>
      </trkpt>
      <trkpt lat="43.88385" lon="7.23895">
        <ele>432</ele>
        <time>2012-05-17T11:56:49Z</time>
      </trkpt>
      <trkpt lat="43.88384" lon="7.23875">
        <ele>428</ele>
        <time>2012-05-17T11:56:56Z</time>
      </trkpt>
      <trkpt lat="43.88375" lon="7.23847">
        <ele>423</ele>
        <time>2012-05-17T11:57:03Z</time>
      </trkpt>
      <trkpt lat="43.8836" lon="7.23809">
        <ele>420</ele>
        <time>2012-05-17T11:57:11Z</time>
      </trkpt>
      <trkpt lat="43.88336" lon="7.2375">
        <ele>415</ele>
        <time>2012-05-17T11:57:19Z</time>
      </trkpt>
      <trkpt lat="43.88323" lon="7.23708">
        <ele>412</ele>
        <time>2012-05-17T11:57:27Z</time>
      </trkpt>
      <trkpt lat="43.88313" lon="7.23676">
        <ele>410</ele>
        <time>2012-05-17T11:57:35Z</time>
      </trkpt>
      <trkpt lat="43.88308" lon="7.23649">
        <ele>407</ele>
        <time>2012-05-17T11:57:42Z</time>
      </trkpt>
      <trkpt lat="43.88296" lon="7.23617">
        <ele>405</ele>
        <time>2012-05-17T11:57:48Z</time>
      </trkpt>
      <trkpt lat="43.88297" lon="7.23613">
        <ele>404</ele>
        <time>2012-05-17T11:57:56Z</time>
      </trkpt>
      <trkpt lat="43.88297" lon="7.23613">
        <ele>404</ele>
        <time>2012-05-17T11:58:03Z</time>
      </trkpt>
      <trkpt lat="43.88297" lon="7.23613">
        <ele>404</ele>
        <time>2012-05-17T11:58:11Z</time>
      </trkpt>
      <trkpt lat="43.88297" lon="7.23613">
        <ele>404</ele>
        <time>2012-05-17T11:58:19Z</time>
      </trkpt>
      <trkpt lat="43.88297" lon="7.23613">
        <ele>404</ele>
        <time>2012-05-17T11:58:26Z</time>
      </trkpt>
      <trkpt lat="43.88297" lon="7.23613">
        <ele>404</ele>
        <time>2012-05-17T11:58:33Z</time>
      </trkpt>
      <trkpt lat="43.88297" lon="7.23613">
        <ele>404</ele>
        <time>2012-05-17T11:58:41Z</time>
      </trkpt>
      <trkpt lat="43.88297" lon="7.23612">
        <ele>403</ele>
        <time>2012-05-17T11:58:49Z</time>
      </trkpt>
      <trkpt lat="43.88287" lon="7.23592">
        <ele>398</ele>
        <time>2012-05-17T11:58:57Z</time>
      </trkpt>
      <trkpt lat="43.88262" lon="7.23573">
        <ele>397</ele>
        <time>2012-05-17T11:59:04Z</time>
      </trkpt>
      <trkpt lat="43.88229" lon="7.23538">
        <ele>395</ele>
        <time>2012-05-17T11:59:12Z</time>
      </trkpt>
      <trkpt lat="43.88215" lon="7.23515">
        <ele>391</ele>
        <time>2012-05-17T11:59:19Z</time>
      </trkpt>
      <trkpt lat="43.88196" lon="7.23496">
        <ele>387</ele>
        <time>2012-05-17T11:59:27Z</time>
      </trkpt>
      <trkpt lat="43.88189" lon="7.23461">
        <ele>381</ele>
        <time>2012-05-17T11:59:33Z</time>
      </trkpt>
      <trkpt lat="43.88188" lon="7.23442">
        <ele>376</ele>
        <time>2012-05-17T11:59:40Z</time>
      </trkpt>
      <trkpt lat="43.8818" lon="7.23442">
        <ele>372</ele>
        <time>2012-05-17T11:59:46Z</time>
      </trkpt>
      <trkpt lat="43.88187" lon="7.2343">
        <ele>370</ele>
        <time>2012-05-17T11:59:54Z</time>
      </trkpt>
      <trkpt lat="43.88187" lon="7.23428">
        <ele>370</ele>
        <time>2012-05-17T12:00:01Z</time>
      </trkpt>
      <trkpt lat="43.88186" lon="7.23427">
        <ele>367</ele>
        <time>2012-05-17T12:00:08Z</time>
      </trkpt>
      <trkpt lat="43.88144" lon="7.23415">
        <ele>364</ele>
        <time>2012-05-17T12:00:15Z</time>
      </trkpt>
      <trkpt lat="43.88105" lon="7.23406">
        <ele>360</ele>
        <time>2012-05-17T12:00:23Z</time>
      </trkpt>
      <trkpt lat="43.88096" lon="7.23423">
        <ele>358</ele>
        <time>2012-05-17T12:00:29Z</time>
      </trkpt>
      <trkpt lat="43.88109" lon="7.23393">
        <ele>354</ele>
        <time>2012-05-17T12:00:37Z</time>
      </trkpt>
      <trkpt lat="43.88096" lon="7.23391">
        <ele>350</ele>
        <time>2012-05-17T12:00:44Z</time>
      </trkpt>
      <trkpt lat="43.8809" lon="7.23387">
        <ele>347</ele>
        <time>2012-05-17T12:00:51Z</time>
      </trkpt>
      <trkpt lat="43.88101" lon="7.23379">
        <ele>343</ele>
        <time>2012-05-17T12:00:58Z</time>
      </trkpt>
      <trkpt lat="43.88107" lon="7.23377">
        <ele>341</ele>
        <time>2012-05-17T12:01:05Z</time>
      </trkpt>
      <trkpt lat="43.88102" lon="7.2337">
        <ele>339</ele>
        <time>2012-05-17T12:01:12Z</time>
      </trkpt>
      <trkpt lat="43.88093" lon="7.23362">
        <ele>334</ele>
        <time>2012-05-17T12:01:19Z</time>
      </trkpt>
      <trkpt lat="43.88086" lon="7.23354">
        <ele>330</ele>
        <time>2012-05-17T12:01:27Z</time>
      </trkpt>
      <trkpt lat="43.88092" lon="7.23355">
        <ele>328</ele>
        <time>2012-05-17T12:01:34Z</time>
      </trkpt>
      <trkpt lat="43.88092" lon="7.23355">
        <ele>328</ele>
        <time>2012-05-17T12:01:41Z</time>
      </trkpt>
      <trkpt lat="43.88103" lon="7.23355">
        <ele>322</ele>
        <time>2012-05-17T12:01:48Z</time>
      </trkpt>
      <trkpt lat="43.88125" lon="7.23348">
        <ele>319</ele>
        <time>2012-05-17T12:01:55Z</time>
      </trkpt>
      <trkpt lat="43.88143" lon="7.23342">
        <ele>318</ele>
        <time>2012-05-17T12:02:01Z</time>
      </trkpt>
      <trkpt lat="43.88151" lon="7.23334">
        <ele>318</ele>
        <time>2012-05-17T12:02:08Z</time>
      </trkpt>
      <trkpt lat="43.88153" lon="7.23332">
        <ele>318</ele>
        <time>2012-05-17T12:02:14Z</time>
      </trkpt>
      <trkpt lat="43.88155" lon="7.23329">
        <ele>318</ele>
        <time>2012-05-17T12:02:22Z</time>
      </trkpt>
      <trkpt lat="43.88156" lon="7.23323">
        <ele>319</ele>
        <time>2012-05-17T12:02:29Z</time>
      </trkpt>
      <trkpt lat="43.88134" lon="7.23315">
        <ele>316</ele>
        <time>2012-05-17T12:02:36Z</time>
      </trkpt>
      <trkpt lat="43.88112" lon="7.2331">
        <ele>313</ele>
        <time>2012-05-17T12:02:42Z</time>
      </trkpt>
      <trkpt lat="43.88097" lon="7.23291">
        <ele>309</ele>
        <time>2012-05-17T12:02:49Z</time>
      </trkpt>
      <trkpt lat="43.88092" lon="7.23283">
        <ele>309</ele>
        <time>2012-05-17T12:02:56Z</time>
      </trkpt>
      <trkpt lat="43.88067" lon="7.23276">
        <ele>305</ele>
        <time>2012-05-17T12:03:04Z</time>
      </trkpt>
      <trkpt lat="43.8803" lon="7.23278">
        <ele>302</ele>
        <time>2012-05-17T12:03:11Z</time>
      </trkpt>
      <trkpt lat="43.88018" lon="7.23267">
        <ele>299</ele>
        <time>2012-05-17T12:03:18Z</time>
      </trkpt>
      <trkpt lat="43.87987" lon="7.23257">
        <ele>293</ele>
        <time>2012-05-17T12:03:25Z</time>
      </trkpt>
      <trkpt lat="43.87975" lon="7.23261">
        <ele>291</ele>
        <time>2012-05-17T12:03:32Z</time>
      </trkpt>
      <trkpt lat="43.87972" lon="7.23264">
        <ele>292</ele>
        <time>2012-05-17T12:03:39Z</time>
      </trkpt>
      <trkpt lat="43.87968" lon="7.23266">
        <ele>288</ele>
        <time>2012-05-17T12:03:47Z</time>
      </trkpt>
      <trkpt lat="43.87956" lon="7.23234">
        <ele>283</ele>
        <time>2012-05-17T12:03:55Z</time>
      </trkpt>
      <trkpt lat="43.87954" lon="7.2319">
        <ele>280</ele>
        <time>2012-05-17T12:04:03Z</time>
      </trkpt>
      <trkpt lat="43.87949" lon="7.23151">
        <ele>278</ele>
        <time>2012-05-17T12:04:11Z</time>
      </trkpt>
      <trkpt lat="43.87941" lon="7.23135">
        <ele>274</ele>
        <time>2012-05-17T12:04:19Z</time>
      </trkpt>
      <trkpt lat="43.87939" lon="7.23138">
        <ele>273</ele>
        <time>2012-05-17T12:04:26Z</time>
      </trkpt>
      <trkpt lat="43.87941" lon="7.23145">
        <ele>270</ele>
        <time>2012-05-17T12:04:33Z</time>
      </trkpt>
      <trkpt lat="43.87941" lon="7.23183">
        <ele>266</ele>
        <time>2012-05-17T12:04:41Z</time>
      </trkpt>
      <trkpt lat="43.87949" lon="7.23299">
        <ele>262</ele>
        <time>2012-05-17T12:04:49Z</time>
      </trkpt>
      <trkpt lat="43.8796" lon="7.23357">
        <ele>261</ele>
        <time>2012-05-17T12:04:57Z</time>
      </trkpt>
      <trkpt lat="43.87971" lon="7.23383">
        <ele>262</ele>
        <time>2012-05-17T12:05:05Z</time>
      </trkpt>
      <trkpt lat="43.87971" lon="7.23381">
        <ele>263</ele>
        <time>2012-05-17T12:05:13Z</time>
      </trkpt>
    </trkseg>
  </trk>
</gpx>